[[{"header":{"parameterUnit":"m.s-1","parameterCategory":1,"la1":30.6,"la2":29.2853,"lo1":-89.7004,"lo2":-87.6739,"dy":0.0162,"dx":0.0183,"nx":112,"ny":82,"refTime":"2023-04-20T06:00:00:Z","depth":0,"parameterNumber":2,"parameterNumberName":"U-component_of_WINDS"},"data":[0.0,0.0,0.0,0.0,0.0,0.0,0.0,0.0,0.0,0.0,0.0,0.0,0.0,0.0,0.0,0.0,0.0,0.0,0.0,0.0,0.0,0.0,0.0,0.0,0.0,0.0,0.0,0.0,0.0,0.0,0.0,0.0,0.0,0.0,0.0,0.0,0.0,0.0,0.0,0.0,0.0,0.0,0.0,0.0,0.0,0.0,0.0,0.0,0.0,0.0,0.0,0.0,0.0,0.0,0.0,0.0,0.0,0.0,0.0,0.0,0.0,0.0,0.0,0.0,0.0,0.0,0.0,0.0,0.0,0.0,0.0,0.0,0.0,0.0,0.0,0.0,0.0,0.0,0.0,0.0,0.0,0.0,0.0,0.0,0.0,0.0,0.0,0.0,0.0,0.0,-2.1569,-2.1979,-2.2366,-2.259,-2.2553,-2.1395,-1.9749,-1.7549,0.0,0.0,0.0,0.0,0.0,0.0,0.0,0.0,0.0,0.0,0.0,0.0,0.0,0.0,0.0,0.0,0.0,0.0,0.0,0.0,0.0,0.0,0.0,0.0,0.0,0.0,0.0,0.0,0.0,0.0,0.0,0.0,0.0,0.0,0.0,0.0,0.0,0.0,0.0,0.0,0.0,0.0,0.0,0.0,0.0,0.0,0.0,0.0,0.0,0.0,0.0,0.0,0.0,0.0,0.0,0.0,0.0,0.0,0.0,0.0,0.0,0.0,0.0,0.0,0.0,0.0,0.0,0.0,0.0,0.0,0.0,0.0,0.0,0.0,0.0,0.0,0.0,0.0,0.0,0.0,0.0,0.0,0.0,0.0,0.0,0.0,0.0,0.0,0.0,0.0,0.0,0.0,0.0,0.0,0.0,0.0,0.0,0.0,0.0,0.0,0.0,0.0,0.0,0.0,-2.2451,-2.3014,-2.2536,-2.2101,-2.1949,-2.0626,-1.9124,-1.7495,0.0,0.0,0.0,0.0,0.0,0.0,0.0,0.0,0.0,0.0,0.0,0.0,0.0,0.0,0.0,0.0,0.0,0.0,0.0,0.0,0.0,0.0,0.0,0.0,0.0,0.0,0.0,0.0,0.0,0.0,0.0,0.0,0.0,0.0,0.0,0.0,0.0,0.0,0.0,0.0,0.0,0.0,0.0,0.0,0.0,0.0,0.0,0.0,0.0,0.0,0.0,0.0,0.0,0.0,0.0,0.0,0.0,0.0,0.0,0.0,0.0,0.0,0.0,0.0,0.0,0.0,0.0,0.0,0.0,0.0,0.0,0.0,0.0,0.0,0.0,0.0,0.0,0.0,0.0,0.0,0.0,0.0,0.0,0.0,0.0,0.0,0.0,0.0,0.0,0.0,0.0,0.0,0.0,0.0,0.0,0.0,0.0,0.0,0.0,0.0,0.0,0.0,0.0,-2.23,-2.2785,-2.3246,-2.2777,-2.2176,-2.155,-2.0269,-1.8962,-1.777,-1.6509,0.0,0.0,0.0,0.0,0.0,0.0,0.0,0.0,0.0,0.0,0.0,0.0,0.0,0.0,0.0,0.0,0.0,0.0,0.0,0.0,0.0,0.0,0.0,0.0,0.0,0.0,0.0,0.0,0.0,0.0,0.0,0.0,0.0,0.0,0.0,0.0,0.0,0.0,0.0,0.0,0.0,0.0,0.0,0.0,0.0,0.0,0.0,0.0,0.0,0.0,0.0,0.0,0.0,0.0,0.0,0.0,0.0,0.0,0.0,0.0,0.0,0.0,0.0,0.0,0.0,0.0,0.0,0.0,0.0,0.0,0.0,0.0,0.0,0.0,0.0,0.0,0.0,0.0,0.0,0.0,0.0,0.0,0.0,0.0,0.0,0.0,0.0,0.0,0.0,0.0,0.0,0.0,0.0,0.0,0.0,0.0,0.0,0.0,0.0,0.0,0.0,0.0,-2.2764,-2.2778,-2.3195,-2.2815,-2.2176,-2.1205,-2.0125,-1.9008,-1.7895,-1.6467,0.0,0.0,0.0,0.0,0.0,0.0,0.0,0.0,0.0,0.0,0.0,0.0,0.0,0.0,0.0,0.0,0.0,0.0,0.0,0.0,0.0,0.0,0.0,0.0,0.0,0.0,0.0,0.0,0.0,0.0,0.0,0.0,0.0,0.0,0.0,0.0,0.0,0.0,0.0,0.0,0.0,0.0,0.0,0.0,0.0,0.0,0.0,0.0,0.0,0.0,0.0,0.0,0.0,0.0,0.0,0.0,0.0,0.0,0.0,0.0,0.0,0.0,0.0,0.0,0.0,0.0,0.0,0.0,0.0,0.0,0.0,0.0,0.0,0.0,0.0,0.0,0.0,0.0,0.0,0.0,0.0,0.0,0.0,0.0,0.0,0.0,0.0,0.0,0.0,0.0,0.0,0.0,0.0,0.0,0.0,0.0,0.0,0.0,0.0,0.0,0.0,0.0,-2.2582,-2.2364,-2.2966,-2.2478,-2.1797,-2.0972,-2.0289,-1.9202,-1.7708,-1.6635,0.0,0.0,0.0,0.0,0.0,0.0,0.0,0.0,0.0,0.0,0.0,0.0,0.0,0.0,0.0,0.0,0.0,0.0,0.0,0.0,0.0,0.0,0.0,0.0,0.0,0.0,0.0,0.0,0.0,0.0,0.0,0.0,0.0,0.0,0.0,0.0,0.0,0.0,0.0,0.0,0.0,0.0,0.0,0.0,0.0,0.0,0.0,0.0,0.0,0.0,0.0,0.0,0.0,0.0,0.0,0.0,0.0,0.0,0.0,0.0,0.0,0.0,0.0,0.0,0.0,0.0,0.0,0.0,0.0,0.0,0.0,0.0,0.0,0.0,0.0,0.0,0.0,0.0,0.0,0.0,0.0,0.0,0.0,0.0,0.0,0.0,0.0,0.0,0.0,0.0,0.0,0.0,0.0,0.0,0.0,0.0,0.0,0.0,0.0,0.0,0.0,0.0,-2.2753,-2.2714,-2.3539,-2.28,-2.2129,-2.1742,-2.0542,-1.9315,-1.8211,0.0,0.0,0.0,0.0,0.0,0.0,0.0,0.0,0.0,0.0,0.0,0.0,0.0,0.0,0.0,0.0,0.0,0.0,0.0,0.0,0.0,0.0,0.0,0.0,0.0,0.0,0.0,0.0,0.0,0.0,0.0,0.0,0.0,0.0,0.0,0.0,0.0,0.0,0.0,0.0,0.0,0.0,0.0,0.0,0.0,0.0,0.0,0.0,0.0,0.0,0.0,0.0,0.0,0.0,0.0,0.0,0.0,0.0,0.0,0.0,0.0,0.0,0.0,0.0,0.0,0.0,0.0,0.0,0.0,0.0,0.0,0.0,0.0,0.0,0.0,0.0,0.0,0.0,0.0,0.0,0.0,0.0,0.0,0.0,0.0,0.0,0.0,0.0,0.0,0.0,0.0,0.0,0.0,0.0,0.0,0.0,0.0,0.0,0.0,0.0,0.0,0.0,-2.3114,-2.288,-2.2938,-2.3771,-2.2972,-2.2303,-2.2115,-2.0834,-1.9677,-1.8751,0.0,0.0,0.0,0.0,0.0,0.0,0.0,0.0,0.0,0.0,0.0,0.0,0.0,0.0,0.0,0.0,0.0,0.0,0.0,0.0,0.0,0.0,0.0,0.0,0.0,0.0,0.0,0.0,0.0,0.0,0.0,0.0,0.0,0.0,0.0,0.0,0.0,0.0,0.0,0.0,0.0,0.0,0.0,0.0,0.0,0.0,0.0,0.0,0.0,0.0,0.0,0.0,0.0,0.0,0.0,0.0,0.0,0.0,0.0,0.0,0.0,0.0,0.0,0.0,0.0,0.0,0.0,0.0,0.0,0.0,0.0,0.0,0.0,0.0,0.0,0.0,0.0,0.0,0.0,0.0,0.0,0.0,0.0,0.0,0.0,0.0,0.0,0.0,0.0,0.0,0.0,0.0,0.0,0.0,0.0,0.0,0.0,0.0,0.0,0.0,0.0,0.0,-2.3337,-2.2967,-2.2879,-2.354,-2.2889,-2.2252,-2.1856,-2.1262,-2.0371,0.0,0.0,0.0,0.0,0.0,0.0,0.0,0.0,0.0,0.0,0.0,0.0,0.0,0.0,0.0,0.0,0.0,0.0,0.0,0.0,0.0,0.0,0.0,0.0,0.0,0.0,0.0,0.0,0.0,0.0,0.0,0.0,0.0,0.0,0.0,0.0,0.0,0.0,0.0,0.0,0.0,0.0,0.0,0.0,0.0,0.0,0.0,0.0,0.0,0.0,0.0,0.0,0.0,0.0,0.0,0.0,0.0,0.0,0.0,0.0,0.0,0.0,0.0,0.0,0.0,0.0,0.0,0.0,0.0,0.0,0.0,0.0,0.0,0.0,0.0,0.0,0.0,0.0,0.0,0.0,0.0,0.0,0.0,0.0,0.0,0.0,0.0,0.0,0.0,0.0,0.0,0.0,0.0,0.0,0.0,0.0,0.0,0.0,0.0,0.0,0.0,0.0,0.0,-2.3982,-2.338,-2.3478,-2.5186,-2.3841,-2.2848,-2.3003,-2.1859,-2.0468,-1.8897,0.0,0.0,0.0,0.0,0.0,0.0,0.0,0.0,0.0,0.0,0.0,0.0,0.0,0.0,0.0,0.0,0.0,0.0,0.0,0.0,0.0,0.0,0.0,0.0,0.0,0.0,0.0,0.0,0.0,0.0,0.0,0.0,0.0,0.0,0.0,0.0,0.0,0.0,0.0,0.0,0.0,0.0,0.0,0.0,0.0,0.0,0.0,0.0,0.0,0.0,0.0,0.0,0.0,0.0,0.0,0.0,0.0,0.0,0.0,0.0,0.0,0.0,0.0,0.0,0.0,0.0,0.0,0.0,0.0,0.0,0.0,0.0,0.0,0.0,0.0,0.0,0.0,0.0,0.0,0.0,0.0,0.0,0.0,0.0,0.0,0.0,0.0,0.0,0.0,0.0,0.0,0.0,0.0,0.0,0.0,0.0,0.0,0.0,0.0,0.0,0.0,0.0,-2.4652,-2.4072,-2.4225,-2.5977,-2.4534,-2.3476,-2.3722,-2.2441,-2.0936,-1.9447,0.0,0.0,0.0,0.0,0.0,0.0,0.0,0.0,0.0,0.0,0.0,0.0,0.0,0.0,0.0,0.0,0.0,0.0,0.0,0.0,0.0,0.0,0.0,0.0,0.0,0.0,0.0,0.0,0.0,0.0,0.0,0.0,0.0,0.0,0.0,0.0,0.0,0.0,0.0,0.0,0.0,0.0,0.0,0.0,0.0,0.0,0.0,0.0,0.0,0.0,0.0,0.0,0.0,0.0,0.0,0.0,0.0,0.0,0.0,0.0,0.0,0.0,0.0,0.0,0.0,0.0,0.0,0.0,0.0,0.0,0.0,0.0,0.0,0.0,0.0,0.0,0.0,0.0,0.0,0.0,0.0,0.0,0.0,0.0,0.0,0.0,0.0,0.0,0.0,0.0,0.0,0.0,0.0,0.0,0.0,0.0,0.0,0.0,0.0,0.0,0.0,0.0,-2.5377,-2.5003,-2.5122,-2.6297,-2.5058,-2.4178,-2.4205,-2.2987,-2.1687,-2.041,0.0,0.0,0.0,0.0,0.0,0.0,0.0,0.0,0.0,0.0,0.0,0.0,0.0,0.0,0.0,0.0,0.0,0.0,0.0,0.0,0.0,0.0,0.0,0.0,0.0,0.0,0.0,0.0,0.0,0.0,0.0,0.0,0.0,0.0,0.0,0.0,0.0,0.0,0.0,0.0,0.0,0.0,0.0,0.0,0.0,0.0,0.0,0.0,0.0,0.0,0.0,0.0,0.0,0.0,0.0,0.0,0.0,0.0,0.0,0.0,-2.7597,-2.6214,0.0,0.0,0.0,0.0,0.0,0.0,0.0,0.0,0.0,0.0,0.0,0.0,0.0,0.0,0.0,0.0,0.0,0.0,0.0,0.0,0.0,0.0,0.0,0.0,0.0,0.0,0.0,0.0,0.0,0.0,0.0,0.0,0.0,0.0,0.0,0.0,0.0,0.0,0.0,0.0,-2.6606,-2.6238,-2.6261,-2.7349,-2.6193,-2.525,-2.5007,-2.3414,-2.1966,-2.0836,-1.8744,0.0,0.0,0.0,0.0,0.0,0.0,0.0,0.0,0.0,0.0,0.0,0.0,0.0,0.0,0.0,0.0,0.0,0.0,0.0,0.0,0.0,0.0,0.0,0.0,0.0,0.0,0.0,0.0,0.0,0.0,0.0,0.0,0.0,0.0,0.0,0.0,0.0,0.0,0.0,0.0,0.0,0.0,0.0,0.0,0.0,0.0,0.0,0.0,0.0,0.0,0.0,0.0,0.0,0.0,0.0,0.0,0.0,0.0,0.0,-3.088,-2.9059,0.0,0.0,0.0,0.0,0.0,0.0,0.0,0.0,0.0,0.0,0.0,0.0,0.0,0.0,0.0,0.0,0.0,0.0,0.0,0.0,0.0,0.0,0.0,0.0,0.0,0.0,0.0,0.0,0.0,0.0,0.0,0.0,0.0,0.0,0.0,0.0,0.0,0.0,0.0,0.0,-2.7643,-2.7384,-2.7434,-2.8345,-2.7207,-2.6244,-2.588,-2.4411,-2.2895,-2.1531,-1.9791,0.0,0.0,0.0,0.0,0.0,0.0,0.0,0.0,0.0,0.0,0.0,0.0,0.0,0.0,0.0,0.0,0.0,0.0,0.0,0.0,0.0,0.0,0.0,0.0,0.0,0.0,0.0,0.0,0.0,0.0,0.0,0.0,0.0,0.0,0.0,0.0,0.0,0.0,0.0,0.0,0.0,0.0,0.0,0.0,0.0,0.0,0.0,0.0,0.0,0.0,0.0,0.0,0.0,-3.7402,-3.7761,-3.7203,-3.7587,-3.7557,-3.7107,-3.4341,-3.232,-3.0917,-2.9603,0.0,0.0,0.0,0.0,0.0,0.0,0.0,0.0,0.0,0.0,0.0,0.0,0.0,0.0,0.0,0.0,0.0,0.0,0.0,0.0,0.0,0.0,-3.3368,-3.4071,-3.4502,-3.4358,-3.2715,0.0,0.0,0.0,0.0,0.0,0.0,0.0,0.0,0.0,0.0,0.0,-2.869,-2.8558,-2.8675,-2.9342,-2.8259,-2.7365,-2.7001,-2.56,-2.4132,-2.2614,-2.1155,-1.9598,0.0,0.0,0.0,0.0,0.0,0.0,0.0,0.0,0.0,0.0,0.0,0.0,0.0,0.0,0.0,0.0,0.0,0.0,0.0,0.0,0.0,0.0,0.0,0.0,0.0,0.0,0.0,0.0,0.0,0.0,0.0,0.0,-2.7191,-2.809,0.0,0.0,0.0,0.0,0.0,0.0,0.0,0.0,0.0,0.0,0.0,0.0,0.0,-3.7163,-3.7025,-3.8782,-3.9514,-3.9302,-4.0546,-4.1183,-4.1215,-4.1183,-4.0957,-4.0504,-3.9402,0.0,-3.4332,-3.3513,0.0,0.0,0.0,0.0,0.0,0.0,0.0,0.0,0.0,0.0,0.0,0.0,0.0,0.0,0.0,0.0,0.0,0.0,0.0,0.0,0.0,0.0,-3.7139,-3.7492,-3.8011,-3.8243,-3.7572,-3.4923,-3.2217,-3.069,-3.0107,-2.9592,0.0,0.0,0.0,0.0,0.0,0.0,-2.9931,-2.9859,-2.9969,-3.0532,-2.9714,-2.8977,-2.8792,-2.6743,-2.5209,-2.4619,-2.2656,-2.0879,-1.9537,-1.8855,0.0,0.0,0.0,0.0,0.0,0.0,0.0,0.0,0.0,0.0,0.0,0.0,0.0,0.0,0.0,0.0,0.0,0.0,0.0,0.0,0.0,0.0,0.0,0.0,0.0,0.0,0.0,0.0,0.0,-2.9352,-2.9659,-3.0176,-2.9546,-2.9096,0.0,0.0,0.0,0.0,0.0,0.0,0.0,0.0,0.0,-3.7671,-3.8332,-3.9059,-3.9819,-4.0992,-4.1403,-4.1077,-4.184,-4.2124,-4.2023,-4.2155,-4.2021,-4.165,-4.1469,-4.0255,-3.822,-3.6398,-3.5214,-3.4516,0.0,0.0,0.0,0.0,-3.2599,-3.2974,-3.327,-3.3446,-3.3449,-3.2627,0.0,0.0,0.0,0.0,0.0,0.0,0.0,-3.5746,-3.7418,-3.8227,-3.8652,-3.9016,-3.9236,-3.9262,-3.8935,-3.7596,-3.5833,-3.374,-3.2917,-3.2186,-3.1062,-3.0922,0.0,0.0,0.0,-3.1078,-3.1526,-3.1356,-3.1352,-3.1836,-3.0719,-2.9844,-2.9549,-2.8105,-2.6776,-2.583,-2.4746,-2.337,-2.1681,-2.1334,-2.0485,0.0,0.0,0.0,0.0,0.0,0.0,0.0,0.0,0.0,0.0,0.0,0.0,0.0,0.0,0.0,0.0,0.0,0.0,0.0,0.0,0.0,0.0,0.0,0.0,0.0,0.0,0.0,0.0,-3.1769,-3.2002,-3.206,-3.1802,-3.1513,0.0,0.0,0.0,0.0,0.0,0.0,-3.7284,-3.8117,-3.9125,-4.0325,-4.0354,-4.0887,-4.2057,-4.2682,-4.2789,-4.2474,-4.2837,-4.2895,-4.2652,-4.2931,-4.286,-4.254,-4.2663,-4.2249,-4.1316,-3.8693,-3.7372,-3.6868,-3.5861,-3.537,-3.5156,-3.4486,-3.4545,-3.505,-3.5448,-3.5575,-3.552,-3.4815,-3.4159,-3.331,-3.1678,0.0,0.0,0.0,0.0,-3.7994,-3.9648,-3.9925,-3.9877,-4.0267,-4.021,-4.0008,-3.9874,-3.9678,-3.8831,-3.6457,-3.5601,-3.4836,-3.341,-3.3506,0.0,-3.2631,-3.2948,-3.3275,-3.3204,-3.2761,-3.259,-3.3039,-3.1792,-3.0874,-3.0649,-2.9725,-2.8674,-2.748,-2.6933,-2.5828,-2.3944,-2.3813,-2.2944,-2.1195,0.0,0.0,0.0,0.0,0.0,0.0,0.0,0.0,0.0,0.0,0.0,0.0,0.0,0.0,0.0,0.0,0.0,0.0,0.0,0.0,0.0,0.0,0.0,0.0,0.0,0.0,0.0,0.0,0.0,-3.3591,-3.3747,0.0,0.0,0.0,0.0,-3.5954,-3.8053,-3.9437,-3.9778,-4.1402,-4.2475,-4.2708,-4.3139,-4.3346,-4.3336,-4.3783,-4.3941,-4.382,-4.4103,-4.4304,-4.4456,-4.4266,-4.4106,-4.3883,-4.3464,-4.3152,-4.2743,-4.0492,-3.936,-3.9005,-3.8501,-3.8161,-3.8032,-3.839,-3.836,-3.8217,-3.8555,-3.8347,-3.789,-3.7683,-3.7169,-3.6516,-3.5649,-3.6428,0.0,0.0,-3.9054,-3.9795,-4.1204,-4.1439,-4.1416,-4.1872,-4.1782,-4.1587,-4.1574,-4.099,-3.9861,-3.7845,-3.7486,-3.7075,-3.5989,0.0,-3.5722,-3.5048,-3.4952,-3.4944,-3.4821,-3.3939,-3.3538,-3.4172,-3.3133,-3.2482,-3.2665,-3.1871,-3.0973,-3.0169,-2.9015,-2.7723,-2.6282,-2.5988,-2.4995,-2.3178,-2.3137,0.0,0.0,0.0,0.0,0.0,0.0,0.0,0.0,0.0,0.0,0.0,0.0,0.0,0.0,0.0,0.0,0.0,0.0,0.0,0.0,0.0,0.0,0.0,0.0,0.0,0.0,0.0,0.0,-3.644,-3.6754,0.0,-3.725,-3.7281,-3.7748,-3.8936,-4.0705,-4.1656,-4.1557,-4.2968,-4.3885,-4.4126,-4.4441,-4.4642,-4.475,-4.4783,-4.4651,-4.4346,-4.4441,-4.4534,-4.461,-4.4534,-4.4458,-4.4381,-4.406,-4.3647,-4.3114,-4.2227,-4.1535,-4.099,-3.9535,-3.9164,-3.9463,-3.939,-3.9229,-3.917,-3.9861,-4.001,-3.9764,-3.9395,-3.85,-3.7636,-3.8167,-3.8448,-3.8987,-4.0958,-4.1773,-4.2337,-4.3696,-4.3861,-4.3702,-4.352,-4.3005,-4.2476,-4.2378,-4.1678,-4.0827,-3.9956,-3.9181,-3.8318,-3.7387,-3.7236,-3.7028,-3.6289,-3.6077,-3.5989,-3.5997,-3.5205,-3.4921,-3.5587,-3.4599,-3.3871,-3.3639,-3.321,-3.2507,-3.16,-3.1135,-3.0147,-2.8544,-2.818,-2.7158,-2.528,-2.4807,-2.3881,0.0,0.0,0.0,0.0,0.0,0.0,0.0,0.0,0.0,0.0,0.0,0.0,0.0,0.0,0.0,0.0,0.0,0.0,0.0,0.0,0.0,0.0,0.0,0.0,0.0,-3.665,-3.8058,-3.8151,-3.9077,-3.9665,-3.9548,-3.9833,-4.0343,-4.1143,-4.2857,-4.3648,-4.3217,-4.4261,-4.4956,-4.5056,-4.5028,-4.521,-4.5656,-4.5284,-4.5186,-4.5328,-4.4847,-4.4856,-4.5249,-4.4918,-4.4757,-4.4834,-4.471,-4.4312,-4.3707,-4.3342,-4.3098,-4.2738,-4.0934,-4.0506,-4.0868,-4.072,-4.0547,-4.0479,-4.0926,-4.1213,-4.1249,-4.071,-4.0241,-4.0047,-4.0939,-4.125,-4.1692,-4.3593,-4.4174,-4.4429,-4.5188,-4.5263,-4.4971,-4.4536,-4.3929,-4.3338,-4.3037,-4.242,-4.1837,-4.1511,-4.0561,-3.9619,-3.9041,-3.8984,-3.8769,-3.7943,-3.7828,-3.7732,-3.7337,-3.6553,-3.6232,-3.6565,-3.5679,-3.5011,-3.4735,-3.4659,-3.4161,-3.3149,-3.2865,-3.2042,-3.0513,-3.0025,-2.9042,-2.7451,-2.6417,-2.5337,-2.4283,0.0,0.0,0.0,0.0,0.0,0.0,0.0,0.0,0.0,0.0,0.0,0.0,0.0,0.0,0.0,0.0,0.0,0.0,0.0,0.0,0.0,0.0,0.0,-3.4664,-3.7313,-3.9216,-3.8697,-4.0591,-4.1651,-4.0828,-4.1772,-4.2488,-4.2488,-4.4516,-4.5439,-4.4776,-4.5553,-4.5877,-4.5599,-4.5042,-4.5161,-4.608,-4.5352,-4.5616,-4.6797,-4.5359,-4.538,-4.6573,-4.5532,-4.5178,-4.5345,-4.5345,-4.5094,-4.4572,-4.3932,-4.3905,-4.4182,-4.2836,-4.2316,-4.2346,-4.256,-4.2514,-4.2294,-4.1893,-4.205,-4.2351,-4.1752,-4.2535,-4.3823,-4.4009,-4.4999,-4.6072,-4.6274,-4.6194,-4.595,-4.5746,-4.55,-4.5239,-4.4849,-4.4523,-4.4177,-4.3575,-4.3219,-4.2894,-4.2424,-4.1654,-4.1041,-4.0958,-4.1185,-4.1007,-3.9986,-4.0305,0.0,-3.8826,-3.7944,-3.735,-3.7108,-3.6379,-3.5968,-3.5923,-3.6243,-3.5943,-3.4881,-3.4149,-3.3244,-3.2205,-3.1419,-3.057,-2.965,-2.7914,-2.6613,-2.5685,0.0,0.0,0.0,0.0,0.0,0.0,0.0,0.0,0.0,0.0,0.0,0.0,0.0,0.0,0.0,0.0,0.0,0.0,0.0,0.0,0.0,-3.6686,-3.7832,-3.7588,-3.9836,-4.1562,-4.179,-4.2852,-4.3702,-4.4122,-4.4015,-4.4189,-4.4835,-4.6027,-4.6497,-4.605,-4.7112,-4.7589,-4.7164,-4.7331,-4.737,-4.7283,-4.7095,-4.7069,-4.7175,-4.6756,-4.6734,-4.7107,-4.6616,-4.6405,-4.6445,-4.6326,-4.5808,-4.5117,-4.5087,-4.4734,-4.4182,-4.2978,-4.2769,-4.3168,-4.3125,-4.3214,-4.3347,-4.3549,-4.3778,-4.4118,-4.4578,-4.5031,-4.5414,-4.5773,-4.5969,-4.6164,-4.6986,-4.6823,-4.6573,-4.7183,-4.7039,-4.6655,-4.6353,-4.5752,-4.511,-4.4588,-4.408,-4.3632,-4.3329,-4.294,-4.2461,-4.192,-4.1886,-4.1706,-4.0857,-4.1041,-4.0941,-4.0021,-3.9137,-3.8563,-3.824,-3.7551,-3.6878,-3.6527,-3.6586,-3.6282,-3.5447,-3.4992,-3.4222,-3.3005,-3.2621,-3.1547,-2.977,-2.8887,-2.8042,0.0,0.0,0.0,0.0,0.0,0.0,0.0,0.0,0.0,0.0,0.0,0.0,0.0,0.0,0.0,0.0,0.0,0.0,0.0,0.0,0.0,0.0,-3.8686,-4.0086,-4.0601,-4.1786,-4.2837,-4.3381,-4.4206,-4.4914,-4.5431,-4.5227,-4.5273,-4.5755,-4.6819,-4.7156,-4.6542,-4.7823,-4.8263,-4.761,-4.7871,-4.7987,-4.7927,-4.7808,-4.7889,-4.8205,-4.7582,-4.7544,-4.8105,-4.7477,-4.7163,-4.7163,-4.7074,-4.6401,-4.5432,-4.5549,-4.5149,-4.4358,0.0,0.0,0.0,0.0,-4.4308,-4.4908,-4.4901,-4.5142,-4.5595,-4.6001,-4.6346,-4.6712,-4.6954,-4.7058,-4.7201,-4.7763,-4.7607,-4.7406,-4.7873,-4.7709,-4.7366,-4.7236,-4.6591,-4.5887,-4.5288,-4.4749,-4.4313,-4.405,-4.3918,0.0,-4.3426,-4.3059,-4.2526,-4.1928,-4.2021,-4.1818,-4.097,-4.0228,-3.9688,-3.9406,-3.8553,-3.7842,-3.7467,-3.7488,0.0,0.0,0.0,-3.5163,-3.352,-3.3105,0.0,0.0,0.0,-2.9598,-2.8944,-2.8289,0.0,0.0,-2.4393,-2.4202,0.0,0.0,0.0,0.0,0.0,0.0,0.0,0.0,0.0,0.0,0.0,0.0,0.0,0.0,0.0,0.0,-4.0927,-4.2646,-4.3448,-4.3499,-4.3598,-4.4074,-4.5028,-4.5625,-4.5625,-4.5772,-4.5882,-4.5882,-4.715,-4.758,-4.6755,-4.798,0.0,0.0,0.0,-4.7792,-4.8263,-4.8022,-4.8415,-4.9515,-4.8159,-4.8184,-4.934,-4.8273,-4.7793,-4.7793,-4.7711,-4.7004,-4.5764,-4.5741,-4.5311,-4.4733,-4.4733,-4.4619,-4.4442,-4.4728,-4.5565,-4.6444,-4.6011,0.0,0.0,-4.6619,-4.7058,-4.7711,-4.7711,-4.8101,-4.8521,-4.8385,-4.8343,-4.826,-4.8091,-4.7794,-4.7581,-4.7581,-4.7062,-4.6432,-4.577,-4.5347,-4.4995,-4.4758,-4.4758,-4.4841,-4.5115,-4.4316,-4.3518,-4.3055,-4.3101,-4.2833,-4.1846,-4.1199,-4.0723,-4.044,-3.9438,0.0,-3.8484,-3.8527,-3.8312,-3.7721,-3.7066,-3.5844,-3.3933,-3.3311,-3.2858,-3.2583,-3.1768,-3.1068,-3.059,-3.0024,-2.9497,-2.8987,-2.6594,-2.5772,0.0,0.0,0.0,0.0,0.0,0.0,0.0,0.0,0.0,0.0,0.0,0.0,0.0,0.0,0.0,-4.0873,-4.2234,-4.3388,-4.4957,-4.5256,-4.5452,-4.5721,-4.6072,-4.6316,-4.6316,-4.6502,-4.6539,-4.6391,-4.7328,-4.7991,-4.8168,-4.8954,-4.9251,-4.8925,-4.9085,-4.9205,-4.9324,-4.9403,-4.9584,-4.9789,-4.9505,0.0,-4.9773,-4.9215,-4.8951,-4.8951,-4.8584,-4.7876,-4.6946,-4.6555,-4.5988,-4.5442,-4.5596,-4.5442,-4.5222,-4.5944,-4.6162,-4.6214,-4.6803,-4.716,-4.7496,-4.8009,-4.8286,-4.8419,-4.8419,-4.8388,0.0,-4.848,-4.8427,-4.8301,-4.826,-4.7922,-4.7581,-4.7581,-4.7062,-4.6506,-4.6138,-4.6153,-4.6093,-4.5467,-4.5618,-4.581,-4.5475,-4.4961,-4.4414,-4.4135,-4.3948,-4.361,-4.3026,-4.2229,-4.1551,-4.1074,-4.0044,-3.9346,-3.908,-3.8284,-3.7919,-3.8231,-3.6997,-3.5767,-3.4625,-3.407,-3.3561,-3.3048,-3.2457,-3.2079,-3.1826,-3.1126,-3.0719,-3.0451,-2.8917,-2.8286,0.0,0.0,0.0,0.0,0.0,0.0,0.0,0.0,0.0,0.0,0.0,-3.5548,-3.7157,0.0,-4.0537,-4.2371,-4.3797,-4.4913,-4.5703,-4.6119,-4.6431,-4.6547,-4.674,-4.6893,-4.7007,-4.7082,-4.7158,-4.7189,-4.7966,-4.8464,-4.8608,-4.9236,-4.9533,-4.9331,-4.9493,-4.9613,-4.9613,-4.9812,-4.9892,-4.9892,-4.9812,-4.9773,-4.9773,-4.9452,-4.9144,-4.8823,-4.8891,-4.8254,-4.7065,-4.6846,-4.6467,-4.6181,-4.692,-4.6919,-4.6515,-4.7053,-4.7382,-4.7579,-4.8223,-4.8521,-4.8686,-4.9278,-4.9151,-4.8821,-4.8821,-4.8577,-4.8301,-4.8301,-4.8301,-4.8301,-4.8301,-4.8133,-4.7964,-4.8091,-4.7593,-4.7032,-4.6741,-4.6726,-4.6624,-4.6135,-4.6225,-4.6314,-4.609,-4.564,-4.5213,-4.4705,-4.4162,-4.3709,-4.3471,-4.2746,-4.2075,-4.1688,-4.0649,-3.9871,-3.9481,-3.8979,-3.8585,-3.8466,-3.7593,-3.6552,-3.5243,-3.4703,-3.4221,-3.3801,-3.3384,-3.3153,-3.2987,-3.2501,-3.2247,-3.2246,-3.1608,-3.0762,0.0,0.0,0.0,0.0,0.0,0.0,0.0,-3.478,-3.5917,-3.5599,-3.6684,-3.8145,-3.9702,-4.1483,-4.2913,-4.3648,-4.5183,-4.6305,-4.6265,-4.6748,-4.7167,-4.7212,-4.7356,-4.7458,-4.7652,-4.769,-4.7799,-4.8022,-4.8566,-4.8835,-4.8836,-4.9259,-4.9493,-4.9331,-4.9493,-4.9613,-4.9613,-4.9812,-4.9892,-4.9892,-4.9733,-4.9693,-4.9653,-4.9452,-4.8997,-4.8363,-4.8894,-4.8369,-4.7145,-4.7145,-4.7066,-4.7088,-4.82,-4.8363,-4.8007,-4.8168,-4.8581,-4.9048,-4.9572,-4.9747,-4.9828,-5.0205,-4.9774,-4.904,-4.8997,-4.8639,-4.8218,-4.8091,-4.8218,-4.8385,-4.8385,-4.8301,-4.8301,-4.8438,-4.7976,-4.7422,-4.7133,-4.6989,-4.6844,-4.6624,-4.6697,-4.6741,-4.6668,-4.6314,-4.5759,-4.4982,-4.4228,-4.3757,-4.3709,-4.3067,-4.2533,-4.2289,-4.1346,-4.0441,-3.9671,-3.9773,-3.9423,-3.8463,-3.8216,-3.7344,-3.5722,-3.5243,-3.4862,-3.4553,-3.4328,-3.4196,-3.4087,-3.3726,-3.3612,-3.3692,-3.3692,-3.2706,-3.338,-3.3359,-3.3463,-3.42,-3.5273,-3.6143,0.0,-3.763,-3.8727,-3.8648,-3.9201,-4.0234,-4.1773,-4.2385,-4.3292,-4.5051,-4.588,-4.6498,-4.7079,-4.7567,-4.7985,-4.8368,-4.8302,-4.8199,-4.8207,-4.8365,-4.8483,-4.8529,-4.8584,-4.8938,-4.9694,-4.947,-4.93,-4.9331,-4.9493,-4.9613,-4.9613,-4.9812,-4.9892,-4.9892,-4.9892,-4.9892,-4.9892,-4.9693,-4.9196,-4.853,-4.8465,-4.8324,-4.8128,-4.7938,-4.8057,-4.8373,-4.8545,-4.8914,-4.9367,-4.9407,-4.9228,-4.913,-4.9947,-5.0206,-5.0248,-5.0506,-4.9959,-4.9225,-4.904,-4.8554,-4.8049,-4.8218,-4.8396,-4.8563,-4.8563,-4.8301,-4.8049,-4.8049,-4.7538,-4.6931,-4.6712,-4.68,-4.6844,-4.6624,-4.6961,-4.7179,-4.6931,-4.6668,-4.618,-4.523,-4.4648,-4.4228,-4.3974,-4.3499,-4.3115,-4.2825,-4.2284,-4.1182,-3.9472,-3.9981,-3.9728,-3.8181,-3.8091,-3.7468,-3.6002,-3.5829,-3.5545,-3.5097,-3.5009,-3.5088,-3.5233,-3.4481,-3.4109,-3.403,-3.403,-3.3628,-3.4667,-3.4969,-3.5527,-3.603,-3.7133,-3.8151,-3.8394,-3.9505,-4.0461,-4.0315,-4.0904,-4.1795,-4.2917,-4.3711,-4.4452,-4.5112,-4.5929,-4.6689,-4.7242,-4.7579,-4.7905,-4.8223,-4.8047,-4.8137,-4.8823,-4.8965,-4.9094,-4.9332,-4.9253,-4.9339,-4.9701,-4.9573,-4.9452,-4.9331,-4.9613,-4.9733,-4.9613,-4.9812,-4.9892,-4.9892,-4.9892,-4.9892,-4.9892,-4.9812,-4.9615,-4.9332,-4.8757,-4.896,-4.9712,-4.96,-4.968,-4.981,-5.005,-5.0105,-4.9939,-5.001,-5.0065,-5.0254,-5.0902,-5.1162,-5.1301,-5.1502,-5.0859,-4.997,-4.9342,-4.8914,-4.8523,-4.8183,-4.826,-4.8561,-4.9086,-4.9209,-4.9259,-4.9658,-4.9291,-4.8783,-4.8563,-4.8505,-4.8252,-4.7466,-4.7716,-4.7815,-4.7034,-4.6975,-4.6624,-4.5504,-4.5018,-4.4602,-4.4068,-4.3832,-4.3451,-4.2776,-4.219,-4.1392,-4.0309,-4.0414,-4.0084,-3.9038,-3.8717,-3.8087,-3.7196,-3.6518,-3.6133,-3.6061,-3.5726,-3.5611,-3.5621,-3.5308,-3.4946,-3.459,-3.459,-3.4367,-3.5674,-3.626,-3.7099,-3.7639,-3.8895,-3.9955,-4.0064,-4.104,-4.1893,-4.1901,-4.2509,-4.3256,-4.3935,-4.5038,-4.5715,-4.5333,-4.6324,-4.7169,-4.7303,-4.7651,-4.7875,-4.7893,-4.77,-4.7966,-4.8827,-4.901,-4.9273,-4.986,-4.9733,-4.9653,-4.9693,-4.9533,-4.9412,-4.9381,-4.9582,-4.9733,-4.9693,-4.9852,-4.9892,-4.9892,-4.9892,-4.9892,-4.986,-4.971,-4.9742,-4.9829,-4.9048,-4.9473,-5.0803,-5.0803,-5.0938,-5.1218,-5.1542,-5.1383,-5.0952,-5.0753,-5.085,-5.119,-5.1424,-5.1744,-5.2082,-5.2092,-5.144,-5.0563,-4.9854,-4.9491,-4.9248,-4.8761,-4.8767,-4.9101,-4.9793,-5.0044,-5.0209,-5.0672,-5.045,-5.0026,-4.9805,-4.9538,-4.9194,-4.8417,-4.8431,-4.8337,-4.7507,-4.7442,-4.7106,-4.5956,-4.564,-4.5184,-4.4209,-4.4021,-4.3689,-4.2798,-4.2338,-4.1746,-4.0971,-4.0744,-4.0287,-3.962,-3.9043,-3.8434,-3.7915,-3.7087,-3.6677,-3.6748,-3.6324,-3.6125,-3.6059,-3.5895,-3.5588,-3.5202,-3.5035,-3.4869,-3.6641,-3.7323,-3.8109,-3.9098,-4.0344,-4.14,-4.1595,-4.2466,-4.3349,-4.381,-4.4316,-4.469,-4.4919,-4.6224,-4.6936,-4.6022,-4.7354,-4.8245,-4.7425,-4.805,-4.8327,-4.7681,-4.7619,-4.77,-4.8004,-4.8204,-4.8764,-4.9829,-4.9733,-4.9693,-4.9892,-4.9331,-4.92,-4.9573,-4.9381,-4.9501,-4.9892,-4.9892,-4.9892,-4.9892,-4.9892,-4.9892,-4.99,-4.9236,-4.9299,-4.9829,-4.9173,-4.9679,-5.0974,-5.0974,-5.1628,-5.2629,-5.2669,-5.2757,-5.2788,-5.1884,-5.1581,-5.1518,-5.1142,-5.1573,-5.2225,-5.1774,-5.1334,-5.0955,-5.0668,-5.0409,-5.0258,-5.0258,-5.0432,-5.0636,-5.0667,-5.0463,-5.0332,-5.0332,-4.9938,-4.9568,-4.9344,-4.9119,-4.8953,-4.9149,-4.8863,-4.8575,-4.8544,-4.8218,-4.7666,-4.6712,-4.6535,-4.6046,-4.4583,-4.4162,-4.3784,-4.3307,-4.3018,-4.2338,-4.0997,-4.0896,-4.044,-3.9362,-3.8736,-3.8158,-3.7643,-3.7336,-3.7048,-3.6782,-3.6724,-3.6688,-3.6657,-3.6059,-3.5808,-3.5753,-3.5257,-3.498,-3.7857,-3.8325,-3.8977,-4.0179,-4.1023,-4.1814,-4.2755,-4.3358,-4.368,-4.3411,-4.3944,-4.4248,-4.3783,-4.5061,-4.6085,-4.576,-4.6616,-4.7455,-4.805,-4.804,-4.8019,-4.8235,-4.7865,-4.77,-4.7973,-4.8053,-4.8533,-4.963,-4.9653,-4.9882,-5.0595,-5.0073,-5.0002,-5.0515,-5.0303,-5.001,-4.9701,-5.001,-5.001,-4.9701,-4.9852,-4.9892,-4.9931,-5.0153,-5.0445,-5.0627,-5.0848,-5.1512,-5.2396,-5.2396,-5.2771,-5.3373,-5.3373,-5.2917,-5.2248,-5.1913,-5.2019,-5.2165,-5.0933,-5.1126,-5.1691,-5.0978,-5.1181,-5.1486,-5.0516,-5.0543,-5.0869,-5.0411,-5.0332,-5.0585,-5.1208,-5.13,-5.1335,-5.1765,-5.1634,-5.1364,-5.1319,-5.1092,-5.0788,-5.0246,-5.0289,-4.9954,-4.8637,-4.8568,-4.8179,-4.6801,-4.618,-4.564,-4.4954,-4.4676,-4.4303,-4.3832,-4.3403,-4.2776,-4.1769,-4.1198,-4.0593,-3.9878,-3.929,-3.883,-3.8414,-3.7813,-3.7425,-3.7334,-3.6956,-3.6761,-3.6712,-3.6495,-3.6168,-3.5808,-3.5423,-3.5257,-3.876,-3.9483,-4.0284,-4.1418,-4.1795,-4.2173,-4.3254,-4.3586,-4.3419,-4.2582,-4.3396,-4.3953,-4.2954,-4.4358,-4.5665,-4.5626,-4.6436,-4.7423,-4.845,-4.845,-4.8419,-4.8604,-4.8235,-4.7906,-4.7852,-4.7852,-4.8373,-4.951,-4.9613,-5.0016,-5.0943,-5.0359,-5.0295,-5.0983,-5.0509,-5.005,-4.9733,-5.001,-5.0137,-5.0111,-5.0199,-5.0311,-5.0311,-5.1037,-5.1195,-5.1046,-5.1701,-5.2428,-5.3123,-5.3123,-5.347,-5.4109,-5.3994,-5.3574,-5.2981,-5.2684,-5.2717,-5.2754,-5.1204,-5.1324,-5.2105,-5.1189,-5.1454,-5.1957,-5.1074,-5.1314,-5.1707,-5.1277,-5.1155,-5.1322,-5.1915,-5.2082,-5.2175,-5.2606,-5.2518,-5.2306,-5.2306,-5.2155,-5.1804,-5.1243,-5.1212,-5.0784,-4.9161,-4.8675,-4.8063,-4.6801,-4.618,-4.5685,-4.5184,-4.4908,-4.4612,-4.4068,-4.3642,-4.3115,-4.2311,-4.1571,-4.0946,-4.0287,-3.9724,-3.931,-3.8998,-3.8289,-3.7996,-3.8179,-3.7655,-3.7364,-3.7317,-3.7076,-3.6656,-3.6114,-3.573,-3.5533,-3.9499,-4.0721,-4.1942,-4.2735,-4.265,-4.2487,-4.3104,-4.3107,-4.2659,-4.1509,-4.2897,-4.3876,-4.2561,-4.4339,-4.5889,-4.5727,-4.6956,-4.814,-4.8646,-4.9323,-4.9508,-4.885,-4.8727,-4.845,-4.7835,-4.7742,-4.8273,-4.9533,-4.9613,-5.0007,-5.0943,-5.0151,-5.0048,-5.0943,-5.0119,-4.9733,-4.9892,-4.9923,-5.0311,-5.1015,-5.1046,-5.1078,-5.1078,-5.1764,-5.1701,-5.1173,-5.1828,-5.2523,-5.3155,-5.3155,-5.3787,-5.4771,-5.4465,-5.4601,-5.4902,-5.3999,-5.3537,-5.3226,-5.1853,-5.2223,-5.3183,-5.2245,-5.2094,-5.2276,-5.2276,-5.2487,-5.2698,-5.2698,-5.2698,-5.2698,-5.2698,-5.2698,-5.2698,-5.2698,-5.2518,-5.2306,-5.2306,-5.2155,-5.2048,-5.2048,-5.1651,-5.1025,-5.0164,-4.8689,-4.7396,-4.6741,-4.658,-4.6225,-4.5201,-4.4908,-4.4612,-4.4068,-4.3757,-4.3328,-4.2604,-4.2043,-4.1348,-4.0542,-4.0006,-3.9594,-3.931,-3.8736,-3.864,-3.915,-3.8659,-3.8387,-3.8387,-3.7762,-3.7231,-3.6712,-3.6114,-3.5863,-4.0726,-4.155,-4.2204,-4.243,-4.2674,-4.2797,-4.2626,-4.2659,-4.244,-4.1473,-4.275,-4.3698,-4.2725,-4.4898,-4.6835,-4.6796,-4.7986,-4.9284,-5.0244,-5.0246,-5.0339,-5.0864,-5.0623,-5.0263,-4.9928,-4.9466,-4.9345,-4.9864,-4.9693,-4.9967,-5.0731,-5.0382,-5.0367,-5.0983,-5.043,-4.9971,-4.9693,-5.0228,-5.0655,-5.1015,-5.1512,-5.1764,-5.1764,-5.2491,-5.2744,-5.2586,-5.3281,-5.366,-5.385,-5.385,-5.4115,-5.4465,-5.3871,-5.3732,-5.3751,-5.3172,-5.3154,-5.3321,-5.2755,-5.2616,-5.2492,-5.1387,-5.1734,-5.2516,-5.2024,-5.2253,-5.2698,-5.2698,-5.2698,-5.2698,-5.2698,-5.2698,-5.2698,-5.2698,-5.2653,-5.2608,-5.2608,-5.2563,-5.2518,-5.2518,-5.1772,-5.0847,-5.0134,-4.8787,-4.7628,-4.6903,-4.6535,-4.6046,-4.5201,-4.5046,-4.4862,-4.435,-4.3851,-4.3375,-4.2798,-4.2065,-4.1448,-4.0846,-4.0287,-3.9878,-3.9594,-3.8998,-3.8757,-3.8879,-3.835,-3.8083,-3.8083,-3.7732,-3.7284,-3.6712,-3.6332,-3.6168,-4.1727,-4.2341,-4.2765,-4.2751,-4.2535,-4.2231,-4.1698,-4.1617,-4.1398,-4.0222,-4.1344,-4.239,-4.1811,-4.4054,-4.6247,-4.7076,-4.8215,-4.9622,-5.1367,-5.1109,-5.1036,-5.1734,-5.1574,-5.1277,-5.087,-5.0499,-5.0325,-5.0452,-5.0009,-5.0163,-5.1089,-5.0704,-5.073,-5.1417,-5.0588,-5.0169,-5.0214,-5.0938,-5.1483,-5.1922,-5.2302,-5.2491,-5.2523,-5.3218,-5.3376,-5.3155,-5.3818,-5.4103,-5.4103,-5.4103,-5.42,-5.4317,-5.3555,-5.345,-5.365,-5.3159,-5.3391,-5.384,-5.3798,-5.3545,-5.311,-5.212,-5.2171,-5.2637,-5.2267,-5.2421,-5.2698,-5.2698,-5.2698,-5.2698,-5.2698,-5.2698,-5.2698,-5.2698,-5.2819,-5.2908,-5.2908,-5.2774,-5.2653,-5.2563,-5.1907,-5.0981,-5.0015,-4.8952,-4.7821,-4.6756,-4.6403,-4.6001,-4.5367,-4.5184,-4.4908,-4.4443,-4.4021,-4.3614,-4.3184,-4.2555,-4.1944,-4.1298,-4.0744,-4.0287,-3.9878,-3.931,-3.9121,-3.9343,-3.892,-3.8776,-3.8887,-3.8347,-3.7875,-3.7418,-3.675,-3.6495,-4.2677,-4.3107,-4.3343,-4.3337,-4.2419,-4.1325,-4.0738,-4.0467,-3.9943,-3.8608,-3.9653,-4.0783,-4.0712,-4.2864,-4.5217,-4.691,-4.7997,-4.951,-5.1976,-5.1778,-5.1557,-5.212,-5.2244,-5.1996,-5.1406,-5.1208,-5.1177,-5.1177,-5.0607,-5.0652,-5.1612,-5.1089,-5.1118,-5.1859,-5.069,-5.0342,-5.1015,-5.1764,-5.2491,-5.3123,-5.3186,-5.325,-5.325,-5.3818,-5.3787,-5.3281,-5.385,-5.4103,-5.4103,-5.4103,-5.42,-5.4306,-5.3429,-5.3502,-5.4051,-5.3523,-5.3798,-5.4454,-5.4613,-5.4528,-5.42,-5.3409,-5.2997,-5.2774,-5.2729,-5.2698,-5.2774,-5.2729,-5.2729,-5.2743,-5.2729,-5.279,-5.2852,-5.2852,-5.3032,-5.321,-5.321,-5.2925,-5.2608,-5.2397,-5.2027,-5.1369,-5.0003,-4.9205,-4.8191,-4.6697,-4.6328,-4.6001,-4.5595,-4.5247,-4.4908,-4.4443,-4.4162,-4.3879,-4.3614,-4.3163,-4.2582,-4.1845,-4.1298,-4.0744,-4.0236,-3.9672,-3.9586,-4.0006,-3.9713,-3.9614,-3.9916,-3.9104,-3.8617,-3.8316,-3.7301,-3.6766,-4.3723,-4.3659,-4.3572,-4.3576,-4.2186,-4.0795,-4.0628,-3.9637,-3.8722,-3.8494,-3.9854,-4.1021,-4.1021,-4.3521,-4.5918,-4.6945,-4.8105,-4.96,-5.1767,-5.1956,-5.2167,0.0,-5.3352,-5.3365,-5.2991,-5.2492,-5.218,-5.218,-5.1809,-5.1573,-5.1392,-5.1643,-5.1565,-5.1164,-5.0911,-5.0848,-5.1015,-5.227,-5.2997,-5.3123,-5.366,-5.3913,-5.3913,-5.404,-5.404,-5.3913,-5.404,-5.4103,-5.4103,-5.4103,-5.4146,-5.4051,-5.3376,-5.3502,-5.4008,-5.3387,-5.3672,-5.4412,-5.4274,-5.406,-5.3813,-5.364,-5.3365,-5.2997,-5.2774,-5.2863,-5.2966,-5.2743,-5.2863,-5.2997,-5.2774,-5.3129,-5.356,-5.356,-5.3742,-5.3878,-5.362,-5.3098,-5.2698,-5.2653,-5.2426,-5.1894,-5.0909,-4.9884,-4.891,-4.8074,-4.68,-4.5911,-4.5747,-4.5384,-4.4908,-4.4443,-4.4162,-4.3832,-4.3403,-4.3067,-4.2755,-4.2413,-4.1647,-4.1097,-4.0795,-4.0032,-3.9696,-3.9771,-3.9198,-3.909,-3.9426,-3.875,-3.8331,-3.8065,-3.7619,-3.7197,-4.3775,-4.3714,-4.3556,-4.3296,-4.1994,-4.0613,-3.9883,-3.8917,-3.8115,-3.8075,-3.9146,-4.0249,-4.0758,-4.3324,-4.5782,-4.6902,-4.8306,-5.0048,-5.2372,-5.2403,-5.2564,-5.3613,-5.3789,-5.3746,-5.3627,-5.3432,-5.3244,-5.3114,-5.3212,-5.2824,-5.1923,-5.2219,-5.2072,-5.1379,-5.185,-5.2039,-5.1883,-5.305,-5.3629,-5.3629,-5.3945,-5.4103,-5.4103,-5.4103,-5.4103,-5.4103,-5.4103,-5.4103,-5.4103,-5.4103,-5.4103,-5.404,-5.3471,-5.3545,-5.3942,-5.3936,-5.4031,-5.4134,-5.474,-5.4344,-5.3552,-5.364,-5.3321,-5.2925,-5.3129,-5.3096,-5.2987,-5.356,-5.3343,-5.2925,-5.3129,-5.3468,-5.3652,-5.3419,-5.3641,-5.3863,-5.3596,-5.3272,-5.3011,-5.2743,-5.2608,-5.2168,-5.1001,-4.9945,-4.8925,-4.7866,-4.6544,-4.5685,-4.5685,-4.5138,-4.463,-4.4397,-4.4162,-4.3879,-4.3689,-4.3403,-4.3115,-4.2755,-4.1944,-4.1398,-4.1097,-4.0338,-3.9929,-3.9929,-3.9465,-3.9407,-3.9733,-3.9259,-3.8887,-3.8597,-3.8216,-3.7696,-4.3793,-4.3541,-4.3328,-4.297,-4.1553,-4.0036,-3.9126,-3.8065,-3.7316,-3.7465,-3.809,-3.8998,-4.0166,-4.2673,-4.5097,-4.6725,-4.827,-5.0231,-5.2954,-5.2736,-5.2771,-5.3999,-5.3974,0.0,-5.3876,-5.4017,-5.4017,-5.3876,-5.4146,-5.3807,-5.2758,-5.2699,-5.247,-5.1937,-5.2681,-5.3007,-5.2807,-5.367,-5.4103,-5.4103,-5.4103,-5.4103,-5.4103,-5.4103,-5.4103,-5.4103,-5.4103,-5.4103,-5.4103,-5.4103,-5.4103,-5.4082,-5.3756,-5.3851,-5.4226,-5.4794,-5.4592,-5.4258,-5.5271,-5.464,-5.3421,-5.3509,-5.3282,-5.3006,-5.3375,-5.3267,-5.3205,-5.4206,-5.3745,-5.3143,-5.3775,-5.4052,-5.4037,-5.3675,-5.3877,-5.4047,-5.3603,-5.3409,-5.3233,-5.2833,-5.2743,-5.232,-5.1092,-5.0035,-4.8955,-4.7772,-4.645,-4.5549,-4.5504,-4.4815,-4.4303,-4.4303,-4.4115,-4.3974,-4.3832,-4.3709,-4.3423,-4.3018,-4.2239,-4.1647,-4.1398,-4.0593,-4.0185,-4.0083,-3.9826,-3.9794,-4.0009,-3.9763,-3.9418,-3.9107,-3.8689,-3.8149,-4.4411,-4.3462,-4.2738,-4.2879,-4.0557,-3.8371,-3.8793,-3.7036,-3.5552,-3.6569,-3.7032,-3.7684,-3.9377,-4.1562,-4.3894,-4.6352,-4.779,-4.9641,-5.262,-5.262,-5.2813,-5.4211,0.0,0.0,-5.406,-5.4103,-5.4103,-5.406,-5.3962,-5.3801,-5.3695,-5.3067,-5.2659,-5.2627,-5.2934,-5.3123,-5.305,-5.3755,-5.4103,-5.4103,-5.4103,-5.4103,-5.4103,-5.4103,-5.4103,-5.4103,-5.4103,-5.4103,-5.4103,-5.4103,-5.4103,-5.4114,-5.4264,-5.4719,-5.5355,-5.5655,-5.557,-5.5343,-5.5245,-5.4454,-5.3377,-5.3188,-5.3355,-5.3529,-5.2975,-5.3326,-5.3926,-5.3821,-5.3851,-5.408,-5.4499,-5.5068,-5.5487,-5.5223,-5.528,-5.5059,-5.3984,-5.344,-5.31,-5.3086,-5.2863,-5.2518,-5.1957,-5.0563,-4.9374,-4.8818,-4.7105,-4.5776,-4.5549,-4.463,-4.4021,-4.4021,-4.4021,-4.3832,-4.3403,-4.3519,-4.3519,-4.3259,-4.2533,-4.1944,-4.1647,-4.0896,-4.0338,-4.0083,-3.9826,-3.9722,-3.9721,-3.9618,-3.9353,-3.8834,-3.8814,-3.8365,-4.4151,-4.3669,-4.3119,-4.2781,-4.0786,-3.8861,-3.8705,-3.69,-3.5492,-3.6102,-3.6686,-3.7553,-3.8957,-4.1086,-4.3328,-4.5615,-4.7229,0.0,-5.1411,-5.1812,-5.2412,-5.3825,-5.3682,-5.366,-5.4071,-5.42,-5.4285,-5.4285,-5.3974,-5.3789,-5.3789,-5.3507,-5.335,-5.335,-5.3564,-5.3638,-5.351,-5.3891,-5.4103,-5.4103,-5.4103,-5.4103,-5.4103,-5.4103,-5.4103,-5.4103,-5.4103,-5.4103,-5.4103,-5.4103,-5.4103,-5.4146,-5.4327,-5.4571,-5.4932,-5.5762,-5.5336,-5.4534,-5.5162,-5.4323,-5.3011,-5.3055,-5.3341,-5.3683,-5.3406,-5.3267,-5.3511,-5.4622,-5.4376,-5.4052,-5.5037,-5.5316,-5.5364,-5.5407,-5.5246,-5.4862,-5.4151,-5.3627,-5.3277,-5.3277,-5.2966,-5.2518,-5.2094,-5.0864,-4.9673,-4.883,-4.7165,-4.5873,-4.5304,-4.4537,-4.3926,-4.3757,-4.3642,-4.3594,-4.3689,-4.3546,-4.3451,-4.3471,-4.2604,-4.1993,-4.1696,-4.1097,-4.0542,-4.0134,-3.9981,-3.9826,-3.9697,-3.9646,-3.9329,-3.8813,-3.8766,-3.8473,-4.377,-4.3615,-4.3187,-4.2725,-4.0909,-3.9031,-3.8385,-3.663,-3.5273,-3.5509,-3.606,-3.7046,-3.8661,-4.0602,-4.2784,-4.52,0.0,-4.8699,-5.072,-5.1353,-5.2021,-5.3277,-5.3216,-5.3281,-5.3755,-5.4105,-5.4327,-5.4327,-5.406,-5.3876,-5.3876,-5.3876,-5.3876,-5.3789,-5.3974,-5.4017,-5.3876,-5.4017,-5.4103,-5.4103,-5.4103,-5.4103,-5.4103,-5.4103,-5.4103,-5.4103,-5.4103,-5.3976,-5.3818,-5.4008,-5.3976,-5.3861,-5.4232,-5.4582,-5.4921,-5.5772,-5.5346,-5.4407,-5.5173,-5.4323,-5.2922,-5.3086,-5.3341,-5.3714,-5.3714,-5.3375,-5.3345,-5.4945,-5.5037,-5.4822,-5.5776,-5.5842,-5.5643,-5.5439,-5.5274,-5.4901,-5.4249,-5.3726,-5.3377,-5.3377,-5.3011,-5.2518,-5.2094,-5.0984,-4.9835,-4.8752,-4.7277,-4.5992,-4.5195,-4.4583,-4.4068,-4.3662,-4.3451,-4.3403,-4.3737,-4.3546,-4.3423,-4.3519,-4.2765,-4.2179,-4.1696,-4.1253,-4.0747,-4.0134,-4.0032,-3.9878,-3.9697,-3.9646,-3.9402,-3.9034,-3.9062,-3.8767,-4.3402,-4.3125,-4.2633,-4.2602,-4.0539,-3.8354,-3.7677,-3.5922,-3.4534,-3.468,-3.4854,-3.5739,-3.8321,-4.0064,-4.2141,-4.5271,-4.7054,0.0,-5.0876,-5.143,-5.1861,0.0,-5.293,-5.3123,-5.3123,-5.3724,-5.4103,-5.4103,-5.4103,-5.4103,-5.4103,-5.4103,-5.4017,-5.3789,-5.3974,-5.4103,-5.4103,-5.4103,-5.4103,-5.4103,-5.4103,-5.4103,-5.4103,-5.4103,-5.4103,-5.4103,-5.4103,-5.3724,-5.3155,-5.3818,-5.3724,-5.3186,-5.4073,-5.4953,-5.5805,-5.5805,-5.5805,-5.5719,-5.5363,-5.4411,-5.3334,-5.3144,-5.3341,-5.3714,-5.3714,-5.3714,-5.3822,-5.4498,-5.5715,-5.6779,-5.6779,-5.6923,-5.6791,-5.5657,-5.5618,-5.5467,-5.4344,-5.3726,-5.3377,-5.3377,-5.3011,-5.2518,-5.2094,-5.0984,-4.9835,-4.8752,-4.7554,-4.6362,-4.5241,-4.4908,-4.449,-4.3709,-4.3451,-4.3307,-4.3307,-4.3471,-4.3519,-4.3307,-4.3098,-4.2605,-4.1723,-4.1491,-4.1003,-4.0134,-3.9826,-3.9697,-3.9697,-3.9646,-3.9599,-3.9599,-3.9619,-3.932,-4.0235,-4.0293,-4.0385,-3.9924,-3.8685,-3.7454,-3.6937,-3.5953,-3.4966,-3.4182,-3.494,-3.6292,-3.7812,-3.9452,-4.1528,-4.4625,-4.6309,-4.7831,0.0,0.0,0.0,-5.2509,-5.3311,-5.3787,-5.3787,-5.3976,-5.4103,-5.4103,-5.4103,-5.4103,-5.4103,-5.4103,-5.406,-5.4017,-5.406,-5.4103,-5.4103,-5.4103,-5.4103,-5.4103,-5.4103,-5.4103,-5.4103,-5.4103,-5.385,-5.3439,-5.3913,-5.3724,-5.3155,-5.3818,-5.3976,-5.3787,-5.4094,-5.4454,-5.4858,-5.4858,-5.4762,-5.4634,-5.4462,-5.3958,-5.3427,-5.3703,-5.3878,-5.4035,-5.4314,-5.4375,-5.4498,-5.5191,-5.6053,-5.681,-5.681,-5.6858,-5.6755,-5.6279,-5.6231,-5.6008,-5.4983,-5.4405,-5.3939,-5.3471,-5.3011,-5.2518,-5.2094,-5.1514,-5.0557,-4.8886,-4.798,-4.6992,-4.5556,-4.5046,-4.4537,-4.3926,-4.422,-4.4153,-4.3617,-4.3519,-4.366,-4.4167,-4.3603,-4.2884,-4.2077,-4.1826,-4.1183,-4.0134,-4.0032,-3.9981,-3.9981,-3.9699,-3.958,-3.9619,-3.9568,-3.932,-3.851,-3.8631,-3.8785,-3.8877,-3.7887,-3.6873,-3.6569,-3.5984,-3.5243,-3.4275,-3.5159,-3.6576,-3.7907,-3.9292,-4.1238,-4.4301,-4.5794,-4.7156,-4.8771,-4.9881,-5.0968,-5.2203,-5.3196,-5.3818,-5.4071,-5.4103,-5.4103,-5.4103,-5.4103,-5.4103,-5.4103,-5.4103,-5.4103,-5.4103,-5.4103,-5.4103,-5.4103,-5.4103,-5.4103,-5.4103,-5.4103,-5.4103,-5.4071,-5.385,-5.3502,-5.3123,-5.325,-5.306,0.0,-5.3439,-5.3724,-5.3755,-5.4008,-5.42,-5.4412,-5.4327,-5.4242,-5.42,-5.4146,-5.4045,-5.3978,-5.4237,-5.4601,-5.4931,-5.5378,-5.5315,-5.5191,-5.5592,-5.6207,-5.681,-5.681,-5.681,-5.6721,-5.6544,-5.6404,-5.6123,-5.5254,-5.4674,-5.4086,-5.337,-5.2846,-5.2427,-5.1926,-5.1649,-5.0887,-4.9195,-4.8302,-4.7311,-4.5901,-4.5171,-4.4537,-4.3926,-4.4212,-4.4242,-4.3791,-4.3795,-4.4007,-4.4435,-4.4012,-4.3362,-4.2552,-4.2138,-4.1388,-4.0258,-4.003,-4.003,-4.0232,-4.0219,-4.0166,-4.0065,-3.9953,-3.9729,0.0,-3.7768,-3.7646,-3.8877,-3.7769,-3.6415,-3.6415,-3.5984,0.0,-3.4804,-3.5416,-3.6617,-3.845,-3.9553,-4.1146,-4.4301,-4.5536,-4.6772,-4.8673,-4.9489,-5.0429,-5.1846,-5.2712,-5.3408,-5.404,-5.4103,-5.4103,-5.4103,-5.406,-5.406,-5.406,-5.406,-5.406,-5.406,-5.406,-5.4103,-5.4103,-5.4103,-5.4103,-5.4103,-5.4103,-5.4103,-5.4071,-5.3408,-5.3092,-5.2997,-5.2365,-5.2049,-5.208,-5.287,-5.3186,-5.325,-5.3871,-5.4263,-5.437,-5.422,-5.4263,-5.437,-5.4157,-5.4415,-5.4838,-5.4932,-5.5482,-5.6278,-5.669,-5.6347,-5.5776,-5.5824,-5.6286,-5.681,-5.6858,-5.681,-5.6752,-5.6575,-5.6326,-5.6,-5.5273,-5.4697,-5.403,-5.3179,-5.2653,-5.2231,-5.1665,-5.1369,-5.0803,-4.9681,-4.8565,-4.7409,-4.6289,-4.5352,-4.449,-4.3709,-4.3669,-4.3758,-4.3822,-4.4259,-4.4438,-4.4264,-4.4281,-4.3967,-4.3101,-4.2551,-4.1741,-4.0631,-4.0075,-4.0101,-4.0573,-4.1082,-4.1132,-4.0852,-4.0564,-4.0427,-3.4973,0.0,-3.5922,-3.5707,-3.5584,-3.5554,0.0,-3.5984,-3.5953,-3.4781,-3.5729,-3.7152,-3.8424,-3.9752,-4.1534,-4.4333,-4.5756,-4.6816,-4.7877,-4.9699,-5.128,-5.2136,-5.3207,-5.3859,-5.3844,-5.4017,-5.4017,-5.3876,-5.3876,-5.3876,-5.3876,-5.3671,-5.3671,-5.3876,-5.3876,-5.3931,-5.4103,-5.4103,-5.4103,-5.4103,-5.4103,-5.4103,-5.4071,-5.3408,-5.2807,-5.2302,-5.2681,-5.2523,-5.2112,-5.3344,-5.385,-5.3945,-5.4423,-5.4447,-5.4209,-5.4529,-5.4447,-5.4157,-5.4146,-5.4502,-5.5172,-5.6064,-5.6606,-5.6898,-5.7005,-5.68,-5.6611,-5.6962,-5.6943,-5.6906,-5.7258,-5.7098,-5.6827,-5.6898,-5.6915,-5.6637,-5.5817,-5.5806,-5.5331,-5.341,-5.3203,-5.2979,-5.1802,-5.1369,-5.0803,-4.9681,-4.8705,-4.7719,-4.6569,-4.5584,-4.4769,-4.3974,-4.4567,-4.4738,-4.413,-4.4004,-4.4302,-4.4917,-4.4729,-4.4331,-4.3702,-4.3358,-4.2627,-4.1544,-4.1131,-4.1119,-4.1429,-4.1318,-4.1328,-4.1412,-4.1151,-4.0787,-3.4121,-3.4056,-3.4198,-3.4694,-3.4603,-3.4634,-3.5585,0.0,-3.5984,-3.5891,-3.6784,-3.8058,-3.9692,-4.0738,-4.2205,-4.4617,-4.5651,-4.658,-4.7854,-4.9643,-5.116,-5.2055,-5.2923,-5.3541,-5.3758,-5.3801,-5.3758,-5.3627,-5.3627,-5.3627,-5.3627,-5.3584,-5.3627,-5.3789,-5.3876,-5.3974,-5.4103,-5.4103,-5.4103,-5.4103,-5.4103,-5.3945,-5.3629,-5.2934,-5.2207,-5.1543,-5.1954,-5.208,-5.2112,-5.3186,-5.3818,-5.4123,-5.4631,-5.4473,-5.4025,-5.4455,-5.4267,-5.3833,-5.4147,-5.4888,-5.5862,-5.6538,-5.6934,-5.707,-5.6854,-5.6772,-5.6906,-5.7353,-5.7306,-5.7211,-5.759,-5.7401,-5.7163,-5.7258,-5.7115,-5.6836,-5.6246,-5.6216,-5.5798,-5.3959,-5.3607,-5.3223,-5.2038,-5.1503,-5.0939,-5.0206,-4.924,-4.8267,-4.7236,-4.6107,-4.5081,-4.4265,-4.4414,-4.4535,-4.4408,-4.4004,-4.4253,-4.5315,-4.4938,-4.4591,-4.4278,-4.3642,-4.2778,-4.1825,-4.1898,-4.1986,-4.2103,-4.1911,-4.1847,-4.1802,-4.1516,-4.1142,-3.4395,-3.3417,-3.2972,-3.4758,-3.4482,-3.4266,-3.6042,-3.6167,-3.623,-3.7368,-3.7934,-3.8905,-4.1111,-4.169,-4.2587,-4.4891,-4.5573,-4.6474,-4.8243,-4.9623,-5.0803,-5.1859,-5.2503,-5.3098,-5.3683,-5.354,-5.3377,-5.3334,-5.3334,-5.3334,-5.3334,-5.3496,-5.3659,-5.3746,-5.3888,-5.406,-5.4103,-5.4103,-5.4103,-5.4103,-5.4008,-5.366,-5.3092,-5.2238,-5.1575,-5.1173,-5.1173,-5.1543,-5.2238,-5.2965,-5.366,-5.4281,-5.4788,-5.4606,-5.4241,-5.4559,-5.4327,-5.3827,-5.4501,-5.5499,-5.659,-5.6789,-5.6934,-5.6979,-5.6575,-5.6543,-5.6831,-5.737,-5.7495,-5.759,-5.7871,-5.7731,-5.7495,-5.7495,-5.7115,-5.6721,-5.6466,-5.6373,-5.5953,-5.4682,-5.3959,-5.3328,-5.2455,-5.1648,-5.1058,-5.0822,-4.9834,-4.881,-4.7916,-4.6622,-4.543,-4.4481,-4.4029,-4.4028,-4.4606,-4.4289,-4.4515,-4.5529,-4.5046,-4.4668,-4.4613,-4.3635,-4.2716,-4.209,-4.2417,-4.2591,-4.2692,-4.2513,-4.2369,-4.211,-4.1745,-4.1435,-3.524,-3.4304,-3.3412,-3.4851,-3.5369,-3.5914,-3.7309,-3.7717,-3.7849,0.0,-3.7926,-3.8494,-4.0747,-4.0852,-4.1555,-4.4554,-4.6088,-4.7394,-4.8853,-5.0129,-5.1141,-5.1922,-5.2975,-5.3577,-5.3465,-5.3421,-5.3365,-5.3144,-5.3175,-5.3175,-5.3175,-5.2966,-5.3055,-5.3452,-5.3465,-5.3683,-5.4103,-5.4103,-5.4103,-5.4103,-5.3534,-5.3218,-5.306,-5.1733,-5.1385,-5.1859,-5.1859,-5.227,-5.2997,-5.366,-5.4356,-5.5007,-5.548,-5.5745,-5.5879,-5.6119,-5.5886,-5.5489,-5.5981,-5.6448,-5.6789,-5.7018,-5.7021,-5.6822,-5.6775,-5.6513,-5.6402,-5.7245,-5.7495,-5.759,-5.8026,-5.784,-5.7495,-5.7495,-5.7115,-5.6673,-5.6278,-5.6746,-5.6824,-5.5271,-5.47,-5.4174,-5.3034,-5.176,-5.087,-5.0793,-4.9834,-4.881,-4.7916,-4.6764,-4.5618,-4.4528,-4.459,-4.4789,-4.4989,-4.5177,-4.5333,-4.5555,-4.5046,-4.4613,-4.4367,-4.3689,-4.329,-4.3127,-4.2798,-4.2713,-4.2972,-4.2656,-4.2369,-4.211,-4.1745,-4.1435,-3.5297,-3.4481,-3.3638,-3.5545,-3.5394,-3.5152,-3.6421,-3.658,-3.6679,-3.741,-3.7952,-3.8832,-4.0608,-4.1531,-4.2802,-4.5263,-4.6207,-4.7215,-4.904,-4.9747,-5.0608,-5.2051,-5.2559,-5.2947,-5.3201,-5.31,-5.2966,-5.2908,-5.2877,-5.2877,-5.2877,-5.2877,-5.3042,-5.3233,-5.3334,-5.3584,-5.3931,-5.3962,-5.3816,-5.3566,-5.325,-5.2902,-5.2491,-5.1828,-5.1701,-5.2017,-5.2428,-5.2807,-5.3155,-5.3818,-5.4514,-5.5121,-5.5458,-5.5754,-5.5952,-5.5765,-5.5828,-5.5983,-5.6015,-5.6482,-5.6934,-5.6961,-5.6821,-5.6588,-5.6486,-5.6246,-5.6185,-5.6637,-5.7277,-5.7933,-5.8303,-5.8289,-5.8058,-5.7778,-5.7353,-5.6879,-5.6553,-5.6898,-5.6993,-5.6137,-5.5285,-5.4436,-5.3645,-5.2265,-5.1199,-5.1058,-5.0461,-4.9687,-4.8834,-4.7583,-4.6528,-4.5865,-4.5284,-4.5212,-4.5756,-4.5602,-4.5493,-4.5395,-4.4938,-4.4559,-4.4313,-4.4054,-4.381,-4.3683,-4.3288,-4.3098,-4.324,-4.2905,-4.2538,-4.211,-4.1915,-4.1631,-3.5505,-3.4831,-3.4193,-3.6304,-3.5834,-3.5083,-3.5977,-3.6293,-3.6607,-3.7506,-3.8302,-3.9249,-4.0793,-4.2625,-4.4434,-4.5953,-4.6608,-4.7544,-4.9322,-4.9696,-5.0403,-5.2192,-5.2362,-5.2541,-5.3069,-5.2877,-5.2774,-5.2698,-5.2698,-5.2698,-5.2698,-5.2908,-5.3042,-5.3086,-5.3233,-5.3496,-5.3789,-5.3632,-5.3416,-5.3123,-5.3123,-5.2712,-5.2017,-5.2017,-5.2112,-5.2302,-5.287,-5.3186,-5.3376,-5.3882,-5.4565,-5.5298,-5.5489,-5.5851,-5.6133,-5.5797,-5.5953,-5.6215,-5.6073,-5.6555,-5.7181,-5.6963,-5.6821,-5.6726,-5.6491,-5.6395,-5.6389,-5.6403,-5.7277,-5.8165,-5.8441,-5.8395,-5.8289,-5.8011,-5.7495,-5.6971,-5.6858,-5.6971,-5.7036,-5.6844,-5.5793,-5.4851,-5.4504,-5.3001,-5.1767,-5.1533,-5.1101,-5.049,-4.9604,-4.8399,-4.7453,-4.7052,-4.6002,-4.5588,-4.6371,-4.585,-4.5497,-4.5315,-4.491,-4.4559,-4.4313,-4.4258,-4.4039,-4.3789,-4.3462,-4.3295,-4.3295,-4.3073,-4.2706,-4.211,-4.211,-4.1769,-3.6562,-3.5848,-3.5406,-3.6811,-3.7391,-3.7606,-3.7659,-3.9038,-4.0197,-3.9921,-3.9247,-3.9355,-4.1535,-4.386,-4.5596,-4.6133,-4.7824,-4.9353,-5.0133,-5.0788,-5.1474,-5.2317,-5.2941,-5.3258,-5.31,-5.3086,-5.2997,-5.2729,-5.2698,-5.2698,-5.2698,-5.2729,-5.2833,-5.3086,-5.3131,-5.3352,-5.3789,-5.313,-5.2912,-5.3123,-5.3123,-5.2712,-5.2017,-5.2017,-5.2365,-5.3028,-5.3092,-5.3471,-5.404,-5.4071,-5.4762,-5.5781,-5.6023,-5.6629,-5.7386,-5.7339,-5.7086,-5.6765,-5.6927,-5.7196,-5.7418,-5.727,-5.7322,-5.7502,-5.7407,-5.7304,-5.7176,-5.734,-5.7653,-5.7965,-5.8165,-5.7887,-5.7684,-5.8072,-5.7495,-5.681,-5.681,-5.6971,-5.7084,-5.7084,-5.6337,-5.5731,-5.5684,-5.3905,-5.2507,-5.2507,-5.1541,-5.049,-4.9604,-4.8806,-4.7971,-4.71,-4.6514,-4.6258,-4.6399,-4.5919,-4.5609,-4.5609,-4.4992,-4.4559,-4.4313,-4.4064,-4.3764,-4.3462,-4.3184,-4.3042,-4.3042,-4.3042,-4.2706,-4.211,-4.211,-4.1769,-3.728,-3.6264,-3.5146,-3.7092,-3.736,-3.7092,-3.6866,-3.799,-3.9104,-3.8852,-3.9738,-4.1096,-4.2887,-4.4067,-4.5295,-4.6832,-4.7738,-4.879,-5.0337,-5.077,-5.1358,-5.2471,-5.2812,-5.2922,-5.2863,-5.2863,-5.2788,-5.2729,-5.2698,-5.2698,-5.2698,-5.2698,-5.2774,-5.2863,-5.2863,-5.3055,-5.354,-5.3259,-5.3087,-5.3092,-5.2649,-5.227,-5.2017,-5.2491,-5.306,-5.3724,-5.3724,-5.3935,-5.4285,-5.4114,-5.4715,-5.5708,-5.6505,-5.7193,-5.7731,-5.759,-5.7401,-5.7211,-5.7132,-5.7306,-5.7527,-5.7743,-5.7716,-5.7637,-5.7739,-5.7605,-5.7385,-5.7149,-5.734,-5.7684,-5.7746,-5.784,-5.7887,-5.7793,-5.7495,-5.7163,-5.6858,-5.6858,-5.6923,-5.7115,-5.6367,-5.5762,-5.5793,-5.4279,-5.299,-5.288,-5.1947,-5.1063,-5.0372,-4.945,-4.8673,-4.8215,-4.7403,-4.6911,-4.6929,-4.6267,-4.5742,-4.5609,-4.5046,-4.4668,-4.4585,-4.4094,-4.3844,-4.3708,-4.3406,-4.3184,-4.2986,-4.3376,-4.3154,-4.2369,-4.2369,-4.2029,-3.6532,-3.5913,-3.5398,-3.6814,-3.6699,-3.6416,-3.7094,-3.8377,-3.9364,-3.9136,-4.0726,-4.2522,-4.3611,-4.4543,-4.5672,-4.7332,-4.8142,-4.9066,-5.0513,-5.0882,-5.1436,-5.2575,-5.2743,-5.2788,-5.2729,-5.2959,-5.3127,-5.3037,-5.3037,-5.3037,-5.3037,-5.2821,-5.2698,-5.2698,-5.2698,-5.2922,-5.3377,-5.319,-5.3063,-5.3092,-5.2586,-5.2365,-5.2365,-5.3092,-5.3703,-5.42,-5.42,-5.4327,-5.4497,-5.4285,-5.477,-5.5708,-5.6965,-5.7556,-5.7731,-5.759,-5.7448,-5.7353,-5.7132,-5.7227,-5.7417,-5.784,-5.7973,-5.7955,-5.8103,-5.8103,-5.8045,-5.7516,-5.7494,-5.759,-5.7448,-5.7606,-5.784,-5.7746,-5.7511,-5.7306,-5.7067,-5.6906,-5.6858,-5.6971,-5.6505,-5.6023,-5.6101,-5.4727,-5.3605,-5.3448,-5.2378,-5.1433,-5.0964,-5.0106,-4.9397,-4.8951,-4.8106,-4.7494,-4.7288,-4.6612,-4.6007,-4.5768,-4.518,-4.4776,-4.4668,-4.4258,-4.4064,-4.4064,-4.3708,-4.3487,-4.3265,-4.3734,-4.3487,-4.265,-4.2513,-4.2174,-3.4114,-3.4766,-3.6315,-3.5913,-3.5512,-3.6015,-3.8978,-4.089,-4.1991,-4.1517,-4.2446,-4.3359,-4.3399,-4.5384,-4.7128,-4.7538,-4.9343,-5.0697,-5.0697,-5.1282,-5.1959,-5.2637,-5.2953,-5.2997,-5.2729,-5.3571,-5.3987,-5.3745,-5.3714,-5.3714,-5.3714,-5.3098,-5.2698,-5.2698,-5.2698,-5.2922,-5.3377,-5.2753,-5.2625,-5.3123,-5.3123,-5.3123,-5.3123,-5.3787,-5.42,-5.4412,-5.4412,-5.4539,-5.4771,-5.4497,-5.498,-5.5956,-5.7337,-5.7731,-5.7495,-5.7495,-5.7322,-5.7084,-5.7084,-5.7084,-5.7132,-5.7448,-5.8011,-5.861,-5.861,-5.8927,-5.9197,-5.8746,-5.8243,-5.7778,-5.7227,-5.7084,-5.7275,-5.8026,-5.7653,-5.718,-5.7448,-5.7115,-5.681,-5.681,-5.681,-5.681,-5.681,-5.5463,-5.4402,-5.4402,-5.2822,-5.1509,-5.1229,-5.0757,-5.0086,-4.9009,-4.8431,-4.7875,-4.7339,-4.6742,-4.627,-4.6007,-4.5502,-4.5072,-4.4722,-4.4422,-4.4313,-4.4313,-4.4064,-4.3899,-4.3899,-4.3899,-4.3598,-4.2986,-4.2625,-4.2174,-3.4717,-3.5017,-3.6012,-3.7234,-3.7166,-3.7557,-4.066,-4.1022,-4.1302,-4.3129,-4.3777,-4.4398,-4.5697,-4.6527,-4.7463,-4.887,-4.9589,-5.0328,-5.1282,-5.1559,-5.1959,-5.2637,-5.2743,-5.3004,-5.3375,-5.3667,-5.3975,-5.4345,-5.3991,-5.3714,-5.3714,-5.3203,-5.2908,-5.2729,-5.2877,-5.31,-5.3377,-5.319,-5.3357,-5.3787,-5.3787,-5.3566,-5.3123,-5.3787,-5.42,-5.4412,-5.4242,-5.4528,-5.5021,-5.5293,-5.5727,-5.6385,-5.7123,-5.7694,-5.8043,-5.7825,-5.7637,-5.7401,-5.7401,-5.7227,-5.7211,-5.7637,-5.815,-5.8655,-5.8837,-5.9197,-5.9419,-5.8792,-5.8349,-5.7933,-5.7275,-5.7084,-5.718,-5.7606,-5.737,-5.718,-5.7448,-5.6971,-5.6567,-5.6761,-5.6664,-5.6567,-5.6761,-5.5575,-5.4589,-5.4589,-5.3054,-5.1649,-5.1011,-5.0346,-4.9746,-4.9256,-4.8531,-4.7875,-4.7339,-4.6977,-4.656,-4.6007,-4.5662,-4.5341,-4.5072,-4.4585,-4.4203,-4.401,-4.4094,-4.3984,-4.3517,-4.4123,-4.4068,-4.3295,-4.3184,-4.2793,-3.4306,-3.5339,-3.7024,-3.8065,-3.8438,-3.9253,-4.1769,-4.2129,-4.2566,-4.4713,-4.5095,-4.5507,-4.6852,-4.7486,-4.8243,-4.9524,-5.0168,-5.0716,-5.1427,-5.1884,-5.2267,-5.2667,-5.2698,-5.2975,-5.3607,-5.3914,-5.4252,-5.4652,-5.4407,-5.4083,-5.3745,-5.3324,-5.3042,-5.2833,-5.3042,-5.3264,-5.354,-5.3584,-5.3758,-5.4103,-5.4103,-5.3882,-5.3502,-5.3913,-5.4274,-5.4571,-5.4581,-5.4822,-5.5136,-5.5718,-5.5932,-5.6017,-5.6987,-5.7484,-5.7726,-5.787,-5.7731,-5.7495,-5.7401,-5.7211,-5.7019,-5.7353,-5.7918,-5.8441,-5.8655,-5.9152,-5.9584,-5.9017,-5.8532,-5.8072,-5.7559,-5.7211,-5.7115,-5.7543,-5.7448,-5.7322,-5.759,-5.7067,-5.6537,-5.6616,-5.6519,-5.647,-5.6616,-5.5575,-5.4683,-5.4683,-5.3177,-5.1741,-5.1058,-5.0394,-4.9941,-4.9649,-4.8909,-4.8128,-4.7494,-4.7184,-4.6821,-4.6245,-4.5901,-4.5662,-4.5395,-4.4802,-4.4313,-4.4064,-4.4203,-4.4148,-4.3738,-4.4203,-4.4094,-4.3572,-4.3351,-4.3087,-3.3196,-3.5552,-3.8745,-3.846,-3.9639,-4.1219,-4.268,-4.3916,-4.5099,-4.5998,-4.6292,-4.6591,-4.7306,-4.8283,-4.9252,-4.9938,-5.0975,-5.1625,-5.1434,-5.2164,-5.2698,-5.2698,-5.2698,-5.3006,-5.3699,-5.4283,-5.4652,-5.4775,-5.4885,-5.4591,-5.3745,-5.3324,-5.3086,-5.3086,-5.3131,-5.3352,-5.3746,-5.3789,-5.3919,-5.4103,-5.4103,-5.4103,-5.4103,-5.4146,-5.4359,-5.4813,-5.5237,-5.5319,-5.5178,-5.5886,-5.5794,-5.5316,-5.6899,-5.7214,-5.6929,-5.7604,-5.7668,-5.7495,-5.7227,-5.6971,-5.681,-5.681,-5.7401,-5.8165,-5.8211,-5.8882,-5.9584,-5.9331,-5.876,-5.8165,-5.7918,-5.7306,-5.7002,-5.7637,-5.7637,-5.7543,-5.7825,-5.7227,-5.6554,-5.6421,-5.6372,-5.6372,-5.6421,-5.5494,-5.4745,-5.4575,-5.307,-5.1818,-5.1276,-5.0757,-5.0405,-5.0135,-4.9404,-4.861,-4.7801,-4.7442,-4.7081,-4.6587,-4.6192,-4.5848,-4.5609,-4.5046,-4.4559,-4.4258,-4.4313,-4.4258,-4.4203,-4.401,-4.3899,-4.3844,-4.3321,-4.315,-3.2458,-3.4909,-3.8283,-3.9061,-4.1711,-4.4369,-4.5122,-4.5868,-4.6248,-4.5693,-4.6394,-4.7396,-4.8447,-4.8832,-4.9448,-5.0812,-5.1414,-5.1854,-5.2332,-5.2561,-5.2698,-5.2698,-5.2698,-5.3191,-5.4345,-5.4129,-5.436,-5.5407,-5.4561,-5.3914,-5.3714,-5.3324,-5.2997,-5.2788,-5.3144,-5.3377,-5.3496,-5.3702,-5.3919,-5.4103,-5.4103,-5.4103,-5.4103,-5.4242,-5.4528,-5.4813,-5.5237,-5.5319,-5.5178,-5.5854,-5.5932,-5.5729,-5.6459,-5.6905,-5.7141,-5.7298,-5.74,-5.7495,-5.7417,-5.7115,-5.681,-5.681,-5.7163,-5.77,-5.8072,-5.8655,-5.9139,-5.9062,-5.8655,-5.8119,-5.7684,-5.7163,-5.6906,-5.7211,-5.7115,-5.7115,-5.7731,-5.6971,-5.6225,-5.6372,-5.6225,-5.6176,-5.6372,-5.591,-5.4989,-5.3603,-5.2611,-5.1818,-5.1276,-5.0757,-5.0405,-5.0135,-4.9404,-4.866,-4.8078,-4.7596,-4.7133,-4.6848,-4.6297,-4.5848,-4.5609,-4.5287,-4.4748,-4.401,-4.4203,-4.4094,-4.3572,-4.3819,-4.3764,-4.3517,-4.3351,-4.326,-3.376,-3.5942,-3.8827,-4.0434,-4.3065,-4.5352,-4.575,-4.6486,-4.697,-4.6411,-4.707,-4.8055,-4.8966,-4.9505,-5.0108,-5.1243,-5.1742,-5.2119,-5.2457,-5.2608,-5.2698,-5.2698,-5.2698,-5.3252,-5.456,-5.4068,-5.4145,-5.5161,-5.4391,-5.3682,-5.3252,-5.3138,-5.3055,-5.3055,-5.3246,-5.3509,-5.3726,-5.3888,-5.3974,-5.4103,-5.4103,-5.4146,-5.4242,-5.437,-5.4539,-5.4813,-5.5113,-5.5278,-5.5237,-5.5592,-5.5628,-5.5515,-5.6007,-5.6257,-5.6449,-5.7024,-5.7132,-5.7059,-5.7371,-5.7163,-5.681,-5.681,-5.7115,-5.759,-5.7933,-5.8427,-5.8837,-5.8959,-5.861,-5.8119,-5.7778,-5.7306,-5.6971,-5.7115,-5.7019,-5.7067,-5.7448,-5.6923,-5.6342,-5.6421,-5.6274,-5.6225,-5.6372,-5.5756,-5.4696,-5.3219,-5.2427,-5.1834,-5.1433,-5.0852,-5.0471,-5.0442,-4.962,-4.8859,-4.833,-4.7925,-4.7442,-4.6925,-4.6612,-4.6192,-4.5609,-4.5448,-4.4964,-4.4094,-4.4119,-4.3929,-4.3653,-4.3543,-4.3432,-4.3381,-4.3295,-4.328,-3.5059,-3.711,-3.9756,-4.1712,-4.3696,-4.5215,-4.5365,-4.6261,-4.713,-4.713,-4.7758,-4.8476,-4.9179,-5.002,-5.0819,-5.1574,-5.2033,-5.2306,-5.2352,-5.2563,-5.2698,-5.2698,-5.2698,-5.3191,-5.4406,-5.3914,-5.3837,-5.4468,-5.4113,-5.354,-5.2729,-5.2908,-5.31,-5.3246,-5.3334,-5.3596,-5.3974,-5.406,-5.4103,-5.4103,-5.4103,-5.4157,-5.437,-5.437,-5.4528,-5.4813,-5.5031,-5.5237,-5.5328,-5.5369,-5.5246,-5.5136,-5.5505,-5.5613,-5.5609,-5.6657,-5.6818,-5.6637,-5.734,-5.7258,-5.6858,-5.6858,-5.7067,-5.7448,-5.7731,-5.8056,-5.8328,-5.8632,-5.8278,-5.7849,-5.7651,-5.7308,-5.696,-5.7036,-5.7067,-5.7067,-5.7084,-5.6844,-5.6585,-5.6421,-5.6421,-5.6421,-5.6421,-5.5432,-5.4359,-5.3387,-5.2534,-5.1926,-5.1695,-5.0994,-5.0614,-5.0775,-4.9912,-4.9157,-4.8581,-4.828,-4.7773,-4.7029,-4.6925,-4.6508,-4.5715,-4.5609,-4.5234,-4.4476,-4.4197,-4.4053,-4.3998,-4.3417,-4.3224,-4.3478,-4.3123,-4.3212,-3.3552,-3.6541,-4.0246,-4.1548,-4.3289,-4.4655,-4.4512,-4.546,-4.6399,-4.6399,-4.7429,-4.8476,-4.9179,-5.002,-5.091,-5.1789,-5.2155,-5.2397,-5.2608,-5.2653,-5.2698,-5.2698,-5.2698,-5.3006,-5.373,-5.3252,-5.3129,-5.376,-5.3221,-5.2821,-5.2729,-5.2698,-5.2743,-5.2788,-5.3157,-5.3421,-5.3465,-5.3931,-5.4103,-5.4103,-5.4103,-5.4103,-5.4146,-5.4146,-5.4359,-5.4813,-5.5196,-5.5278,-5.5155,-5.5328,-5.5246,-5.5072,-5.4992,-5.5155,-5.5545,-5.6119,-5.6514,-5.6837,-5.7574,-5.7495,-5.7067,-5.7067,-5.6971,-5.7002,-5.7401,-5.7292,-5.7098,-5.7358,-5.6961,-5.651,-5.6682,-5.6435,-5.6355,-5.6752,-5.6858,-5.6906,-5.7036,-5.673,-5.6421,-5.6421,-5.6421,-5.6421,-5.6421,-5.5432,-5.4606,-5.4232,-5.2931,-5.2002,-5.1956,-5.1246,-5.0775,-5.0793,-5.0105,-4.9424,-4.8881,-4.838,-4.7875,-4.7288,-4.7029,-4.6612,-4.5954,-4.5715,-4.5448,-4.5072,-4.4749,-4.4505,-4.428,-4.386,-4.3689,-4.3721,-4.3243,-4.3011,-3.4497,-3.7181,-3.9955,-4.1104,-4.2674,-4.3983,-4.4206,-4.5364,-4.6279,-4.6279,-4.7369,-4.8476,-4.9179,-5.0321,-5.1333,-5.1895,-5.22,-5.2397,-5.2653,-5.2698,-5.2698,-5.2698,-5.2698,-5.2975,-5.3607,-5.3098,-5.3006,-5.3683,-5.3098,-5.2698,-5.2698,-5.2698,-5.2743,-5.2908,-5.3201,-5.3465,-5.3627,-5.3931,-5.4103,-5.4103,-5.4103,-5.4103,-5.4103,-5.4359,-5.4603,-5.4813,-5.4989,-5.5155,-5.5278,-5.5237,-5.5278,-5.5237,-5.4781,-5.4804,-5.5144,-5.5467,-5.5852,-5.6364,-5.7055,-5.7199,-5.7084,-5.7084,-5.6971,-5.6858,-5.7163,-5.7043,-5.6835,-5.6927,-5.6771,-5.6506,-5.6025,-5.6093,-5.6248,-5.618,-5.6357,-5.6664,-5.6875,-5.6875,-5.673,-5.6585,-5.6585,-5.6567,-5.6421,-5.5787,-5.5036,-5.4463,-5.3436,-5.2627,-5.2231,-5.1479,-5.1011,-5.1011,-5.0346,-4.9649,-4.8959,-4.8681,-4.8348,-4.7837,-4.7708,-4.7425,-4.7002,-4.6437,-4.598,-4.5736,-4.4727,-4.4356,-4.4495,-4.4042,-4.379,-4.379,-4.3865,-4.374,-3.5093,-3.7198,-3.8949,-4.0218,-4.1671,-4.3,-4.3658,-4.4855,-4.5831,-4.6022,-4.713,-4.8237,-4.894,-5.0125,-5.1136,-5.144,-5.1592,-5.1939,-5.2532,-5.2594,-5.2686,-5.2978,-5.2886,-5.2978,-5.35,-5.2917,-5.2733,-5.3254,-5.2825,-5.261,-5.2794,-5.2655,-5.279,-5.3155,-5.3295,-5.3496,-5.3702,-5.3974,-5.4103,-5.4103,-5.4114,-5.4189,-5.4189,-5.4603,-5.4813,-5.4896,-5.4896,-5.5031,-5.5287,-5.5155,-5.5237,-5.5328,-5.4749,-5.4613,-5.4793,-5.5023,-5.533,-5.5732,-5.6423,-5.6839,-5.7026,-5.7026,-5.696,-5.6875,-5.7067,-5.6731,-5.6355,-5.6355,-5.6181,-5.5891,-5.5323,-5.5625,-5.6016,-5.5748,-5.6094,-5.6567,-5.681,-5.6971,-5.6971,-5.6748,-5.6682,-5.6616,-5.6323,-5.5936,-5.5388,-5.4738,-5.3865,-5.3132,-5.2734,-5.2076,-5.155,-5.1323,-5.0828,-5.0116,-4.9058,-4.8959,-4.8714,-4.8329,-4.8252,-4.8157,-4.8001,-4.7214,-4.6646,-4.6427,-4.5126,-4.4519,-4.4689,-4.4225,-4.4016,-4.4016,-4.4443,-4.4392,-3.4175,-3.5659,-3.7037,-3.8523,-4.0226,-4.1654,-4.2351,-4.3479,-4.4586,-4.5214,-4.6411,-4.7549,-4.8207,-4.894,-4.9554,-5.0031,-5.012,-5.0634,-5.2108,-5.2291,-5.2734,-5.3719,-5.3354,-5.299,-5.302,-5.2443,-5.2048,-5.2078,-5.2078,-5.2321,-5.2959,-5.2582,-5.2612,-5.3284,-5.3365,-5.3421,-5.3421,-5.3856,-5.4103,-5.4103,-5.4285,-5.4412,-5.4412,-5.4655,-5.4896,-5.5072,-5.5072,-5.5113,-5.5113,-5.5113,-5.5237,-5.5369,-5.4948,-5.4771,-5.4793,-5.5023,-5.5102,-5.5228,-5.5999,-5.6514,-5.6806,-5.6806,-5.6965,-5.7084,-5.7084,-5.6185,-5.5209,-5.5209,-5.4397,-5.3702,-5.4044,-5.4636,-5.5271,-5.5608,-5.6238,-5.6858,-5.7067,-5.6923,-5.681,-5.67,-5.6537,-5.6323,-5.6077,-5.5646,-5.5302,-5.5272,-5.414,-5.3407,-5.3591,-5.3222,-5.256,-5.1663,-5.1643,-5.1042,-4.9412,-4.9058,-4.8815,-4.859,-4.8357,-4.8316,-4.8653,-4.7836,-4.734,-4.734,-4.6395,-4.5515,-4.4689,-4.463,-4.4593,-4.4593,-4.4618,-4.4618,-3.3991,-3.4988,-3.622,-3.8597,-3.9659,-4.0516,-4.2051,-4.306,-4.3947,-4.5065,-4.6022,-4.686,-4.7549,-4.8669,-4.9568,-4.9702,-5.0012,-5.0479,-5.1348,-5.156,-5.1941,-5.2579,-5.2488,-5.2366,-5.2366,-5.2123,-5.2002,-5.2002,-5.2002,-5.2367,-5.3146,-5.3024,-5.33,-5.4144,-5.439,-5.4501,-5.4505,-5.481,-5.4846,-5.456,-5.4613,-5.4655,-5.4655,-5.4864,-5.5031,-5.5113,-5.5113,-5.5196,-5.5246,-5.5155,-5.5237,-5.5328,-5.4749,-5.4655,-5.4761,-5.4559,-5.5051,-5.5841,-5.6094,-5.678,-5.7494,-5.7494,-5.7324,-5.7084,-5.7084,-5.67,-5.6029,-5.5317,-5.4916,-5.4561,-5.3668,-5.4264,-5.5209,-5.5971,-5.648,-5.6858,-5.7067,-5.7036,-5.6971,-5.694,-5.6634,-5.6323,-5.6028,-5.6012,-5.5852,-5.5363,-5.5047,-5.4575,-5.3791,-5.3696,-5.3274,-5.2343,-5.1876,-5.1258,-5.0287,-4.9387,-4.9036,-4.941,-4.9045,-4.9114,-4.9803,-4.8644,-4.8009,-4.8009,-4.6656,-4.5861,-4.5541,-4.5119,-4.4908,-4.4933,-4.5112,-4.5171,-3.3551,-3.4157,-3.5115,-3.7485,-3.8422,-3.92,-4.0965,-4.2222,-4.3329,-4.4407,-4.5364,-4.6172,-4.686,-4.8009,-4.8862,-4.8906,-4.93,-4.987,-5.0848,-5.1105,-5.15,-5.2425,-5.2271,-5.2074,-5.2074,-5.1892,-5.1741,-5.1741,-5.1741,-5.2136,-5.3006,-5.313,-5.3698,-5.4792,-5.5101,-5.5156,-5.5014,-5.5233,-5.5143,-5.4655,-5.4771,-5.4854,-5.4938,-5.5113,-5.5196,-5.5196,-5.5196,-5.5278,-5.5369,-5.5196,-5.5237,-5.5328,-5.4749,-5.4655,-5.4729,-5.4274,-5.4672,-5.5525,-5.5746,-5.651,-5.735,-5.7509,-5.7449,-5.7322,-5.7132,-5.6902,-5.6511,-5.5566,-5.517,-5.4788,-5.361,-5.4097,-5.5116,-5.6098,-5.6559,-5.6858,-5.7067,-5.7067,-5.7019,-5.7084,-5.6634,-5.6225,-5.6028,-5.6077,-5.6024,-5.5585,-5.5551,-5.5282,-5.4483,-5.451,-5.4226,-5.3321,-5.2774,-5.2112,-5.1032,-5.0254,-4.988,-5.0062,-4.9839,-4.9965,-5.06,-4.9489,-4.8766,-4.8539,-4.746,-4.6773,-4.6394,-4.5527,-4.5182,-4.5385,-4.5473,-4.5598,0.0,0.0,0.0,-3.5096,-3.6447,-3.7734,-3.9074,-4.0905,-4.25,-4.314,-4.4347,-4.5454,-4.613,-4.683,-4.7322,-4.7508,-4.7794,-4.8663,-5.0666,-5.0864,-5.15,-5.326,-5.269,-5.2157,-5.2127,-5.1588,-5.1229,-5.1229,-5.1229,-5.1623,-5.2567,-5.2893,-5.3743,-5.5117,-5.5393,-5.5354,-5.4813,-5.5046,-5.4885,-5.4412,-5.4697,-5.4938,-5.5113,-5.5287,-5.5409,-5.5409,-5.5409,-5.5409,-5.5369,-5.5196,-5.5237,-5.5369,-5.4948,-5.4813,-5.4729,-5.4274,-5.4134,-5.4261,-5.4925,-5.5651,-5.6302,-5.6692,-5.7337,-5.7778,-5.7275,-5.6808,-5.6373,-5.5826,-5.4978,-5.4095,-5.379,-5.4237,-5.493,-5.5875,-5.646,-5.6858,-5.7019,-5.6923,-5.6858,-5.7067,-5.6488,-5.5979,-5.5979,-5.578,-5.5681,-5.5929,-5.5646,-5.5429,-5.5636,-5.5715,-5.5374,-5.4524,-5.4504,-5.377,-5.1679,-5.1558,-5.1279,-5.0512,-5.0763,-5.0924,-5.0934,-5.0348,-4.9727,-4.9125,-4.8837,-4.8284,-4.7362,-4.5847,-4.5411,-4.5943,-4.5674,-4.5799,-3.2661,0.0,0.0,0.0,0.0,0.0,-3.902,-3.9828,-4.0816,-4.2871,-4.3589,-4.4227,-4.5364,-4.6142,-4.6591,-4.6634,-4.7237,-4.8028,-4.8908,-4.9583,-5.0095,-5.0439,-5.1066,-5.1319,-5.0794,-5.1003,-5.1229,-5.1229,-5.1229,-5.1686,-5.2802,-5.4216,-5.5374,-5.6272,-5.6699,-5.6511,-5.5548,-5.5917,-5.562,-5.4697,-5.4906,-5.5031,-5.5113,-5.5287,-5.5409,-5.5409,-5.5409,-5.5409,-5.5409,-5.5328,-5.5328,-5.5369,-5.5113,-5.4938,-5.4771,-5.4444,-5.4865,-5.5651,-5.5809,-5.6694,-5.7737,-5.7881,-5.7761,-5.759,-5.7417,-5.715,-5.676,-5.5933,-5.5626,-5.5411,-5.4854,-5.47,-5.4914,-5.5639,-5.6028,-5.6225,-5.6293,-5.6274,-5.6372,-5.6748,-5.6244,-5.5731,-5.5731,-5.5631,-5.5631,-5.5681,-5.5895,-5.5931,-5.5459,-5.5906,-5.5919,-5.5119,-5.4777,-5.4307,-5.3475,-5.2485,-5.1911,-5.1972,-5.1307,-5.1087,-5.154,-5.0572,-4.9897,-4.9727,-4.9068,-4.8584,-4.8311,-4.7042,-4.6373,-4.6236,-4.6137,-4.6175,0.0,0.0,0.0,0.0,0.0,0.0,-3.7793,-3.8841,-3.9881,-4.1705,-4.2722,-4.3529,-4.4347,-4.5244,-4.5903,-4.5903,-4.6286,-4.7061,-4.8293,-4.8862,-4.9267,-4.9404,-5.0034,-5.0361,-5.0196,-5.0524,-5.0883,-5.1199,-5.1229,-5.1884,-5.3368,-5.4752,-5.5927,-5.6779,-5.7258,-5.7059,-5.6088,-5.627,-5.5927,-5.5059,-5.4909,-5.4864,-5.4948,-5.5196,-5.5246,-5.5246,-5.5369,-5.5409,-5.5409,-5.5409,-5.5409,-5.5369,-5.5196,-5.4948,-5.4771,-5.4497,-5.4792,-5.5399,-5.5967,-5.6726,-5.7484,-5.7993,-5.7918,-5.7637,-5.737,-5.7275,-5.7117,-5.6477,-5.6045,-5.572,-5.499,-5.4838,-5.4962,-5.5285,-5.5814,-5.6188,-5.6362,-5.6323,-5.6313,-5.6403,-5.5948,-5.5581,-5.5581,-5.5581,-5.5581,-5.5581,-5.6077,-5.6219,-5.5791,-5.6194,-5.6414,-5.5984,-5.5567,-5.5103,-5.4439,-5.3594,-5.2938,-5.2387,-5.1913,-5.1638,-5.1623,-5.0795,-5.0235,-5.001,-4.9412,-4.8952,-4.8663,-4.7508,-4.6515,-4.5846,-4.6188,-4.6175,0.0,0.0,0.0,0.0,-3.3867,0.0,-3.6118,-3.7759,-3.9284,-4.0127,-4.1645,-4.2901,-4.305,-4.4097,-4.4934,-4.4975,-4.5035,-4.5837,-4.7929,-4.8303,-4.8544,-4.9056,-4.9149,-4.9374,-4.9927,-5.0106,-5.0465,-5.1169,-5.1289,-5.2154,-5.3988,-5.4853,-5.5735,-5.673,-5.7211,-5.7183,-5.6528,-5.6266,-5.5929,-5.545,-5.4762,-5.4571,-5.4813,-5.5031,-5.5155,-5.5155,-5.5287,-5.5369,-5.5369,-5.5369,-5.5369,-5.5369,-5.5196,-5.4989,-5.4771,-5.4539,-5.4348,-5.443,-5.562,-5.6201,-5.6505,-5.7507,-5.7855,-5.7825,-5.7322,-5.7322,-5.7417,-5.7086,-5.628,-5.5312,-5.4639,-5.4739,-5.5008,-5.4993,-5.5636,-5.6335,-5.6768,-5.6698,-5.6476,-5.6263,-5.5882,-5.5621,-5.5561,-5.5531,-5.5531,-5.5531,-5.6028,-5.6372,-5.6372,-5.6616,-5.681,-5.681,-5.6567,-5.5981,-5.4854,-5.474,-5.4068,-5.248,-5.2579,-5.2358,-5.1569,-5.1211,-5.0683,-5.0123,-4.9727,-4.9297,-4.8663,-4.7476,-4.638,-4.5367,-4.6027,-4.605,0.0,0.0,0.0,-3.3472,-3.4063,0.0,-3.5574,-3.6287,-3.7352,-3.9224,-3.9771,-4.0301,-4.1526,-4.2285,-4.2783,-4.294,-4.3359,-4.4227,-4.5705,-4.6394,-4.6574,-4.6196,-4.7532,-4.8536,-4.8656,-4.9613,-5.0465,-5.1169,-5.1927,-5.2941,-5.4443,-5.5001,-5.5687,-5.6439,-5.6923,-5.6964,-5.6528,-5.6085,-5.5632,-5.5158,-5.4879,-5.4771,-5.4813,-5.5196,-5.5328,-5.5328,-5.5237,-5.5155,-5.5155,-5.5155,-5.5246,-5.5409,-5.5369,-5.5113,-5.4771,-5.4771,-5.4953,-5.5248,-5.5284,-5.6227,-5.7299,-5.7326,-5.7617,-5.7871,-5.7778,-5.7495,-5.7086,-5.6669,-5.6045,-5.5402,-5.504,-5.459,-5.4342,-5.4869,-5.5125,-5.5463,-5.6456,-5.6474,-5.6492,-5.7139,-5.6654,-5.5909,-5.537,-5.528,-5.528,-5.528,-5.5731,-5.6077,-5.6077,-5.6519,-5.681,-5.681,-5.6761,-5.6457,-5.5766,-5.526,-5.4654,-5.3921,-5.3126,-5.2627,-5.2465,-5.1706,-5.1155,-5.0739,-4.9727,-4.901,-4.8663,-4.7633,-4.7034,-4.678,-4.644,-4.625,-3.3826,-3.4068,-3.4087,-3.3606,-3.3962,0.0,0.0,-3.58,-3.6633,-3.8118,-3.859,-3.9092,-4.018,-4.086,-4.139,-4.1833,-4.2132,-4.2581,-4.324,-4.4496,-4.5304,-4.5304,-4.6172,-4.707,-4.7728,-4.8386,-4.9464,-5.1109,-5.2252,-5.3387,-5.4526,-5.528,-5.5908,-5.6372,-5.6875,-5.6977,-5.6808,-5.6495,-5.6001,-5.5474,-5.513,-5.4836,-5.4613,-5.4948,-5.5155,-5.5237,-5.5155,-5.5155,-5.5237,-5.5155,-5.5237,-5.5409,-5.5409,-5.5237,-5.498,-5.498,-5.5037,-5.5208,-5.5661,-5.6359,-5.7134,-5.7607,-5.7852,-5.7871,-5.7871,-5.7778,-5.7496,-5.6792,-5.6378,-5.6094,-5.5715,-5.531,-5.5201,-5.5891,-5.619,-5.656,-5.7453,-5.7196,-5.7114,-5.7723,-5.7032,-5.6281,-5.5951,-5.5621,-5.533,-5.5229,-5.5631,-5.5979,-5.5979,-5.6372,-5.6664,-5.6761,-5.681,-5.6567,-5.6028,-5.5451,-5.4815,-5.4149,-5.3237,-5.2627,-5.2465,-5.176,-5.1155,-5.0711,-4.964,-4.901,-4.8895,-4.7938,-4.7254,-4.6821,-4.6654,-4.6355,-3.4196,-3.4089,-3.3817,-3.3732,-3.3888,-3.4224,0.0,0.0,0.0,-3.6905,-3.7506,-3.8107,-3.8794,-3.945,-4.0047,-4.0509,-4.0689,-4.0778,-4.0816,-4.2282,-4.3658,-4.4436,-4.4766,-4.5394,-4.6621,-4.7189,-4.8536,-5.102,-5.2306,-5.3451,-5.4458,-5.5417,-5.6028,-5.6323,-5.673,-5.6988,-5.7084,-5.6856,-5.6444,-5.5799,-5.5374,-5.494,-5.4497,-5.4739,-5.4948,-5.5155,-5.5113,-5.5196,-5.5328,-5.5155,-5.526,-5.5481,-5.5433,-5.5246,-5.5113,-5.5113,-5.4948,-5.4963,-5.6005,-5.6428,-5.6658,-5.7779,-5.8056,-5.7965,-5.7918,-5.8104,-5.8053,-5.7207,-5.6924,-5.6834,-5.6449,-5.6176,-5.6221,-5.7055,-5.7448,-5.7794,-5.8577,-5.8209,-5.7803,-5.8204,-5.7376,-5.6576,-5.6525,-5.6033,-5.5531,-5.5229,-5.5631,-5.5929,-5.5929,-5.6225,-5.647,-5.6713,-5.6761,-5.6616,-5.6127,-5.5551,-5.4896,-5.4126,-5.329,-5.268,-5.2275,-5.1651,-5.1045,-5.0599,-4.9697,-4.9183,-4.9125,-4.8289,-4.747,-4.6649,-4.6756,-4.6433,-3.4025,-3.4206,-3.4234,-3.3817,-3.4043,-3.4268,-3.394,0.0,-3.5058,-3.5678,0.0,-3.6389,-3.7074,0.0,0.0,-3.7729,-3.8115,-3.8537,-3.8721,-3.9439,-4.0427,-4.1683,-4.2851,-4.3798,-4.4586,-4.68,-4.9015,-5.1079,-5.1887,-5.2875,-5.4181,-5.512,-5.578,-5.6028,-5.6323,-5.6682,-5.7084,-5.6747,-5.6292,-5.5799,-5.5581,-5.5229,-5.4771,-5.4948,-5.5196,-5.5369,-5.5196,-5.5113,-5.5113,-5.5113,-5.5342,-5.5729,-5.5504,-5.5246,-5.5113,-5.5113,-5.4948,-5.4909,-5.5634,-5.6144,-5.6638,-5.742,-5.7951,-5.8228,-5.7965,-5.8197,-5.8405,-5.7661,-5.7317,-5.7177,-5.7344,-5.6451,-5.5967,-5.7628,-5.74,-5.731,-5.8971,-5.8592,-5.8164,-5.878,-5.7635,-5.6525,-5.6269,-5.5882,-5.5531,-5.5229,-5.5431,-5.5631,-5.5631,-5.6077,-5.6421,-5.6421,-5.6664,-5.6664,-5.6372,-5.588,-5.528,-5.4641,-5.3867,-5.3213,-5.268,-5.1568,-5.0906,-5.085,-5.001,-4.9412,-4.9125,-4.8721,-4.8204,-4.7541,-4.7053,-4.678,-3.4025,-3.4524,-3.484,-3.4268,-3.4554,-3.4874,-3.4401,-3.4426,-3.4622,-3.4986,0.0,0.0,0.0,0.0,0.0,0.0,-3.7227,-3.7623,-3.8221,-3.8519,-3.9211,-4.0666,-4.1624,-4.2611,-4.3618,-4.5813,-4.7818,-4.9404,-5.0481,-5.1798,-5.3533,-5.4499,-5.5338,-5.5979,-5.6274,-5.6567,-5.6923,-5.7026,-5.6575,-5.5573,-5.5784,-5.5525,-5.4813,-5.4896,-5.5113,-5.5369,-5.5196,-5.5422,-5.5892,-5.5767,-5.6186,-5.684,-5.6718,-5.6288,-5.5693,-5.5274,-5.5288,-5.5611,-5.6028,-5.6631,-5.7242,-5.7942,-5.8251,-5.8321,-5.8289,-5.8564,-5.8664,-5.7828,-5.7783,-5.8057,-5.8114,-5.7838,-5.7973,-5.963,-5.9474,-5.9253,-6.0239,-5.9553,-5.8948,-5.9492,-5.852,-5.7628,-5.7639,-5.6495,-5.5581,-5.5431,-5.5531,-5.5581,-5.5581,-5.578,-5.6077,-5.6372,-5.6519,-5.6519,-5.6421,-5.5998,-5.5551,-5.5027,-5.4023,-5.3184,-5.2465,-5.1568,-5.1072,-5.0906,-5.0066,-4.9469,-4.9125,-4.8837,-4.8431,-4.7997,-4.7349,-4.6959,-3.4368,-3.4922,-3.5328,-3.4796,-3.4981,-3.5207,-3.484,-3.4545,-3.4428,-3.4462,-3.4563,0.0,0.0,0.0,0.0,0.0,0.0,-3.6738,-3.7278,-3.752,-3.8275,-3.9911,-4.0696,-4.1624,-4.294,-4.4515,-4.6052,-4.7369,-4.8865,-5.0571,-5.2546,-5.3639,-5.4756,-5.5948,-5.6176,-5.647,-5.681,-5.7258,-5.6903,-5.5717,-5.6028,-5.5915,-5.5357,-5.5005,-5.5118,-5.5578,-5.5527,-5.5859,-5.6427,-5.657,-5.7054,-5.7753,-5.7644,-5.7258,-5.6691,-5.595,-5.5973,-5.636,-5.6762,-5.7319,-5.7974,-5.836,-5.8427,-5.8321,-5.8473,-5.8701,-5.8741,-5.8083,-5.8236,-5.8695,-5.896,-5.9009,-5.939,-6.1182,-6.1137,-6.0821,-6.1224,-6.0495,-5.9717,-5.9588,-5.896,-5.838,-5.8304,-5.7121,-5.6224,-5.6073,-5.6022,-5.6022,-5.6022,-5.5922,-5.6053,-5.6469,-5.6464,-5.6421,-5.6519,-5.6145,-5.5651,-5.4997,-5.3876,-5.3011,-5.2437,-5.1787,-5.1293,-5.1017,-5.0235,-4.9721,-4.948,-4.909,-4.8801,-4.8524,-4.7696,-4.7172,-3.5207,-3.5419,-3.5638,-3.5427,-3.5253,-3.5037,-3.4832,-3.4589,-3.4327,-3.3985,-3.4191,-3.4361,-3.4191,0.0,0.0,0.0,0.0,0.0,0.0,-3.5852,-3.7049,-3.9194,-4.0038,-4.0935,-4.2291,-4.303,-4.3947,-4.5304,-4.7219,-4.9194,-5.1169,-5.2516,-5.4097,-5.5948,-5.6028,-5.6274,-5.681,-5.7258,-5.7152,-5.6466,-5.628,-5.6423,-5.6765,-5.5421,-5.5291,-5.6186,-5.6395,-5.6353,-5.6282,-5.7171,-5.7839,-5.8247,-5.7753,-5.7872,-5.8172,-5.7388,-5.7002,-5.7,-5.7616,-5.8186,-5.8532,-5.8335,-5.8321,-5.8321,-5.8321,-5.8427,-5.861,-5.8578,-5.8578,-5.885,-5.9965,-5.957,-5.941,-6.1482,-6.1482,-6.1119,-6.1508,-6.1052,-6.0116,-5.8695,-5.839,-5.8176,-5.7534,-5.773,-5.7737,-5.7139,-5.7034,-5.7034,-5.7034,-5.6753,-5.6617,-5.6839,-5.6591,-5.6519,-5.6761,-5.6323,-5.5501,-5.4406,-5.3179,-5.2683,-5.3054,-5.2221,-5.1623,-5.1293,-5.0767,-5.0449,-5.047,-4.9852,-4.9507,-4.9455,-4.8257,-4.7501,-3.6702,-3.7053,-3.7434,-3.6968,-3.69,-3.6827,-3.6322,-3.551,-3.4796,-3.4552,-3.4272,-3.402,-3.3813,0.0,0.0,0.0,0.0,0.0,0.0,-3.6353,-3.7276,-3.7968,-3.9157,-4.0064,-4.0367,-4.1528,-4.2698,-4.3898,-4.5424,-4.7189,-4.9164,-5.1536,-5.3368,-5.4643,-5.5719,-5.6421,-5.681,-5.7067,-5.7011,-5.6497,-5.657,-5.6599,-5.6611,-5.6164,-5.6187,-5.6702,-5.6745,-5.7088,-5.7624,-5.7936,-5.8539,-5.9197,-5.8851,-5.8795,-5.8848,-5.7657,-5.7485,-5.7868,-5.823,-5.8374,-5.8459,-5.8687,-5.861,-5.8564,-5.8882,-5.8927,-5.8837,-5.8655,-5.8928,-5.9408,-6.0123,-6.0391,-6.0832,-6.2228,-6.2225,-6.2,-6.2351,-6.1106,-5.9911,-5.988,-5.8701,-5.7881,-5.8318,-5.8395,-5.8239,-5.7756,-5.754,-5.7333,-5.7094,-5.7019,-5.7106,-5.7567,-5.7111,-5.6965,-5.7438,-5.617,-5.5198,-5.4836,-5.3331,-5.2632,-5.3078,-5.2198,-5.1689,-5.1623,-5.1238,-5.093,-5.0733,-5.0574,-5.0113,-4.9482,-4.9062,-4.8276,-3.8492,-3.8642,-3.8859,-3.8274,-3.8086,-3.7806,-3.7177,-3.6343,-3.5561,-3.5024,-3.4552,-3.4047,-3.3454,0.0,0.0,0.0,0.0,0.0,0.0,-3.6111,-3.6716,-3.6716,-3.7987,-3.8958,-3.9127,-4.0214,-4.1385,-4.2629,-4.4118,-4.5813,-4.7848,-5.0246,-5.2195,-5.358,-5.4701,-5.5568,-5.6053,-5.626,-5.645,-5.6497,-5.6196,-5.6465,-5.7211,-5.6479,-5.6535,-5.7177,-5.7233,-5.7533,-5.8069,-5.8414,-5.89,-5.9452,-5.9241,-5.9197,-5.91,-5.8169,-5.8137,-5.8574,-5.8587,-5.8518,-5.8459,-5.8746,-5.8746,-5.8701,-5.9062,-5.9017,-5.8837,-5.8655,-5.8836,-5.9315,-5.998,-6.05,-6.1116,-6.2358,-6.258,-6.258,-6.2759,-6.1308,-6.0069,-6.0215,-5.8863,-5.7867,-5.8613,-5.8698,-5.8662,-5.8451,-5.8211,-5.8001,-5.7812,-5.7603,-5.7611,-5.811,-5.7658,-5.7394,-5.7629,-5.5816,-5.4763,-5.5089,-5.3218,-5.244,-5.3366,-5.2421,-5.2003,-5.226,-5.1735,-5.1571,-5.1704,-5.1295,-5.0833,-5.0294,-4.987,-4.8944]},{"header":{"parameterUnit":"m.s-1","parameterCategory":1,"la1":30.6,"la2":29.2853,"lo1":-89.7004,"lo2":-87.6739,"dy":0.0162,"dx":0.0183,"nx":112,"ny":82,"refTime":"2023-04-20T06:00:00:Z","depth":0,"parameterNumber":3,"parameterNumberName":"V-component_of_WINDS"},"data":[0.0,0.0,0.0,0.0,0.0,0.0,0.0,0.0,0.0,0.0,0.0,0.0,0.0,0.0,0.0,0.0,0.0,0.0,0.0,0.0,0.0,0.0,0.0,0.0,0.0,0.0,0.0,0.0,0.0,0.0,0.0,0.0,0.0,0.0,0.0,0.0,0.0,0.0,0.0,0.0,0.0,0.0,0.0,0.0,0.0,0.0,0.0,0.0,0.0,0.0,0.0,0.0,0.0,0.0,0.0,0.0,0.0,0.0,0.0,0.0,0.0,0.0,0.0,0.0,0.0,0.0,0.0,0.0,0.0,0.0,0.0,0.0,0.0,0.0,0.0,0.0,0.0,0.0,0.0,0.0,0.0,0.0,0.0,0.0,0.0,0.0,0.0,0.0,0.0,0.0,2.9619,3.0672,3.2926,3.4374,3.4399,3.4074,3.3612,3.2919,0.0,0.0,0.0,0.0,0.0,0.0,0.0,0.0,0.0,0.0,0.0,0.0,0.0,0.0,0.0,0.0,0.0,0.0,0.0,0.0,0.0,0.0,0.0,0.0,0.0,0.0,0.0,0.0,0.0,0.0,0.0,0.0,0.0,0.0,0.0,0.0,0.0,0.0,0.0,0.0,0.0,0.0,0.0,0.0,0.0,0.0,0.0,0.0,0.0,0.0,0.0,0.0,0.0,0.0,0.0,0.0,0.0,0.0,0.0,0.0,0.0,0.0,0.0,0.0,0.0,0.0,0.0,0.0,0.0,0.0,0.0,0.0,0.0,0.0,0.0,0.0,0.0,0.0,0.0,0.0,0.0,0.0,0.0,0.0,0.0,0.0,0.0,0.0,0.0,0.0,0.0,0.0,0.0,0.0,0.0,0.0,0.0,0.0,0.0,0.0,0.0,0.0,0.0,0.0,3.062,3.3097,3.4129,3.4691,3.4787,3.3907,3.3207,3.2904,0.0,0.0,0.0,0.0,0.0,0.0,0.0,0.0,0.0,0.0,0.0,0.0,0.0,0.0,0.0,0.0,0.0,0.0,0.0,0.0,0.0,0.0,0.0,0.0,0.0,0.0,0.0,0.0,0.0,0.0,0.0,0.0,0.0,0.0,0.0,0.0,0.0,0.0,0.0,0.0,0.0,0.0,0.0,0.0,0.0,0.0,0.0,0.0,0.0,0.0,0.0,0.0,0.0,0.0,0.0,0.0,0.0,0.0,0.0,0.0,0.0,0.0,0.0,0.0,0.0,0.0,0.0,0.0,0.0,0.0,0.0,0.0,0.0,0.0,0.0,0.0,0.0,0.0,0.0,0.0,0.0,0.0,0.0,0.0,0.0,0.0,0.0,0.0,0.0,0.0,0.0,0.0,0.0,0.0,0.0,0.0,0.0,0.0,0.0,0.0,0.0,0.0,0.0,3.0343,3.2017,3.3744,3.425,3.4643,3.5081,3.3985,3.3345,3.3598,3.2754,0.0,0.0,0.0,0.0,0.0,0.0,0.0,0.0,0.0,0.0,0.0,0.0,0.0,0.0,0.0,0.0,0.0,0.0,0.0,0.0,0.0,0.0,0.0,0.0,0.0,0.0,0.0,0.0,0.0,0.0,0.0,0.0,0.0,0.0,0.0,0.0,0.0,0.0,0.0,0.0,0.0,0.0,0.0,0.0,0.0,0.0,0.0,0.0,0.0,0.0,0.0,0.0,0.0,0.0,0.0,0.0,0.0,0.0,0.0,0.0,0.0,0.0,0.0,0.0,0.0,0.0,0.0,0.0,0.0,0.0,0.0,0.0,0.0,0.0,0.0,0.0,0.0,0.0,0.0,0.0,0.0,0.0,0.0,0.0,0.0,0.0,0.0,0.0,0.0,0.0,0.0,0.0,0.0,0.0,0.0,0.0,0.0,0.0,0.0,0.0,0.0,0.0,3.184,3.2834,3.3827,3.4226,3.4643,3.5291,3.4251,3.3768,3.4194,3.3299,0.0,0.0,0.0,0.0,0.0,0.0,0.0,0.0,0.0,0.0,0.0,0.0,0.0,0.0,0.0,0.0,0.0,0.0,0.0,0.0,0.0,0.0,0.0,0.0,0.0,0.0,0.0,0.0,0.0,0.0,0.0,0.0,0.0,0.0,0.0,0.0,0.0,0.0,0.0,0.0,0.0,0.0,0.0,0.0,0.0,0.0,0.0,0.0,0.0,0.0,0.0,0.0,0.0,0.0,0.0,0.0,0.0,0.0,0.0,0.0,0.0,0.0,0.0,0.0,0.0,0.0,0.0,0.0,0.0,0.0,0.0,0.0,0.0,0.0,0.0,0.0,0.0,0.0,0.0,0.0,0.0,0.0,0.0,0.0,0.0,0.0,0.0,0.0,0.0,0.0,0.0,0.0,0.0,0.0,0.0,0.0,0.0,0.0,0.0,0.0,0.0,0.0,3.1297,3.2312,3.3889,3.4448,3.4883,3.5339,3.479,3.4375,3.4291,3.3826,0.0,0.0,0.0,0.0,0.0,0.0,0.0,0.0,0.0,0.0,0.0,0.0,0.0,0.0,0.0,0.0,0.0,0.0,0.0,0.0,0.0,0.0,0.0,0.0,0.0,0.0,0.0,0.0,0.0,0.0,0.0,0.0,0.0,0.0,0.0,0.0,0.0,0.0,0.0,0.0,0.0,0.0,0.0,0.0,0.0,0.0,0.0,0.0,0.0,0.0,0.0,0.0,0.0,0.0,0.0,0.0,0.0,0.0,0.0,0.0,0.0,0.0,0.0,0.0,0.0,0.0,0.0,0.0,0.0,0.0,0.0,0.0,0.0,0.0,0.0,0.0,0.0,0.0,0.0,0.0,0.0,0.0,0.0,0.0,0.0,0.0,0.0,0.0,0.0,0.0,0.0,0.0,0.0,0.0,0.0,0.0,0.0,0.0,0.0,0.0,0.0,0.0,3.1752,3.2972,3.4491,3.461,3.4904,3.5742,3.5049,3.4402,3.4071,0.0,0.0,0.0,0.0,0.0,0.0,0.0,0.0,0.0,0.0,0.0,0.0,0.0,0.0,0.0,0.0,0.0,0.0,0.0,0.0,0.0,0.0,0.0,0.0,0.0,0.0,0.0,0.0,0.0,0.0,0.0,0.0,0.0,0.0,0.0,0.0,0.0,0.0,0.0,0.0,0.0,0.0,0.0,0.0,0.0,0.0,0.0,0.0,0.0,0.0,0.0,0.0,0.0,0.0,0.0,0.0,0.0,0.0,0.0,0.0,0.0,0.0,0.0,0.0,0.0,0.0,0.0,0.0,0.0,0.0,0.0,0.0,0.0,0.0,0.0,0.0,0.0,0.0,0.0,0.0,0.0,0.0,0.0,0.0,0.0,0.0,0.0,0.0,0.0,0.0,0.0,0.0,0.0,0.0,0.0,0.0,0.0,0.0,0.0,0.0,0.0,0.0,3.0466,3.1709,3.2912,3.4426,3.4543,3.484,3.5651,3.5194,3.4691,3.4268,0.0,0.0,0.0,0.0,0.0,0.0,0.0,0.0,0.0,0.0,0.0,0.0,0.0,0.0,0.0,0.0,0.0,0.0,0.0,0.0,0.0,0.0,0.0,0.0,0.0,0.0,0.0,0.0,0.0,0.0,0.0,0.0,0.0,0.0,0.0,0.0,0.0,0.0,0.0,0.0,0.0,0.0,0.0,0.0,0.0,0.0,0.0,0.0,0.0,0.0,0.0,0.0,0.0,0.0,0.0,0.0,0.0,0.0,0.0,0.0,0.0,0.0,0.0,0.0,0.0,0.0,0.0,0.0,0.0,0.0,0.0,0.0,0.0,0.0,0.0,0.0,0.0,0.0,0.0,0.0,0.0,0.0,0.0,0.0,0.0,0.0,0.0,0.0,0.0,0.0,0.0,0.0,0.0,0.0,0.0,0.0,0.0,0.0,0.0,0.0,0.0,0.0,3.0345,3.0967,3.1854,3.354,3.4176,3.4594,3.4892,3.5211,3.5284,0.0,0.0,0.0,0.0,0.0,0.0,0.0,0.0,0.0,0.0,0.0,0.0,0.0,0.0,0.0,0.0,0.0,0.0,0.0,0.0,0.0,0.0,0.0,0.0,0.0,0.0,0.0,0.0,0.0,0.0,0.0,0.0,0.0,0.0,0.0,0.0,0.0,0.0,0.0,0.0,0.0,0.0,0.0,0.0,0.0,0.0,0.0,0.0,0.0,0.0,0.0,0.0,0.0,0.0,0.0,0.0,0.0,0.0,0.0,0.0,0.0,0.0,0.0,0.0,0.0,0.0,0.0,0.0,0.0,0.0,0.0,0.0,0.0,0.0,0.0,0.0,0.0,0.0,0.0,0.0,0.0,0.0,0.0,0.0,0.0,0.0,0.0,0.0,0.0,0.0,0.0,0.0,0.0,0.0,0.0,0.0,0.0,0.0,0.0,0.0,0.0,0.0,0.0,3.0834,3.1097,3.224,3.5391,3.4852,3.4766,3.6108,3.5671,3.5273,3.5077,0.0,0.0,0.0,0.0,0.0,0.0,0.0,0.0,0.0,0.0,0.0,0.0,0.0,0.0,0.0,0.0,0.0,0.0,0.0,0.0,0.0,0.0,0.0,0.0,0.0,0.0,0.0,0.0,0.0,0.0,0.0,0.0,0.0,0.0,0.0,0.0,0.0,0.0,0.0,0.0,0.0,0.0,0.0,0.0,0.0,0.0,0.0,0.0,0.0,0.0,0.0,0.0,0.0,0.0,0.0,0.0,0.0,0.0,0.0,0.0,0.0,0.0,0.0,0.0,0.0,0.0,0.0,0.0,0.0,0.0,0.0,0.0,0.0,0.0,0.0,0.0,0.0,0.0,0.0,0.0,0.0,0.0,0.0,0.0,0.0,0.0,0.0,0.0,0.0,0.0,0.0,0.0,0.0,0.0,0.0,0.0,0.0,0.0,0.0,0.0,0.0,0.0,3.0853,3.116,3.2368,3.5591,3.5038,3.5052,3.6528,3.6,3.5542,3.5356,0.0,0.0,0.0,0.0,0.0,0.0,0.0,0.0,0.0,0.0,0.0,0.0,0.0,0.0,0.0,0.0,0.0,0.0,0.0,0.0,0.0,0.0,0.0,0.0,0.0,0.0,0.0,0.0,0.0,0.0,0.0,0.0,0.0,0.0,0.0,0.0,0.0,0.0,0.0,0.0,0.0,0.0,0.0,0.0,0.0,0.0,0.0,0.0,0.0,0.0,0.0,0.0,0.0,0.0,0.0,0.0,0.0,0.0,0.0,0.0,0.0,0.0,0.0,0.0,0.0,0.0,0.0,0.0,0.0,0.0,0.0,0.0,0.0,0.0,0.0,0.0,0.0,0.0,0.0,0.0,0.0,0.0,0.0,0.0,0.0,0.0,0.0,0.0,0.0,0.0,0.0,0.0,0.0,0.0,0.0,0.0,0.0,0.0,0.0,0.0,0.0,0.0,3.0717,3.1223,3.2372,3.4818,3.505,3.5427,3.6397,3.6257,3.6004,3.5801,0.0,0.0,0.0,0.0,0.0,0.0,0.0,0.0,0.0,0.0,0.0,0.0,0.0,0.0,0.0,0.0,0.0,0.0,0.0,0.0,0.0,0.0,0.0,0.0,0.0,0.0,0.0,0.0,0.0,0.0,0.0,0.0,0.0,0.0,0.0,0.0,0.0,0.0,0.0,0.0,0.0,0.0,0.0,0.0,0.0,0.0,0.0,0.0,0.0,0.0,0.0,0.0,0.0,0.0,0.0,0.0,0.0,0.0,0.0,0.0,2.0561,2.0251,0.0,0.0,0.0,0.0,0.0,0.0,0.0,0.0,0.0,0.0,0.0,0.0,0.0,0.0,0.0,0.0,0.0,0.0,0.0,0.0,0.0,0.0,0.0,0.0,0.0,0.0,0.0,0.0,0.0,0.0,0.0,0.0,0.0,0.0,0.0,0.0,0.0,0.0,0.0,0.0,3.1778,3.1829,3.2867,3.6129,3.5723,3.5728,3.6988,3.6401,3.6109,3.6548,3.5159,0.0,0.0,0.0,0.0,0.0,0.0,0.0,0.0,0.0,0.0,0.0,0.0,0.0,0.0,0.0,0.0,0.0,0.0,0.0,0.0,0.0,0.0,0.0,0.0,0.0,0.0,0.0,0.0,0.0,0.0,0.0,0.0,0.0,0.0,0.0,0.0,0.0,0.0,0.0,0.0,0.0,0.0,0.0,0.0,0.0,0.0,0.0,0.0,0.0,0.0,0.0,0.0,0.0,0.0,0.0,0.0,0.0,0.0,0.0,2.2954,2.1997,0.0,0.0,0.0,0.0,0.0,0.0,0.0,0.0,0.0,0.0,0.0,0.0,0.0,0.0,0.0,0.0,0.0,0.0,0.0,0.0,0.0,0.0,0.0,0.0,0.0,0.0,0.0,0.0,0.0,0.0,0.0,0.0,0.0,0.0,0.0,0.0,0.0,0.0,0.0,0.0,3.1869,3.2348,3.3577,3.6199,3.5942,3.6121,3.748,3.7057,3.6729,3.6552,3.5612,0.0,0.0,0.0,0.0,0.0,0.0,0.0,0.0,0.0,0.0,0.0,0.0,0.0,0.0,0.0,0.0,0.0,0.0,0.0,0.0,0.0,0.0,0.0,0.0,0.0,0.0,0.0,0.0,0.0,0.0,0.0,0.0,0.0,0.0,0.0,0.0,0.0,0.0,0.0,0.0,0.0,0.0,0.0,0.0,0.0,0.0,0.0,0.0,0.0,0.0,0.0,0.0,0.0,2.6129,2.6502,2.7279,2.6748,2.6789,2.7146,2.5761,2.4355,2.3034,2.3337,0.0,0.0,0.0,0.0,0.0,0.0,0.0,0.0,0.0,0.0,0.0,0.0,0.0,0.0,0.0,0.0,0.0,0.0,0.0,0.0,0.0,0.0,3.0309,3.0813,3.1615,3.1483,2.8753,0.0,0.0,0.0,0.0,0.0,0.0,0.0,0.0,0.0,0.0,0.0,3.2145,3.3143,3.4478,3.6154,3.6415,3.6897,3.803,3.7954,3.7518,3.6812,3.6274,3.563,0.0,0.0,0.0,0.0,0.0,0.0,0.0,0.0,0.0,0.0,0.0,0.0,0.0,0.0,0.0,0.0,0.0,0.0,0.0,0.0,0.0,0.0,0.0,0.0,0.0,0.0,0.0,0.0,0.0,0.0,0.0,0.0,2.1726,2.1848,0.0,0.0,0.0,0.0,0.0,0.0,0.0,0.0,0.0,0.0,0.0,0.0,0.0,2.6265,2.6593,2.7155,2.754,2.784,2.8855,2.9308,2.9263,2.9375,2.9689,3.0108,2.9625,0.0,2.7432,2.7017,0.0,0.0,0.0,0.0,0.0,0.0,0.0,0.0,0.0,0.0,0.0,0.0,0.0,0.0,0.0,0.0,0.0,0.0,0.0,0.0,0.0,0.0,3.2713,3.361,3.4376,3.4585,3.3461,3.1792,3.0174,2.906,2.9329,2.9463,0.0,0.0,0.0,0.0,0.0,0.0,3.428,3.4807,3.5636,3.7452,3.8203,3.8716,3.9,3.864,3.8449,3.8552,3.7153,3.6163,3.5797,3.6028,0.0,0.0,0.0,0.0,0.0,0.0,0.0,0.0,0.0,0.0,0.0,0.0,0.0,0.0,0.0,0.0,0.0,0.0,0.0,0.0,0.0,0.0,0.0,0.0,0.0,0.0,0.0,0.0,0.0,2.3087,2.3329,2.3365,2.366,2.3719,0.0,0.0,0.0,0.0,0.0,0.0,0.0,0.0,0.0,2.7433,2.7786,2.8248,2.8864,2.9374,2.9806,3.0188,3.0468,3.0675,3.0813,3.0698,3.0882,3.1315,3.1748,3.1592,3.095,2.9475,2.8579,2.7888,0.0,0.0,0.0,0.0,2.6222,2.7122,2.829,2.8566,2.8442,2.8676,0.0,0.0,0.0,0.0,0.0,0.0,0.0,3.1695,3.3692,3.4194,3.4422,3.5362,3.5874,3.6135,3.5913,3.5059,3.3856,3.2088,3.1649,3.1561,3.1471,3.1881,0.0,0.0,0.0,3.4516,3.5634,3.5991,3.6871,3.8706,3.8705,3.8893,3.9752,3.9402,3.9234,3.9303,3.8656,3.8043,3.7459,3.7613,3.7148,0.0,0.0,0.0,0.0,0.0,0.0,0.0,0.0,0.0,0.0,0.0,0.0,0.0,0.0,0.0,0.0,0.0,0.0,0.0,0.0,0.0,0.0,0.0,0.0,0.0,0.0,0.0,0.0,2.4433,2.4834,2.4823,2.5467,2.5576,0.0,0.0,0.0,0.0,0.0,0.0,2.6902,2.7949,2.8753,2.923,2.9589,3.0117,3.0767,3.1367,3.1879,3.2298,3.2207,3.2324,3.258,3.2277,3.2371,3.279,3.3332,3.3606,3.3457,3.1544,3.0196,2.9326,2.8207,2.7883,2.7964,2.7802,2.8225,2.9086,3.0611,3.1061,3.0945,3.0801,3.0422,2.9731,2.8274,0.0,0.0,0.0,0.0,3.3101,3.477,3.54,3.5748,3.6656,3.7008,3.7226,3.7427,3.7407,3.6768,3.49,3.4155,3.3935,3.4147,3.4545,0.0,3.484,3.5877,3.6794,3.7121,3.7357,3.8074,3.9637,3.9347,3.9428,4.0489,4.0447,4.0292,4.0077,4.0118,3.9771,3.8883,3.9146,3.8757,3.7557,0.0,0.0,0.0,0.0,0.0,0.0,0.0,0.0,0.0,0.0,0.0,0.0,0.0,0.0,0.0,0.0,0.0,0.0,0.0,0.0,0.0,0.0,0.0,0.0,0.0,0.0,0.0,0.0,0.0,2.5717,2.6724,0.0,0.0,0.0,0.0,2.6604,2.7838,2.8391,2.8047,2.9874,3.0789,3.0533,3.1271,3.1783,3.1994,3.2769,3.3338,3.3624,3.4535,3.4848,3.4655,3.4897,3.5162,3.5377,3.465,3.4478,3.4613,3.3231,3.2087,3.1095,3.0284,3.0084,3.0184,2.9792,3.065,3.1997,3.1712,3.1964,3.2504,3.2685,3.2382,3.1883,3.1332,3.1806,0.0,0.0,3.4024,3.4899,3.5897,3.6341,3.6722,3.7619,3.7952,3.8107,3.8179,3.7891,3.7498,3.6948,3.6757,3.6673,3.6543,0.0,3.6749,3.7339,3.7482,3.7968,3.9186,3.9129,3.9268,4.001,4.0825,4.1295,4.125,4.1817,4.1954,4.1429,4.1246,4.0621,3.952,4.0597,4.0392,3.848,3.9278,0.0,0.0,0.0,0.0,0.0,0.0,0.0,0.0,0.0,0.0,0.0,0.0,0.0,0.0,0.0,0.0,0.0,0.0,0.0,0.0,0.0,0.0,0.0,0.0,0.0,0.0,0.0,0.0,2.7584,2.8522,0.0,2.8648,2.8671,2.8639,2.8484,2.9371,2.9988,3.0193,3.1506,3.2105,3.1839,3.2734,3.3184,3.3038,3.3518,3.3953,3.4414,3.48,3.4872,3.4775,3.4872,3.4969,3.5066,3.4968,3.4797,3.4525,3.4195,3.3559,3.2678,3.1307,3.1083,3.1461,3.1614,3.2123,3.2867,3.3745,3.4172,3.4339,3.387,3.3173,3.25,3.2239,3.2693,3.3445,3.414,3.5052,3.6079,3.7074,3.7543,3.7906,3.8588,3.8637,3.8582,3.8747,3.8527,3.8238,3.8249,3.759,3.7246,3.7797,3.7891,3.8094,3.8745,3.8943,3.9448,4.0597,4.0409,4.0707,4.2037,4.1693,4.1735,4.2671,4.2412,4.2364,4.2705,4.2658,4.2167,4.1146,4.168,4.1422,4.026,4.0186,3.9744,0.0,0.0,0.0,0.0,0.0,0.0,0.0,0.0,0.0,0.0,0.0,0.0,0.0,0.0,0.0,0.0,0.0,0.0,0.0,0.0,0.0,0.0,0.0,0.0,0.0,2.7305,2.8161,2.9077,3.0053,3.0505,3.0209,3.0221,3.0194,3.0098,3.0995,3.1567,3.1761,3.2976,3.3417,3.2886,3.3777,3.3991,3.3323,3.3892,3.4282,3.4546,3.4724,3.4967,3.5352,3.5331,3.5283,3.5186,3.5405,3.509,3.4533,3.4553,3.4358,3.3995,3.256,3.222,3.2581,3.2828,3.335,3.4042,3.5264,3.559,3.5308,3.4616,3.4142,3.3827,3.3672,3.4155,3.4906,3.5301,3.6011,3.6869,3.7666,3.8064,3.8409,3.8971,3.8951,3.8851,3.8836,3.8701,3.8758,3.905,3.8407,3.8093,3.9127,3.924,3.9452,4.0247,4.0301,4.0551,4.1285,4.1044,4.1223,4.2435,4.196,4.191,4.2895,4.2705,4.2755,4.32,4.3416,4.3204,4.2482,4.2781,4.2653,4.207,4.1667,4.1145,4.0414,0.0,0.0,0.0,0.0,0.0,0.0,0.0,0.0,0.0,0.0,0.0,0.0,0.0,0.0,0.0,0.0,0.0,0.0,0.0,0.0,0.0,0.0,0.0,2.7327,2.8373,2.9417,3.0097,3.1288,3.196,3.1684,3.1478,3.1368,3.1368,3.2566,3.3089,3.2607,3.4249,3.4728,3.3665,3.4406,3.4186,3.2869,3.3866,3.4296,3.4078,3.457,3.5375,3.6386,3.638,3.6259,3.5988,3.5988,3.5549,3.4823,3.4246,3.4534,3.5065,3.3997,3.3584,3.3608,3.3401,3.4274,3.5646,3.6177,3.5994,3.5458,3.4956,3.5298,3.5885,3.5718,3.6358,3.7142,3.6891,3.6991,3.7293,3.7543,3.7842,3.8213,3.873,3.9046,3.9084,3.8467,3.8574,3.8877,3.9389,3.9184,3.9375,4.069,4.0738,4.0918,4.1862,4.1555,0.0,4.1454,4.1047,4.085,4.1123,4.1666,4.2021,4.206,4.2812,4.3217,4.2978,4.3512,4.3718,4.3423,4.3947,4.4067,4.3751,4.3817,4.3111,4.171,0.0,0.0,0.0,0.0,0.0,0.0,0.0,0.0,0.0,0.0,0.0,0.0,0.0,0.0,0.0,0.0,0.0,0.0,0.0,0.0,0.0,2.9116,2.9491,2.9169,3.0087,3.1107,3.1778,3.2511,3.3006,3.3098,3.2718,3.2549,3.2724,3.3211,3.3627,3.3843,3.51,3.5375,3.4503,3.5263,3.5212,3.4274,3.4531,3.483,3.5147,3.5314,3.5537,3.5821,3.6013,3.6093,3.6042,3.6194,3.6032,3.5647,3.5305,3.5186,3.5065,3.3881,3.3641,3.3955,3.4073,3.4838,3.5971,3.6704,3.6734,3.6449,3.6503,3.6628,3.6776,3.6328,3.6647,3.7216,3.7124,3.758,3.8137,3.8378,3.8862,3.9322,3.9677,3.9597,3.9561,3.9797,3.9603,3.9459,3.9791,3.9867,4.0206,4.1105,4.1251,4.1434,4.2217,4.2038,4.2027,4.2636,4.2338,4.2176,4.2469,4.2351,4.2423,4.2674,4.2931,4.324,4.3676,4.3991,4.4099,4.3898,4.4185,4.4432,4.4659,4.491,4.466,0.0,0.0,0.0,0.0,0.0,0.0,0.0,0.0,0.0,0.0,0.0,0.0,0.0,0.0,0.0,0.0,0.0,0.0,0.0,0.0,0.0,0.0,3.1118,3.1743,3.1721,3.1847,3.2207,3.2913,3.3311,3.3539,3.3694,3.3314,3.3119,3.3319,3.3782,3.4182,3.4361,3.5387,3.5713,3.5149,3.5585,3.5428,3.4582,3.4814,3.5034,3.5264,3.545,3.5827,3.625,3.643,3.6518,3.6518,3.6696,3.6416,3.5815,3.5667,3.5354,3.4969,0.0,0.0,0.0,0.0,3.5721,3.6284,3.7096,3.7047,3.6676,3.692,3.7114,3.7156,3.685,3.7097,3.7545,3.7653,3.8038,3.8475,3.8767,3.9154,3.9569,3.9724,3.988,3.9977,4.0068,4.0028,3.9987,4.0276,4.042,0.0,4.1572,4.1672,4.1882,4.2481,4.2389,4.2369,4.2705,4.2763,4.284,4.3099,4.2818,4.2772,4.3101,4.3031,0.0,0.0,0.0,4.4504,4.4684,4.4944,0.0,0.0,0.0,4.6125,4.5985,4.6391,0.0,0.0,4.378,4.3886,0.0,0.0,0.0,0.0,0.0,0.0,0.0,0.0,0.0,0.0,0.0,0.0,0.0,0.0,0.0,0.0,3.3068,3.3922,3.4483,3.3529,3.3078,3.3743,3.3777,3.3761,3.3761,3.3561,3.3411,3.3411,3.4257,3.4728,3.4597,3.5503,0.0,0.0,0.0,3.5364,3.4585,3.505,3.5175,3.4913,3.5392,3.6145,3.7012,3.7125,3.7172,3.7172,3.7276,3.6723,3.5835,3.5737,3.54,3.4871,3.4871,3.5017,3.543,3.6382,3.6651,3.6614,3.7342,0.0,0.0,3.6834,3.7097,3.7276,3.7276,3.7665,3.808,3.8315,3.8368,3.8473,3.8684,3.905,3.931,3.931,3.9929,4.0363,3.9875,4.0119,4.0514,4.0834,4.0834,4.109,4.1887,4.2054,4.2209,4.2681,4.2634,4.2461,4.2397,4.2756,4.3101,4.3367,4.3228,0.0,4.3403,4.3261,4.3399,4.4068,4.4468,4.4961,4.5546,4.5954,4.6279,4.6426,4.6987,4.75,4.7901,4.8166,4.8491,4.8843,4.653,4.5784,0.0,0.0,0.0,0.0,0.0,0.0,0.0,0.0,0.0,0.0,0.0,0.0,0.0,0.0,0.0,3.3321,3.4124,3.4745,3.5282,3.4962,3.4641,3.461,3.4404,3.4272,3.4272,3.4019,3.3968,3.4171,3.4544,3.5027,3.5643,3.6224,3.661,3.6784,3.657,3.641,3.6248,3.6141,3.6025,3.6008,3.6133,0.0,3.6495,3.6918,3.7139,3.7139,3.7618,3.7573,3.7176,3.6536,3.593,3.5423,3.5224,3.5423,3.5891,3.6301,3.6719,3.7091,3.748,3.7345,3.7108,3.7593,3.781,3.7829,3.7829,3.806,0.0,3.8133,3.8262,3.8421,3.8473,3.8893,3.931,3.931,3.9929,4.0516,4.064,4.0564,4.069,4.139,4.1165,4.1067,4.167,4.211,4.2517,4.2807,4.2999,4.3231,4.3593,4.3444,4.35,4.3951,4.3892,4.3891,4.4075,4.3944,4.4104,4.4763,4.4981,4.537,4.6053,4.6465,4.6834,4.7197,4.7558,4.8237,4.9243,4.8857,4.916,5.0059,4.9338,4.9117,0.0,0.0,0.0,0.0,0.0,0.0,0.0,0.0,0.0,0.0,0.0,3.0495,3.1317,0.0,3.379,3.5006,3.5545,3.5966,3.6354,3.5951,3.5548,3.5395,3.5141,3.4937,3.4783,3.468,3.4578,3.4601,3.4929,3.5373,3.5968,3.6433,3.682,3.7089,3.6874,3.6712,3.6712,3.644,3.6332,3.6332,3.644,3.6495,3.6495,3.6928,3.6949,3.6791,3.7346,3.7278,3.6771,3.6354,3.6141,3.5999,3.5679,3.6002,3.6587,3.6597,3.6936,3.7508,3.8016,3.808,3.8123,3.876,3.8922,3.8834,3.8834,3.864,3.8421,3.8421,3.8421,3.8421,3.8421,3.8631,3.8841,3.8684,3.9233,3.9904,4.0185,4.0262,4.044,4.0997,4.0896,4.0795,4.1047,4.1547,4.2069,4.2609,4.3115,4.3519,4.3757,4.3976,4.4242,4.4607,4.4556,4.4574,4.492,4.484,4.5077,4.5741,4.5402,4.5645,4.6663,4.6579,4.6886,4.7717,4.8011,4.8691,4.9838,4.969,5.0134,5.1107,5.0953,5.0693,0.0,0.0,0.0,0.0,0.0,0.0,0.0,3.0367,3.1084,3.1151,3.1749,3.2507,3.3388,3.4424,3.5453,3.6463,3.6752,3.6915,3.7215,3.6606,3.6193,3.6391,3.601,3.5681,3.5422,3.537,3.5289,3.505,3.5366,3.5726,3.6054,3.6533,3.6874,3.7089,3.6874,3.6712,3.6712,3.644,3.6332,3.6332,3.6549,3.6603,3.6657,3.6928,3.6754,3.6362,3.6761,3.6614,3.6094,3.6094,3.6196,3.6296,3.5993,3.6362,3.7087,3.6877,3.7109,3.7721,3.8383,3.8605,3.8755,3.9667,3.977,3.9623,3.9677,3.9124,3.8526,3.8684,3.8526,3.8315,3.8315,3.8421,3.8421,3.8185,3.8764,3.944,3.9725,3.9955,4.0185,4.044,4.0415,4.0364,4.0389,4.0795,4.1474,4.2315,4.2991,4.3471,4.3519,4.4209,4.4723,4.4954,4.4924,4.5112,4.5636,4.5754,4.6057,4.6659,4.5747,4.5808,4.7084,4.6663,4.6899,4.7997,4.8349,4.9064,5.0181,5.0237,5.0782,5.1758,5.1758,5.1463,3.1332,3.0434,2.9736,3.0258,3.1344,3.2188,0.0,3.3219,3.4338,3.3301,3.3555,3.4211,3.5052,3.5173,3.5608,3.722,3.707,3.6986,3.7448,3.708,3.6987,3.7705,3.6896,3.632,3.6244,3.6034,3.5875,3.5746,3.5869,3.6047,3.6271,3.6773,3.7066,3.7089,3.6874,3.6712,3.6712,3.644,3.6332,3.6332,3.6332,3.6332,3.6332,3.6603,3.6486,3.6074,3.6356,3.6414,3.6349,3.6535,3.6378,3.5958,3.5922,3.6277,3.678,3.6727,3.7096,3.7613,3.7895,3.8005,3.8209,3.9283,3.9473,3.9331,3.9623,3.923,3.8736,3.8526,3.8238,3.8027,3.8027,3.8421,3.8736,3.8736,3.9362,4.0083,4.0338,4.0236,4.0185,4.044,4.0108,3.9852,4.0083,4.0389,4.0946,4.1993,4.2555,4.2991,4.3307,4.3784,4.4162,4.4443,4.4851,4.5338,4.5911,4.6298,4.6618,4.694,4.5902,4.5757,4.6919,4.6905,4.7169,4.7649,4.8631,4.9534,5.0435,5.0054,5.045,5.1536,5.1536,5.1659,3.2186,3.1625,3.1293,3.1252,3.2066,3.28,3.2575,3.3741,3.4787,3.4356,3.4628,3.5148,3.5694,3.5713,3.5916,3.6776,3.6697,3.6807,3.7494,3.7256,3.7092,3.7254,3.7035,3.6854,3.6791,3.6731,3.6494,3.6171,3.6279,3.6425,3.6526,3.6766,3.6928,3.7089,3.6712,3.6549,3.6712,3.644,3.6332,3.6332,3.6332,3.6332,3.6332,3.644,3.6379,3.6171,3.6161,3.6477,3.7037,3.7122,3.7014,3.6773,3.6447,3.6237,3.62,3.6168,3.6625,3.7356,3.7924,3.8554,3.9276,4.0419,4.0727,4.0646,4.0674,3.9964,3.9206,3.8757,3.8473,3.8282,3.8436,3.8532,3.8658,3.8972,3.956,4.0124,4.0389,4.052,4.0578,4.0719,4.0305,3.9944,4.0082,4.0032,4.044,4.1696,4.2164,4.2604,4.3211,4.3451,4.3832,4.449,4.5046,4.557,4.6065,4.6388,4.6725,4.7147,4.6346,4.6513,4.7824,4.7163,4.741,4.8734,4.8835,4.9353,5.0402,5.0192,5.0492,5.1162,5.1162,5.1312,3.2475,3.2292,3.2463,3.2076,3.2709,3.3452,3.3321,3.4285,3.5152,3.5082,3.5512,3.5896,3.6056,3.6309,3.6527,3.6628,3.6765,3.7019,3.7542,3.7481,3.732,3.6916,3.71,3.714,3.7045,3.6932,3.671,3.6309,3.6549,3.6657,3.6603,3.682,3.6982,3.6958,3.6688,3.6549,3.6603,3.6386,3.6332,3.6332,3.6332,3.6332,3.6309,3.6117,3.614,3.6286,3.5964,3.6441,3.7336,3.7336,3.7349,3.7298,3.6849,3.6398,3.5926,3.5869,3.6271,3.6937,3.8139,3.908,4.0054,4.1436,4.1749,4.1588,4.1464,4.0616,3.9614,3.9222,3.8965,3.8795,3.899,3.8923,3.8964,3.9323,3.9861,4.033,4.0602,4.0927,4.1096,4.0988,4.0548,4.0112,4.0129,3.9721,3.9878,4.1198,4.1547,4.2043,4.3067,4.3259,4.3594,4.4415,4.4908,4.5458,4.6106,4.6358,4.6756,4.7322,4.6736,4.6936,4.8203,4.7363,4.7583,4.9099,4.8977,4.9269,5.0089,5.0207,5.0473,5.0743,5.0858,5.0972,3.2275,3.2444,3.2909,3.2953,3.3778,3.4585,3.4289,3.5319,3.6213,3.5715,3.6207,3.6676,3.6456,3.7016,3.7502,3.7267,3.7667,3.7863,3.764,3.7794,3.7757,3.7252,3.7204,3.71,3.6835,3.6572,3.6414,3.6286,3.6549,3.6603,3.6332,3.7089,3.7328,3.6766,3.6958,3.6796,3.6332,3.6332,3.6332,3.6332,3.6332,3.6332,3.6254,3.5772,3.5818,3.6286,3.5726,3.6094,3.7035,3.7035,3.6996,3.6937,3.6879,3.6684,3.6365,3.6161,3.6117,3.641,3.8451,3.9306,3.9803,4.1833,4.1941,4.1355,4.1582,4.0912,3.9977,3.9977,3.9757,3.9561,3.9585,3.9782,3.9946,3.9946,4.0439,4.0952,4.1222,4.149,4.1625,4.1333,4.0639,4.0131,4.0106,3.9396,3.9206,4.0338,4.0542,4.1097,4.2679,4.3115,4.3499,4.3974,4.4256,4.4908,4.6135,4.6225,4.6624,4.7538,4.6991,4.6808,4.7323,4.7466,4.7741,4.8044,4.9068,4.9582,4.9653,5.0089,5.0317,5.0356,5.0705,5.0896,3.3493,3.3315,3.3216,3.3121,3.3816,3.4392,3.4161,3.5032,3.5688,3.5153,3.5426,3.5671,3.5376,3.5843,3.6249,3.6156,3.6584,3.716,3.7794,3.7617,3.7517,3.7685,3.7397,3.71,3.6811,3.6706,3.6655,3.6557,3.6657,3.6742,3.6759,3.6547,3.6579,3.687,3.6297,3.6168,3.6526,3.6168,3.6168,3.6526,3.6386,3.6332,3.6277,3.6438,3.6567,3.6782,3.6943,3.7425,3.8068,3.8068,3.7815,3.7372,3.7372,3.6796,3.5909,3.5846,3.6171,3.6781,3.7947,3.9054,4.0114,4.0641,4.1261,4.1692,4.109,4.0746,4.0463,4.0099,3.9946,3.9878,4.0098,4.017,4.0379,4.0717,4.1071,4.1408,4.1464,4.1744,4.1867,4.1604,4.0997,4.0542,4.0361,3.977,3.9628,4.0415,4.0946,4.1547,4.2289,4.2582,4.297,4.3451,4.3879,4.449,4.5384,4.5956,4.6491,4.7106,4.7242,4.7419,4.7756,4.7537,4.7794,4.8655,4.86,4.8894,4.9613,4.9773,5.001,5.0317,5.0589,5.0705,3.3768,3.3647,3.3727,3.3765,3.3921,3.4075,3.4098,3.4748,3.5081,3.4252,3.4673,3.504,3.4475,3.4969,3.5517,3.5567,3.6117,3.6884,3.7853,3.7853,3.7829,3.7974,3.7685,3.7344,3.6968,3.6968,3.6867,3.6719,3.6712,3.6757,3.7012,3.642,3.6374,3.6956,3.6278,3.6114,3.6549,3.6168,3.626,3.6827,3.6639,3.6553,3.6553,3.7081,3.7196,3.7002,3.7563,3.8091,3.8596,3.8596,3.8316,3.7887,3.7983,3.7426,3.6498,3.6378,3.6742,3.7369,3.7976,3.9116,4.0344,4.0626,4.1296,4.1793,4.1083,4.0908,4.0854,4.0515,4.0418,4.0459,4.0652,4.0691,4.0763,4.11,4.1402,4.1606,4.1606,4.1859,4.2044,4.1867,4.1286,4.0758,4.0525,3.9947,3.9708,4.0415,4.0946,4.1498,4.2043,4.2338,4.2706,4.3211,4.3642,4.4162,4.4879,4.5566,4.618,4.6756,4.7236,4.7581,4.7837,4.7707,4.809,4.9088,4.8852,4.9025,4.9747,4.9878,4.9993,5.005,5.0324,5.0512,3.3144,3.3568,3.4421,3.4684,3.423,3.3871,3.4287,3.4597,3.4468,3.3092,3.4046,3.4823,3.3778,3.4486,3.5292,3.5565,3.6275,3.7106,3.7921,3.8449,3.8593,3.8166,3.807,3.7853,3.7372,3.73,3.7125,3.682,3.6712,3.6835,3.7012,3.6772,3.678,3.7012,3.6749,3.6549,3.6332,3.6355,3.6553,3.6979,3.7002,3.7025,3.7025,3.7609,3.7563,3.7094,3.7655,3.816,3.8619,3.8619,3.8544,3.844,3.867,3.841,3.791,3.7635,3.7749,3.8053,3.8544,3.9353,4.035,4.1558,4.181,4.1582,4.1582,4.1378,4.1172,4.1172,4.1172,4.1172,4.1172,4.1172,4.1172,4.1172,4.1402,4.1606,4.1606,4.1859,4.2054,4.2054,4.1362,4.0769,4.0531,3.9869,3.9594,4.0364,4.0491,4.0896,4.1967,4.2338,4.2706,4.3211,4.3471,4.3899,4.4602,4.5184,4.5821,4.6535,4.7048,4.7396,4.7581,4.8049,4.8577,4.9219,4.9704,4.9915,4.9915,5.034,5.02,4.9613,5.005,5.0278,3.4477,3.471,3.5023,3.413,3.4944,3.5594,3.4135,3.4468,3.4675,3.3137,3.3475,3.3911,3.338,3.453,3.5534,3.5585,3.6407,3.7476,3.8728,3.8468,3.854,3.965,3.9196,3.883,3.9008,3.8647,3.8293,3.8003,3.7192,3.689,3.7368,3.6521,3.6342,3.6956,3.6388,3.6223,3.6603,3.6997,3.7142,3.6979,3.7425,3.7609,3.7609,3.8137,3.8321,3.8206,3.8711,3.8987,3.9124,3.9124,3.8957,3.867,3.8426,3.815,3.7988,3.7318,3.7479,3.8121,3.8505,3.9023,3.9645,4.0058,4.0692,4.1215,4.0829,4.0917,4.1172,4.1172,4.1172,4.1172,4.1172,4.1172,4.1172,4.1172,4.123,4.1287,4.1287,4.1344,4.1402,4.1402,4.1274,4.0992,4.0507,4.0486,4.0409,4.0236,4.0542,4.1097,4.1967,4.219,4.2387,4.2922,4.3375,4.3851,4.4415,4.511,4.573,4.6269,4.6756,4.7106,4.7396,4.7837,4.8183,4.8335,4.8756,4.8964,4.8964,4.9285,4.9478,4.9613,4.9892,5.001,3.5168,3.4981,3.5018,3.4851,3.5298,3.5357,3.3917,3.4078,3.3975,3.2138,3.2229,3.2601,3.252,3.3576,3.4692,3.5474,3.6168,3.7223,3.906,3.8689,3.8721,4.0057,3.9753,3.9435,3.9387,3.9101,3.8878,3.8713,3.7942,3.7543,3.7804,3.7008,3.6773,3.7356,3.6502,3.6283,3.6818,3.7349,3.7663,3.7724,3.7999,3.8137,3.816,3.8665,3.878,3.8619,3.9101,3.9308,3.9308,3.9308,3.9108,3.8744,3.8465,3.8478,3.8534,3.7743,3.7821,3.8403,3.8462,3.8813,3.921,3.9812,4.0578,4.1124,4.0836,4.0956,4.1172,4.1172,4.1172,4.1172,4.1172,4.1172,4.1172,4.1172,4.1081,4.0966,4.0966,4.1139,4.123,4.1344,4.1104,4.0825,4.0592,4.0533,4.0484,4.0466,4.0694,4.1147,4.1845,4.2043,4.2338,4.2825,4.3259,4.3614,4.404,4.4648,4.5276,4.5866,4.6358,4.6756,4.7106,4.7581,4.7988,4.8261,4.8602,4.8967,4.9328,4.9304,4.9471,4.9768,4.9779,4.9773,3.5494,3.4908,3.4864,3.6043,3.5437,3.437,3.3731,3.3507,3.2854,3.0779,3.0841,3.1294,3.1451,3.23,3.3459,3.5109,3.5678,3.6719,3.8901,3.884,3.8939,3.9812,3.9907,3.9718,3.9267,3.9204,3.9181,3.9181,3.8832,3.8516,3.8278,3.7804,3.7567,3.7678,3.6828,3.6576,3.6979,3.7609,3.8137,3.8596,3.8642,3.8688,3.8688,3.9101,3.9078,3.8711,3.9124,3.9308,3.9308,3.9308,3.9108,3.8826,3.8641,3.8872,3.918,3.8443,3.8462,3.8752,3.8596,3.8716,3.9108,4.0246,4.085,4.1139,4.1196,4.1172,4.1139,4.1196,4.1196,4.1115,4.1196,4.1244,4.1293,4.1293,4.1062,4.083,4.083,4.1071,4.1287,4.1492,4.1015,4.0587,4.0854,4.0471,4.0348,4.0772,4.0897,4.1147,4.1597,4.1918,4.2338,4.2825,4.3115,4.3403,4.3614,4.4115,4.4676,4.5367,4.5866,4.6358,4.68,4.7279,4.7809,4.8424,4.8715,4.9248,4.9957,4.9604,4.9539,4.9822,4.9612,4.9573,3.5883,3.5591,3.5759,3.6001,3.5713,3.4997,3.3865,3.3039,3.2062,3.0482,3.0581,3.0982,3.0982,3.2204,3.3361,3.3874,3.487,3.6202,3.787,3.8009,3.8514,0.0,3.9931,3.9849,4.0022,3.9645,3.941,3.941,3.9575,3.9306,3.8639,3.804,3.755,3.7173,3.6989,3.6943,3.6979,3.7976,3.8504,3.8596,3.8987,3.917,3.917,3.9262,3.9262,3.917,3.9262,3.9308,3.9308,3.9308,3.9249,3.918,3.878,3.8872,3.9239,3.8699,3.8638,3.8812,3.9072,3.9367,3.9638,3.9873,4.0305,4.085,4.1139,4.1024,4.0826,4.1115,4.1024,4.085,4.1139,4.1509,4.1846,4.1846,4.1612,4.1435,4.1705,4.1485,4.1172,4.123,4.1329,4.1371,4.1225,4.1121,4.0949,4.0608,4.0952,4.1248,4.1372,4.1769,4.2338,4.2825,4.3115,4.3451,4.3879,4.4209,4.4565,4.489,4.5549,4.6046,4.6314,4.6975,4.7412,4.7502,4.7976,4.8165,4.8041,4.8389,4.8622,4.883,4.9027,4.925,3.6005,3.5399,3.5036,3.5295,3.4849,3.4003,3.2804,3.201,3.1141,2.9814,2.9834,3.0124,3.0159,3.1549,3.2883,3.3532,3.4456,3.5781,3.7702,3.7725,3.8103,3.9581,3.9802,3.9861,3.9954,3.9628,3.9488,3.9662,3.9465,3.9267,3.9038,3.864,3.8181,3.7673,3.7757,3.7895,3.8042,3.8631,3.8964,3.8964,3.9193,3.9308,3.9308,3.9308,3.9308,3.9308,3.9308,3.9308,3.9308,3.9308,3.9308,3.9262,3.8582,3.8813,3.9462,3.8739,3.8807,3.9331,3.9226,3.9574,3.9989,3.9873,4.0363,4.1071,4.1509,4.1297,4.1119,4.1846,4.1489,4.1071,4.1509,4.1774,4.1918,4.1455,4.0974,4.0681,4.1033,4.0877,4.0769,4.1115,4.1287,4.1403,4.1484,4.1355,4.1235,4.1153,4.136,4.1498,4.1498,4.2092,4.2631,4.2873,4.3115,4.3403,4.3594,4.3879,4.4162,4.4565,4.5276,4.5776,4.6046,4.6712,4.7062,4.7062,4.7452,4.7804,4.8093,4.848,4.8779,4.8959,4.9356,4.946,3.586,3.4867,3.4004,3.4642,3.3724,3.2493,3.1754,3.0893,3.0017,2.9009,2.8964,2.9122,2.9316,3.0649,3.2094,3.3175,3.4035,3.5254,3.7424,3.7529,3.7815,3.9053,3.9485,0.0,3.9684,3.9426,3.9426,3.9684,3.9249,3.9183,3.9486,3.9173,3.8826,3.8431,3.8539,3.8689,3.8897,3.9173,3.9308,3.9308,3.9308,3.9308,3.9308,3.9308,3.9308,3.9308,3.9308,3.9308,3.9308,3.9308,3.9308,3.9203,3.8521,3.8857,3.9669,3.8814,3.903,3.9692,3.9424,3.9698,4.0165,4.0048,4.0608,4.1413,4.1701,4.1523,4.1475,4.2351,4.199,4.1427,4.2014,4.223,4.2123,4.1186,4.0599,4.0176,4.0118,4.0246,4.0479,4.1,4.1115,4.1338,4.1744,4.1429,4.126,4.162,4.1641,4.1647,4.1696,4.2435,4.297,4.297,4.3163,4.3307,4.3451,4.3519,4.3804,4.4256,4.5,4.5549,4.5776,4.6491,4.6844,4.6931,4.7149,4.7635,4.832,4.8776,4.9004,4.9054,4.9631,4.9605,3.5405,3.4339,3.3617,3.4568,3.2843,3.1073,3.1484,2.9991,2.847,2.8315,2.8096,2.814,2.8674,2.9852,3.1021,3.2006,3.3153,3.4598,3.6334,3.7016,3.7758,3.8757,0.0,0.0,3.9367,3.9308,3.9308,3.9367,3.9567,3.972,3.9732,3.9268,3.8965,3.8942,3.8724,3.8596,3.8631,3.9055,3.9308,3.9308,3.9308,3.9308,3.9308,3.9308,3.9308,3.9308,3.9308,3.9308,3.9308,3.9308,3.9308,3.9226,3.8885,3.9121,3.9575,3.9152,3.9273,3.9658,3.9862,4.0019,4.0223,4.0537,4.1219,4.1822,4.1389,4.1383,4.1566,4.1955,4.179,4.1685,4.2484,4.3024,4.3059,4.1992,4.1657,4.1302,4.0129,4.027,4.0653,4.0735,4.1024,4.1402,4.198,4.1403,4.1064,4.1603,4.1492,4.1398,4.1647,4.2631,4.3259,4.3259,4.3259,4.3451,4.3879,4.3709,4.3709,4.4021,4.4723,4.5276,4.5549,4.6225,4.6712,4.6931,4.7149,4.7339,4.7442,4.849,4.8706,4.8171,4.9236,4.9438,3.5356,3.4581,3.3764,3.3877,3.237,3.0773,3.0719,2.9286,2.7854,2.7577,2.7582,2.7661,2.7787,2.8836,3.0128,3.1423,3.2384,0.0,3.5334,3.6195,3.7041,3.7952,3.8557,3.8987,3.9285,3.9108,3.899,3.899,3.9485,3.9802,3.9802,3.9593,3.9477,3.9477,3.9185,3.915,3.9325,3.9334,3.9308,3.9308,3.9308,3.9308,3.9308,3.9308,3.9308,3.9308,3.9308,3.9308,3.9308,3.9308,3.9308,3.9249,3.893,3.8925,3.9092,3.8864,3.9198,3.9712,3.9711,4.0197,4.0769,4.0711,4.1301,4.1942,4.1725,4.1523,4.1526,4.258,4.2388,4.204,4.3,4.3024,4.2578,4.1942,4.1442,4.0781,3.9705,3.9954,4.0421,4.0421,4.0826,4.1402,4.1997,4.1836,4.1681,4.1889,4.2189,4.2219,4.1971,4.2728,4.3355,4.3471,4.3642,4.3689,4.3594,4.3737,4.3832,4.3757,4.4602,4.523,4.5504,4.6046,4.6535,4.6887,4.7019,4.7149,4.7309,4.8417,4.8675,4.8037,4.9174,4.9354,3.4894,3.446,3.3741,3.338,3.1961,3.0494,2.9989,2.8619,2.7373,2.7002,2.705,2.7163,2.7259,2.8232,2.9473,3.0992,0.0,3.3003,3.4615,3.5625,3.651,3.7305,3.8134,3.8711,3.9055,3.9039,3.893,3.893,3.9367,3.9684,3.9684,3.9684,3.9684,3.9802,3.9485,3.9426,3.9684,3.9426,3.9308,3.9308,3.9308,3.9308,3.9308,3.9308,3.9308,3.9308,3.9308,3.9216,3.9101,3.9239,3.9216,3.9043,3.8862,3.8843,3.8904,3.878,3.9115,3.962,3.9628,4.0197,4.0884,4.0735,4.1301,4.1966,4.1966,4.1701,4.1677,4.2928,4.3,4.2832,4.3577,4.3238,4.26,4.1966,4.1275,4.0532,3.9505,3.9755,4.0223,4.0223,4.0769,4.1402,4.1997,4.2121,4.2095,4.21,4.2475,4.2608,4.2145,4.2679,4.3211,4.3566,4.3832,4.3879,4.3546,4.3737,4.3804,4.3709,4.4771,4.543,4.5504,4.622,4.6668,4.6887,4.6975,4.7106,4.7309,4.8417,4.8766,4.8311,4.9438,4.962,3.3909,3.3693,3.3308,3.3284,3.1673,2.9965,2.9436,2.8065,2.686,2.6671,2.6444,2.6566,2.7334,2.8184,2.9166,3.068,3.1738,0.0,3.4316,3.5513,3.6398,0.0,3.7929,3.8596,3.8596,3.9033,3.9308,3.9308,3.9308,3.9308,3.9308,3.9308,3.9426,3.9802,3.9485,3.9308,3.9308,3.9308,3.9308,3.9308,3.9308,3.9308,3.9308,3.9308,3.9308,3.9308,3.9308,3.9033,3.8619,3.9101,3.9033,3.8642,3.8748,3.8927,3.9075,3.9075,3.9075,3.9196,3.9764,4.0078,4.0281,4.0595,4.1301,4.1966,4.1966,4.1966,4.2145,4.2675,4.3529,4.4261,4.4261,4.4075,4.3479,4.2131,4.1532,4.095,3.9574,3.9755,4.0223,4.0223,4.0769,4.1402,4.1997,4.2121,4.2095,4.21,4.2164,4.2205,4.2096,4.2338,4.2776,4.3519,4.3832,4.3974,4.3974,4.3757,4.3709,4.3974,4.5317,4.5888,4.5533,4.6794,4.7273,4.6887,4.7149,4.7309,4.7309,4.8417,4.9009,4.9009,5.0143,5.0328,3.1364,3.148,3.1553,3.1192,3.0429,2.9593,2.8923,2.8089,2.7196,2.6229,2.6329,2.6672,2.6971,2.756,2.8541,3.0171,3.1236,3.2263,0.0,0.0,0.0,3.6767,3.8202,3.9078,3.9078,3.9216,3.9308,3.9308,3.9308,3.9308,3.9308,3.9308,3.9367,3.9426,3.9367,3.9308,3.9308,3.9308,3.9308,3.9308,3.9308,3.9308,3.9308,3.9308,3.9124,3.8826,3.917,3.9033,3.8619,3.9101,3.9216,3.9078,3.9121,3.9021,3.8859,3.8859,3.9061,3.924,3.9478,3.9836,4.0352,4.1022,4.1435,4.1744,4.234,4.2578,4.2675,4.312,4.3794,4.4285,4.4285,4.4223,4.3845,4.2602,4.2277,4.1728,4.0223,4.0349,4.0646,4.0293,4.0769,4.1402,4.1997,4.2276,4.2329,4.2123,4.2449,4.2498,4.1928,4.219,4.2728,4.3355,4.3836,4.4346,4.4872,4.4967,4.5212,4.5537,4.6453,4.68,4.6425,4.6966,4.7168,4.6887,4.6975,4.7019,4.7019,4.8373,4.9426,5.0143,5.0531,5.0328,3.002,3.0182,3.0302,3.0374,2.9801,2.9068,2.857,2.8114,2.7411,2.63,2.6494,2.688,2.7039,2.7448,2.8342,2.9952,3.0743,3.1658,3.2896,3.4042,3.5358,3.7065,3.8296,3.9101,3.9285,3.9308,3.9308,3.9308,3.9308,3.9308,3.9308,3.9308,3.9308,3.9308,3.9308,3.9308,3.9308,3.9308,3.9308,3.9308,3.9308,3.9308,3.9285,3.9124,3.8872,3.8596,3.8688,3.855,0.0,3.8826,3.9033,3.9055,3.9239,3.9108,3.8812,3.893,3.9049,3.9108,3.9249,3.9718,4.0399,4.0964,4.1519,4.2245,4.3072,4.3216,4.312,4.3433,4.3914,4.4285,4.4285,4.4285,4.4017,4.29,4.2697,4.2292,4.0514,4.0642,4.1035,4.0492,4.0918,4.1516,4.2142,4.2481,4.2604,4.2483,4.2734,4.2786,4.2245,4.24,4.2728,4.3355,4.3733,4.4532,4.5844,4.5949,4.607,4.6417,4.73,4.7633,4.7155,4.7524,4.7611,4.7449,4.7181,4.7181,4.742,4.9008,5.0157,5.0936,5.1023,5.0851,0.0,2.9574,2.9412,3.0374,2.9508,2.845,2.845,2.8114,0.0,2.6766,2.6931,2.7219,2.7489,2.7824,2.8544,2.9952,3.0426,3.1178,3.2831,3.3854,3.5311,3.7496,3.8298,3.8803,3.9262,3.9308,3.9308,3.9308,3.9367,3.9367,3.9367,3.9367,3.9367,3.9367,3.9367,3.9308,3.9308,3.9308,3.9308,3.9308,3.9308,3.9308,3.9285,3.8803,3.8573,3.8504,3.8045,3.7816,3.7839,3.8413,3.8642,3.8688,3.9229,3.9154,3.8871,3.9213,3.9154,3.8871,3.9167,3.9808,4.0486,4.0555,4.1714,4.3184,4.3993,4.3925,4.3577,4.3516,4.3877,4.4285,4.4223,4.4285,4.4041,4.2924,4.2928,4.2583,4.062,4.0937,4.1365,4.0806,4.123,4.1826,4.24,4.2818,4.3008,4.2997,4.2967,4.2969,4.2977,4.2663,4.2776,4.3519,4.3669,4.4626,4.689,4.6639,4.6522,4.6849,4.7903,4.8297,4.7869,4.8307,4.8443,4.8208,4.7654,4.7684,4.8461,5.017,5.1135,5.1359,5.1686,5.1744,2.8006,0.0,2.8065,2.7897,2.799,2.8091,0.0,2.8114,2.8026,2.7052,2.7293,2.7743,2.7725,2.8355,2.915,3.0044,3.1008,3.1951,3.2752,3.4719,3.6409,3.736,3.848,3.9311,3.9661,3.9426,3.9426,3.9684,3.9684,3.9684,3.9684,3.9896,3.9896,3.9684,3.9684,3.9544,3.9308,3.9308,3.9308,3.9308,3.9308,3.9308,3.9285,3.8803,3.8367,3.7999,3.8275,3.816,3.7862,3.8757,3.9124,3.9193,3.9996,3.9831,3.9295,3.9983,3.9831,3.9167,3.9249,3.9689,4.0361,4.139,4.2559,4.366,4.3841,4.3979,4.4031,4.3512,4.3793,4.4161,4.3639,4.3912,4.4199,4.366,4.3574,4.3165,4.1396,4.1672,4.1979,4.089,4.1287,4.1953,4.2418,4.2818,4.3008,4.2997,4.2808,4.2684,4.2673,4.2415,4.2484,4.3307,4.4373,4.5525,4.6707,4.688,4.7404,4.8591,4.9135,4.9127,4.8537,4.8792,4.85,4.7476,4.7524,4.8358,5.0035,5.0683,5.1378,5.2062,5.2317,5.2206,2.7569,2.7089,2.6719,2.7289,2.7279,2.7303,2.8053,0.0,2.8114,2.8041,2.8035,2.8226,2.8772,2.9125,2.9621,3.0736,3.1302,3.2088,3.3198,3.5003,3.6577,3.7474,3.8539,3.9348,3.9779,3.972,3.9779,3.9954,3.9954,3.9954,3.9954,4.0013,3.9954,3.9802,3.9684,3.9485,3.9308,3.9308,3.9308,3.9308,3.9308,3.9193,3.8964,3.8459,3.793,3.7448,3.7747,3.7839,3.7862,3.8642,3.9101,3.9413,4.024,4.0125,3.9613,4.0478,4.0339,3.9743,3.9975,4.0615,4.1335,4.1932,4.2903,4.3692,4.3331,4.376,4.4161,4.3514,4.3576,4.3701,4.32,4.3451,4.3764,4.3639,4.3826,4.3612,4.2192,4.2362,4.2526,4.1969,4.1976,4.2336,4.2992,4.3025,4.3028,4.3165,4.3087,4.2891,4.2812,4.2714,4.278,4.3121,4.4028,4.5122,4.6389,4.688,4.7663,4.9022,4.9473,4.9524,4.9175,4.922,4.8887,4.8008,4.8411,4.9159,5.0288,5.0955,5.1562,5.22,5.2427,5.2424,2.7914,2.67,2.5877,2.7586,2.7306,2.7013,2.8733,2.8576,2.837,2.9261,2.8846,2.8723,3.0075,2.9875,3.0028,3.1506,3.1689,3.224,3.3937,3.5233,3.6405,3.7678,3.8585,3.9291,3.9814,4.0071,4.0223,4.0281,4.0281,4.0281,4.0281,4.013,3.9978,3.9861,3.9603,3.9367,3.9308,3.9308,3.9308,3.9308,3.9239,3.8987,3.8573,3.7953,3.7471,3.7094,3.7094,3.7448,3.7953,3.8481,3.8987,3.9528,4.0356,4.0406,4.0045,4.0927,4.0845,4.047,4.1069,4.1821,4.245,4.2118,4.2708,4.3426,4.2729,4.3289,4.4003,4.3428,4.3326,4.32,4.2822,4.3012,4.3326,4.3326,4.3826,4.4017,4.2938,4.2867,4.3031,4.3011,4.2729,4.2705,4.3529,4.3338,4.3129,4.3406,4.3416,4.3279,4.3049,4.3192,4.3206,4.2955,4.3362,4.4414,4.609,4.6773,4.7632,4.8823,4.9375,4.9717,4.9766,4.9538,4.9356,4.9172,4.9664,4.9978,5.0097,5.1116,5.1741,5.2002,5.2246,5.2442,2.8856,2.7717,2.6518,2.7784,2.8387,2.9018,3.0212,3.0204,3.0039,0.0,2.9498,2.9272,3.0566,3.0229,3.0261,3.178,3.2723,3.365,3.4766,3.6004,3.7071,3.7724,3.8932,3.9826,4.0106,4.0165,4.0305,4.0595,4.0619,4.0619,4.0619,4.0826,4.0711,4.0188,4.0106,3.9814,3.9308,3.9308,3.9308,3.9308,3.8895,3.8665,3.855,3.7586,3.7333,3.7678,3.7678,3.7976,3.8504,3.8987,3.9492,4.0057,4.0866,4.0967,4.0785,4.1906,4.1827,4.1247,4.2089,4.2248,4.2118,4.1807,4.2001,4.2335,4.2203,4.2682,4.3279,4.3333,4.3326,4.32,4.2546,4.2799,4.3326,4.3326,4.3826,4.4079,4.3184,4.3151,4.3112,4.2507,4.2544,4.2708,4.2946,4.3144,4.3351,4.3381,4.3416,4.3279,4.3049,4.3039,4.3007,4.2906,4.3627,4.4594,4.5881,4.668,4.7667,4.8852,4.9375,4.9766,5.0038,4.949,4.9581,5.0496,5.0109,5.0232,5.0986,5.1403,5.1741,5.2002,5.2246,5.2442,2.9032,2.8487,2.7791,2.8977,2.879,2.8593,2.9757,2.9622,2.9438,3.0025,2.9718,2.973,3.0879,3.1083,3.16,3.3264,3.3958,3.4698,3.604,3.6727,3.7534,3.8604,3.9426,4.008,4.0455,4.0653,4.0826,4.0966,4.0942,4.0942,4.0942,4.0942,4.0792,4.0479,4.0281,4.0013,3.9544,3.9567,3.937,3.8918,3.8688,3.8436,3.8137,3.7655,3.7563,3.7793,3.8091,3.8367,3.8619,3.9101,3.9607,4.0232,4.1224,4.135,4.1213,4.2117,4.2357,4.2282,4.2885,4.3047,4.2903,4.2149,4.2141,4.2257,4.1607,4.2192,4.3113,4.3165,4.2966,4.2673,4.2166,4.2252,4.257,4.2949,4.3514,4.3941,4.3788,4.366,4.3535,4.3368,4.3,4.2818,4.3247,4.3084,4.2961,4.3129,4.3288,4.3287,4.3016,4.3127,4.3293,4.3429,4.3922,4.4722,4.6057,4.6811,4.773,4.9001,4.9473,4.9815,5.0086,4.9794,4.9956,5.0585,5.0461,5.0572,5.0964,5.1246,5.1602,5.2002,5.2109,5.2337,2.9333,2.9227,2.9074,3.0328,2.9671,2.8985,2.9988,2.9851,2.9776,3.0712,3.0535,3.0596,3.1728,3.2486,3.3332,3.4628,3.5121,3.5827,3.7167,3.7449,3.8068,3.9329,3.9817,4.0226,4.0629,4.0942,4.1139,4.1172,4.1172,4.1172,4.1172,4.0966,4.0792,4.0735,4.0479,4.013,3.9802,3.9686,3.9256,3.8596,3.8596,3.8298,3.7793,3.7793,3.7862,3.7999,3.8413,3.8642,3.878,3.9147,3.9735,4.0454,4.1247,4.1611,4.1821,4.2333,4.2838,4.333,4.3514,4.3593,4.3482,4.2343,4.2141,4.2071,4.1138,4.173,4.2782,4.3085,4.2771,4.2356,4.1975,4.2038,4.2252,4.2633,4.3326,4.4013,4.4223,4.4013,4.3864,4.4113,4.3492,4.3048,4.3549,4.3111,4.2768,4.305,4.326,4.3314,4.3025,4.3388,4.3674,4.3877,4.4134,4.4897,4.627,4.7169,4.8049,4.9128,4.9551,4.9815,5.0086,5.0135,5.0327,5.0596,5.0775,5.0917,5.0917,5.1105,5.1463,5.2002,5.2002,5.2276,3.0139,3.008,3.024,3.1301,3.2006,3.2475,3.2593,3.2902,3.3283,3.3795,3.2714,3.2154,3.3559,3.4654,3.5224,3.4843,3.6038,3.719,3.7778,3.8272,3.8789,3.9423,3.9894,4.0316,4.0653,4.0735,4.085,4.1196,4.1172,4.1172,4.1172,4.1196,4.1,4.0735,4.0677,4.0386,3.9802,3.9314,3.8885,3.8596,3.8596,3.8298,3.7793,3.7793,3.8045,3.8527,3.8573,3.8849,3.9262,3.9285,4.0061,4.1182,4.0984,4.1808,4.3146,4.3208,4.3606,4.4151,4.3879,4.3591,4.3169,4.1992,4.1456,4.1206,4.1137,4.1348,4.1923,4.3013,4.3051,4.2696,4.2356,4.2736,4.3075,4.2483,4.3326,4.4285,4.4285,4.4013,4.3802,4.3802,4.362,4.3444,4.3505,4.336,4.3283,4.3283,4.3344,4.3314,4.3025,4.3753,4.415,4.3826,4.4334,4.5161,4.6298,4.7863,4.8802,4.8909,4.9424,4.9815,5.0086,5.0357,5.0567,5.0775,5.1011,5.1182,5.1182,5.1182,5.1463,5.2002,5.2002,5.2276,3.1351,3.1041,3.0958,3.2173,3.3053,3.3471,3.2904,3.2807,3.2885,3.3183,3.3345,3.3727,3.4807,3.521,3.5547,3.618,3.6796,3.7607,3.8799,3.9133,3.9586,4.0445,4.0707,4.0884,4.1024,4.1024,4.1057,4.1196,4.1172,4.1172,4.1172,4.1172,4.1139,4.1024,4.1024,4.0711,4.0071,3.9861,3.9372,3.8573,3.8252,3.7976,3.7793,3.8137,3.855,3.9033,3.9033,3.9007,3.899,3.9226,3.9662,4.0289,4.1053,4.2031,4.3012,4.32,4.3451,4.3701,4.374,4.3576,4.3153,4.2339,4.1645,4.1017,4.0806,4.0995,4.1502,4.2288,4.2818,4.3075,4.2925,4.2799,4.2736,4.2862,4.3326,4.3764,4.4223,4.4223,4.4075,4.3826,4.3644,4.3468,4.3492,4.3079,4.2815,4.3012,4.2917,4.2942,4.3212,4.3558,4.4018,4.4863,4.5777,4.6503,4.6929,4.8016,4.8731,4.8909,4.9375,4.9717,4.9844,5.0279,5.0548,5.0614,5.0822,5.1011,5.1229,5.0899,5.1088,5.1741,5.1741,5.2017,3.1687,3.1564,3.1733,3.2786,3.3555,3.4033,3.3991,3.373,3.3546,3.3871,3.4477,3.513,3.5711,3.599,3.6329,3.7063,3.7613,3.8334,3.9465,3.9753,4.0186,4.1076,4.1115,4.1057,4.1196,4.1283,4.1321,4.1437,4.1437,4.1437,4.1437,4.1268,4.1172,4.1172,4.1172,4.0884,4.0223,4.0082,3.9534,3.8573,3.8206,3.8045,3.8045,3.8573,3.8928,3.9108,3.9108,3.893,3.8693,3.899,3.9519,4.0289,4.1483,4.2395,4.3012,4.32,4.3389,4.3514,4.374,4.3615,4.3365,4.2799,4.2023,4.1244,4.0968,4.0968,4.1117,4.1788,4.2544,4.32,4.3389,4.3114,4.2799,4.2925,4.324,4.3576,4.3888,4.4161,4.4223,4.4013,4.3849,4.377,4.3732,4.3143,4.2735,4.2993,4.27,4.2681,4.324,4.346,4.4089,4.5449,4.6455,4.7081,4.7288,4.7953,4.8481,4.876,4.9305,4.962,4.9717,5.0135,5.0357,5.0357,5.0614,5.0805,5.0994,5.0644,5.0805,5.1509,5.1572,5.1849,3.1055,3.1441,3.2698,3.3198,3.3626,3.4401,3.6269,3.6256,3.5943,3.649,3.6493,3.6383,3.6335,3.7246,3.7824,3.7308,3.8551,3.9609,3.9609,4.0066,4.0595,4.1124,4.0908,4.085,4.1196,4.1386,4.1613,4.199,4.1966,4.1966,4.1966,4.1485,4.1172,4.1172,4.1172,4.0884,4.0223,3.9753,3.9208,3.8596,3.8596,3.8596,3.8596,3.9078,3.9108,3.8812,3.8812,3.8633,3.844,3.8693,3.9762,4.1405,4.2427,4.3012,4.3326,4.3326,4.349,4.3802,4.3802,4.3802,4.374,4.3389,4.2633,4.1806,4.1806,4.1357,4.0971,4.1614,4.2316,4.2949,4.3615,4.3802,4.3553,4.2546,4.3051,4.3678,4.3389,4.3826,4.4285,4.4285,4.4285,4.4285,4.4285,4.3723,4.3176,4.3176,4.2774,4.265,4.2986,4.3543,4.4313,4.5502,4.606,4.6637,4.7236,4.7773,4.8229,4.8481,4.9009,4.9404,4.9669,4.999,5.0086,5.0086,5.0357,5.0501,5.0501,5.0501,5.071,5.1229,5.1479,5.1849,3.2304,3.244,3.3435,3.3895,3.4431,3.533,3.7095,3.6694,3.6142,3.6836,3.6978,3.7089,3.7419,3.7761,3.8093,3.8268,3.8743,3.932,4.0066,4.0282,4.0595,4.1124,4.1115,4.1225,4.1701,4.1835,4.2075,4.2554,4.2182,4.1966,4.1966,4.1287,4.0966,4.1196,4.0942,4.0653,4.0223,4.0082,3.9663,3.9078,3.9078,3.8918,3.8596,3.9078,3.9108,3.8812,3.9049,3.8716,3.8081,3.8716,3.9658,4.0685,4.1598,4.2206,4.2656,4.2886,4.3137,4.3451,4.3451,4.3615,4.3701,4.3137,4.2443,4.1742,4.1486,4.0971,4.0647,4.155,4.2102,4.2673,4.3553,4.3802,4.3678,4.3114,4.3428,4.3678,4.3389,4.4013,4.4594,4.4347,4.447,4.4594,4.4347,4.3518,4.2938,4.2938,4.2485,4.2481,4.3184,4.3958,4.4694,4.5234,4.5954,4.6637,4.7236,4.7596,4.8004,4.8481,4.8859,4.9157,4.9404,4.9844,5.0183,5.0405,5.0279,5.0375,5.0728,5.0202,5.025,5.0917,5.1011,5.1339,3.2343,3.2667,3.3778,3.4199,3.5299,3.6604,3.8024,3.7684,3.7248,3.7686,3.7839,3.8016,3.8536,3.8625,3.8806,3.9393,3.9461,3.9713,4.0451,4.0628,4.0836,4.1148,4.1172,4.1389,4.1976,4.2217,4.2482,4.2795,4.2412,4.2064,4.199,4.1195,4.0792,4.1,4.0792,4.0503,4.0071,4.0013,3.9779,3.9308,3.9308,3.9147,3.8872,3.917,3.9072,3.8656,3.8574,3.8298,3.7983,3.8653,3.9437,4.0327,4.1119,4.1765,4.2229,4.2627,4.3012,4.3326,4.3451,4.3701,4.395,4.3514,4.2759,4.1975,4.1742,4.1035,4.0474,4.1229,4.1847,4.2483,4.3177,4.3701,4.3826,4.3263,4.3389,4.349,4.32,4.3888,4.457,4.4532,4.4656,4.4717,4.4532,4.3518,4.2819,4.2819,4.2394,4.2369,4.3129,4.3903,4.4476,4.4802,4.5609,4.6376,4.7081,4.7391,4.775,4.8308,4.8581,4.8859,4.9108,4.9649,5.0086,5.0357,5.0183,5.0231,5.0537,5.0183,5.0279,5.068,5.087,5.1349,3.164,3.2435,3.3904,3.4402,3.6243,3.8103,3.8938,3.9025,3.886,3.8768,3.8843,3.9094,3.9519,3.9625,3.9795,4.0439,4.0456,4.0515,4.0821,4.1031,4.1172,4.1172,4.1172,4.1413,4.2049,4.2506,4.2795,4.2891,4.2496,4.2174,4.199,4.1195,4.0735,4.0735,4.0677,4.0386,3.9861,3.9802,3.9626,3.9308,3.9308,3.9308,3.9308,3.9249,3.8953,3.838,3.7698,3.7577,3.7923,3.8409,3.9158,4.0097,4.0773,4.1473,4.2125,4.2527,4.2965,4.3326,4.3615,4.4013,4.4285,4.4285,4.3451,4.2356,4.2293,4.1421,4.0474,4.0777,4.1527,4.2356,4.2759,4.3576,4.4037,4.3137,4.3137,4.3263,4.2886,4.3615,4.4484,4.4779,4.484,4.484,4.4779,4.3748,4.2867,4.2831,4.2403,4.2337,4.293,4.3543,4.401,4.4258,4.5072,4.5928,4.6769,4.7133,4.7494,4.8032,4.8358,4.8631,4.8909,4.9375,4.9815,5.0135,5.0086,5.0135,5.0183,5.0405,5.0501,5.0548,5.0947,5.1653,3.2176,3.3127,3.4774,3.595,3.7971,3.9514,3.931,3.9522,3.95,3.8341,3.8843,3.9594,3.9671,3.9632,3.9864,4.0599,4.0531,4.0604,4.107,4.1157,4.1172,4.1172,4.1172,4.1557,4.2554,4.2386,4.2471,4.3289,4.2532,4.2027,4.1966,4.1195,4.085,4.1057,4.0595,4.0223,4.013,3.9919,3.9626,3.9308,3.9308,3.9308,3.9308,3.9049,3.8716,3.838,3.7698,3.7577,3.7923,3.8387,3.8892,3.9386,4.0179,4.0966,4.1706,4.1821,4.2474,4.3326,4.3365,4.3826,4.4285,4.4285,4.3764,4.2988,4.2483,4.1742,4.1122,4.1164,4.1742,4.242,4.3075,4.3764,4.4161,4.3701,4.3826,4.3826,4.3012,4.4013,4.5025,4.484,4.5025,4.5086,4.484,4.3977,4.3252,4.2925,4.2414,4.2337,4.293,4.3543,4.401,4.4258,4.5072,4.5875,4.6428,4.6977,4.7442,4.7778,4.8258,4.8631,4.8909,4.9207,4.9698,5.0405,5.0183,5.0279,5.068,5.0519,5.0567,5.0728,5.087,5.1101,3.1897,3.2935,3.4578,3.6647,3.8101,3.9164,3.942,3.9702,3.9675,3.8944,3.9496,4.0145,4.0454,4.0537,4.0849,4.1496,4.1249,4.1087,4.1353,4.1287,4.1172,4.1172,4.1172,4.1605,4.2723,4.2338,4.2303,4.3096,4.2304,4.1753,4.1605,4.1051,4.0711,4.0711,4.0397,4.0048,3.9755,3.9603,3.9485,3.9308,3.9308,3.9249,3.9049,3.8871,3.8633,3.838,3.7878,3.7637,3.7698,3.794,3.8232,3.8602,3.9399,4.0127,4.0731,4.1335,4.2179,4.2997,4.3232,4.3764,4.4285,4.4285,4.3826,4.32,4.2673,4.2061,4.1486,4.138,4.1806,4.242,4.2949,4.3576,4.4013,4.3826,4.395,4.3888,4.3389,4.4075,4.4816,4.4779,4.4963,4.5025,4.484,4.3856,4.3119,4.2904,4.2454,4.2256,4.2681,4.3432,4.3874,4.3848,4.4776,4.5662,4.6165,4.6585,4.7133,4.7647,4.7953,4.8358,4.8909,4.9058,4.9502,5.0279,5.0309,5.0423,5.0662,5.0757,5.0852,5.0793,5.0917,5.1237,3.1291,3.2688,3.4408,3.6741,3.7734,3.8362,3.9089,3.9424,3.9546,3.9546,4.0074,4.0676,4.1175,4.1509,4.1892,4.2326,4.1948,4.1606,4.1549,4.1344,4.1172,4.1172,4.1172,4.1557,4.2602,4.2217,4.2062,4.2651,4.1899,4.1362,4.1196,4.0966,4.0653,4.0397,4.0281,3.9931,3.9485,3.9367,3.9308,3.9308,3.9308,3.9167,3.8871,3.8871,3.8716,3.838,3.7998,3.7698,3.7495,3.7435,3.7616,3.7983,3.8685,3.9212,3.9757,4.0975,4.1947,4.2582,4.3013,4.3639,4.4223,4.4223,4.3888,4.3389,4.3012,4.2374,4.1797,4.1437,4.1665,4.2126,4.266,4.3185,4.3707,4.3864,4.3888,4.3888,4.3802,4.4113,4.4508,4.4779,4.4779,4.4779,4.4779,4.3699,4.2853,4.2944,4.2446,4.2142,4.2425,4.3265,4.3708,4.3462,4.445,4.5341,4.5901,4.6218,4.6742,4.7545,4.7647,4.8055,4.881,4.8909,4.9256,4.9941,5.0397,5.0677,5.0725,5.1173,5.1285,5.1018,5.1165,5.1498,3.0745,3.3264,3.5921,3.6276,3.7548,3.8477,3.7682,3.8315,3.902,3.902,3.9798,4.0676,4.1175,4.1509,4.1781,4.2125,4.1859,4.1492,4.1287,4.123,4.1172,4.1172,4.1172,4.1413,4.2073,4.1605,4.1509,4.2097,4.1581,4.1268,4.1196,4.1172,4.1115,4.1057,4.0513,4.0165,4.0106,3.9544,3.9308,3.9308,3.9308,3.9308,3.9249,3.9249,3.8953,3.838,3.7758,3.7637,3.7818,3.7495,3.7616,3.7938,3.8328,3.898,3.9712,4.0586,4.1438,4.225,4.2699,4.3326,4.3888,4.3888,4.4013,4.4037,4.3451,4.2685,4.1962,4.1673,4.1289,4.1245,4.2327,4.2914,4.3341,4.4041,4.4223,4.4161,4.3864,4.4323,4.4779,4.4779,4.4779,4.4779,4.4779,4.3699,4.2855,4.3138,4.2576,4.211,4.2167,4.2905,4.3462,4.3381,4.4232,4.4992,4.5582,4.6112,4.6637,4.7288,4.7545,4.7953,4.8531,4.881,4.9058,4.9404,5.0691,5.1423,5.1617,5.1924,5.2067,5.1989,5.1421,5.1259,3.0453,3.2607,3.4656,3.5417,3.6527,3.74,3.7258,3.8065,3.8919,3.8919,3.9747,4.0676,4.1175,4.1758,4.2128,4.2118,4.1802,4.1492,4.123,4.1172,4.1172,4.1172,4.1172,4.1389,4.1976,4.1485,4.1413,4.1942,4.1485,4.1172,4.1172,4.1172,4.1115,4.0966,4.0455,4.0106,3.9954,3.9544,3.9308,3.9308,3.9308,3.9308,3.9308,3.8953,3.8679,3.838,3.8058,3.7818,3.7637,3.7698,3.7637,3.7698,3.8358,3.8732,3.9062,4.0022,4.0953,4.1707,4.2218,4.3005,4.3802,4.3802,4.4013,4.4223,4.3764,4.2888,4.2056,4.1932,4.1152,4.0585,4.1836,4.2461,4.2966,4.3695,4.4229,4.447,4.4137,4.4137,4.4323,4.4508,4.4508,4.4594,4.4779,4.388,4.3192,4.3225,4.2696,4.2143,4.1826,4.2625,4.3184,4.3184,4.3958,4.4802,4.5555,4.5795,4.6485,4.7733,4.7917,4.8471,4.9529,4.9472,4.9524,4.9803,5.0554,5.1139,5.1639,5.2025,5.2187,5.2187,5.2276,5.2127,3.0305,3.163,3.2827,3.435,3.5355,3.6081,3.6634,3.7638,3.8542,3.8617,3.9546,4.0475,4.0974,4.1688,4.2059,4.1749,4.1499,4.1314,4.132,4.1369,4.1441,4.1765,4.1692,4.1765,4.2176,4.1716,4.1571,4.1982,4.1644,4.1474,4.1619,4.1417,4.1244,4.1157,4.0526,4.013,3.9919,3.9485,3.9308,3.9308,3.9226,3.919,3.919,3.8679,3.838,3.8261,3.8261,3.7998,3.7555,3.7818,3.7698,3.7495,3.8335,3.8596,3.8545,3.9702,4.0477,4.1051,4.1561,4.2444,4.3364,4.3364,4.3707,4.4137,4.3888,4.3042,4.2178,4.2178,4.1099,4.0236,4.1405,4.2107,4.2692,4.3359,4.4122,4.4594,4.4285,4.4013,4.4013,4.4237,4.4385,4.4532,4.4902,4.4196,4.3566,4.3443,4.2846,4.2263,4.1759,4.2453,4.2969,4.2874,4.37,4.4632,4.5448,4.5555,4.6329,4.8014,4.8147,4.8792,5.0142,5.0081,5.0131,5.0334,5.067,5.1101,5.1522,5.2126,5.2456,5.2456,5.2965,5.2905,3.0169,3.0726,3.1216,3.3266,3.428,3.4951,3.5458,3.6483,3.7412,3.7939,3.8944,3.9898,4.045,4.0974,4.1214,4.0695,4.0586,4.082,4.1542,4.1688,4.2135,4.3404,4.3109,4.2815,4.2839,4.2373,4.2054,4.2078,4.2078,4.2274,4.279,4.2013,4.1849,4.2384,4.0949,4.0165,4.0165,3.9579,3.9308,3.9308,3.899,3.8812,3.8812,3.8537,3.8261,3.7938,3.7938,3.7878,3.7878,3.7878,3.7698,3.7435,3.8118,3.844,3.8545,3.9702,4.0126,4.0218,4.0686,4.1438,4.2226,4.2226,4.2926,4.3802,4.3802,4.3113,4.2268,4.2268,4.1271,4.0376,4.1283,4.1924,4.2507,4.3348,4.3938,4.4223,4.3888,4.4075,4.4285,4.4299,4.457,4.4902,4.5208,4.4561,4.3989,4.3965,4.3065,4.2292,4.2059,4.2525,4.2848,4.2587,4.3526,4.4468,4.5179,4.5448,4.6222,4.7749,4.8041,4.8634,4.9509,5.0299,5.0766,5.0766,5.1527,5.1786,5.1522,5.2602,5.3144,5.3144,5.3174,5.3174,2.9548,2.9948,3.073,3.2819,3.35,3.3997,3.5207,3.6132,3.6958,3.7814,3.8617,3.932,3.9898,4.0567,4.0952,4.0789,4.0409,4.0514,4.1303,4.1289,4.1501,4.2577,4.2504,4.2405,4.2405,4.2209,4.211,4.211,4.211,4.2217,4.2559,4.2272,4.2302,4.2684,4.1923,4.1069,4.0148,3.973,3.9212,3.8738,3.8596,3.8537,3.8537,3.8238,3.7998,3.7878,3.7878,3.7758,3.7616,3.7818,3.7698,3.7495,3.8335,3.8537,3.8522,3.9277,3.9997,4.0571,4.0755,4.1538,4.2544,4.2544,4.3099,4.3802,4.3802,4.3018,4.2221,4.2255,4.1101,4.0006,4.081,4.1638,4.2651,4.4025,4.4326,4.4223,4.3888,4.3864,4.4013,4.3989,4.4446,4.4902,4.527,4.4854,4.4427,4.4038,4.3493,4.2831,4.2121,4.2808,4.3333,4.3052,4.3916,4.4755,4.5378,4.5553,4.633,4.8028,4.8512,4.9328,5.068,5.1148,5.1371,5.1371,5.1817,5.195,5.1815,5.2595,5.293,5.296,5.3525,5.3832,2.9102,2.9237,2.9859,3.1593,3.224,3.2893,3.4374,3.5429,3.6358,3.7262,3.8065,3.8743,3.932,4.0017,4.0458,4.0404,3.9922,4.0025,4.1176,4.1107,4.1426,4.2643,4.2708,4.2641,4.2641,4.2492,4.2369,4.2369,4.2369,4.2502,4.2732,4.2641,4.2618,4.2616,4.228,4.1563,4.0246,3.9945,3.9333,3.8537,3.844,3.832,3.8201,3.7878,3.7758,3.7758,3.7758,3.7637,3.7435,3.7758,3.7698,3.7495,3.8335,3.8537,3.85,3.9072,3.9721,4.0341,4.0502,4.1245,4.2147,4.2458,4.2997,4.349,4.374,4.3074,4.2295,4.2637,4.1479,4.0356,4.0951,4.1792,4.2772,4.3927,4.4288,4.4223,4.3888,4.3888,4.395,4.3802,4.4446,4.5025,4.527,4.5208,4.4964,4.4512,4.399,4.3385,4.2567,4.3165,4.3521,4.3275,4.4184,4.4903,4.5248,4.5647,4.6514,4.8028,4.8763,4.9748,5.1155,5.1584,5.1839,5.2052,5.2249,5.2289,5.2209,5.2605,5.2902,5.3139,5.3834,5.4341,0.0,0.0,0.0,2.958,3.0583,3.1662,3.286,3.4324,3.5583,3.6279,3.7211,3.814,3.8793,3.9295,3.962,3.9337,3.905,3.9406,4.1029,4.1281,4.1984,4.3904,4.3919,4.3765,4.374,4.3288,4.2986,4.2986,4.2986,4.3125,4.3333,4.3119,4.2749,4.2388,4.2026,4.1429,4.0652,4.0269,3.9694,3.8812,3.8477,3.8201,3.7878,3.7555,3.7374,3.7374,3.7374,3.7374,3.7435,3.7758,3.7698,3.7435,3.8118,3.838,3.85,3.9072,3.9331,3.9423,3.9905,4.0433,4.1,4.1855,4.2427,4.2949,4.3553,4.3198,4.2673,4.3323,4.2568,4.1602,4.1931,4.2375,4.282,4.3068,4.3716,4.4223,4.395,4.4075,4.4223,4.3888,4.4631,4.5331,4.5331,4.5574,4.5696,4.5392,4.4561,4.3893,4.3566,4.3529,4.3458,4.3273,4.4235,4.4819,4.4628,4.5715,4.6784,4.7725,4.8595,4.9608,5.0823,5.1458,5.2059,5.268,5.2947,5.2924,5.2601,5.2741,5.3169,5.3793,5.4072,5.4581,2.9343,0.0,0.0,0.0,0.0,0.0,3.2742,3.342,3.4248,3.6053,3.6656,3.7111,3.8065,3.8718,3.9094,3.9044,3.9113,3.9504,4.0586,4.0873,4.1295,4.2043,4.2755,4.3062,4.2715,4.2891,4.2986,4.2986,4.2986,4.2987,4.3045,4.3222,4.3458,4.3767,4.3213,4.2295,4.1103,4.0533,3.9674,3.8477,3.8178,3.7998,3.7878,3.7555,3.7374,3.7374,3.7374,3.7374,3.7374,3.7495,3.7495,3.7435,3.7878,3.8201,3.844,3.8834,3.9588,4.0433,4.0548,4.1191,4.1948,4.2149,4.2643,4.32,4.3365,4.3458,4.3455,4.3503,4.307,4.2518,4.2281,4.2544,4.2904,4.3372,4.4268,4.5025,4.4878,4.4963,4.484,4.4237,4.4939,4.5635,4.5635,4.5757,4.5757,4.5696,4.5061,4.439,4.3917,4.4171,4.4281,4.3843,4.4456,4.4967,4.517,4.5725,4.6434,4.7415,4.8476,4.9442,5.0208,5.1238,5.1896,5.2059,5.2734,5.302,5.2953,5.2939,5.3112,5.3541,5.4499,5.5029,0.0,0.0,0.0,0.0,0.0,0.0,3.1712,3.2591,3.3539,3.5072,3.5927,3.6606,3.7211,3.7965,3.8517,3.8517,3.8667,3.9141,4.0165,4.0458,4.0703,4.1089,4.1798,4.2258,4.2213,4.2489,4.2791,4.2961,4.2986,4.3056,4.3217,4.3552,4.3892,4.4261,4.3639,4.2802,4.1883,4.0977,3.9984,3.8912,3.8447,3.8238,3.8118,3.7758,3.7616,3.7616,3.7435,3.7374,3.7374,3.7374,3.7374,3.7435,3.7758,3.8118,3.844,3.8693,3.9354,4.0249,4.0663,4.1214,4.1765,4.2328,4.2759,4.3137,4.3428,4.3553,4.363,4.3631,4.3102,4.237,4.191,4.2174,4.2652,4.3,4.4099,4.5196,4.554,4.5712,4.5601,4.4865,4.5306,4.5817,4.5817,4.5817,4.5817,4.5817,4.5208,4.4719,4.4378,4.4499,4.4473,4.4135,4.4597,4.4921,4.5176,4.5875,4.663,4.7481,4.8516,4.9432,5.0179,5.1017,5.1568,5.1787,5.2411,5.2841,5.3107,5.2995,5.304,5.3207,5.4559,5.5029,0.0,0.0,0.0,0.0,2.8734,0.0,3.0306,3.1754,3.3036,3.3671,3.5022,3.6078,3.6204,3.7084,3.7788,3.7739,3.7789,3.8291,3.9686,3.9907,4.0106,4.0529,4.0968,4.143,4.1986,4.2137,4.2439,4.2936,4.3037,4.328,4.3816,4.3926,4.4135,4.4323,4.3701,4.3091,4.2597,4.1445,4.0449,3.9643,3.9061,3.8656,3.838,3.7998,3.7818,3.7818,3.7555,3.7435,3.7435,3.7435,3.7435,3.7435,3.7758,3.8058,3.844,3.8633,3.9035,3.9455,4.041,4.0739,4.1053,4.2263,4.2713,4.2886,4.349,4.349,4.3365,4.3606,4.2796,4.168,4.108,4.1531,4.2209,4.2293,4.3566,4.5012,4.597,4.6427,4.6452,4.5662,4.5759,4.5953,4.5903,4.5878,4.5878,4.5878,4.527,4.484,4.484,4.4532,4.4285,4.4285,4.4594,4.4829,4.4918,4.6034,4.7,4.767,4.8603,4.9469,5.0346,5.0655,5.1128,5.1677,5.2059,5.2519,5.3107,5.3076,5.3002,5.3001,5.449,5.488,0.0,0.0,0.0,2.8715,2.9286,0.0,2.9982,3.0651,3.1691,3.2986,3.3669,3.4193,3.4921,3.5718,3.6218,3.6031,3.6383,3.7111,3.8266,3.8843,3.8993,3.8592,3.9796,4.0727,4.0827,4.163,4.2439,4.2936,4.3187,4.3738,4.468,4.4241,4.4196,4.4693,4.4075,4.3316,4.2597,4.169,4.0791,3.9983,3.8964,3.844,3.838,3.7758,3.7495,3.7495,3.7698,3.7818,3.7818,3.7818,3.7616,3.7374,3.7435,3.7878,3.844,3.844,3.8927,3.959,4.0074,4.0571,4.1154,4.165,4.2246,4.2822,4.2949,4.3326,4.3606,4.2994,4.2329,4.156,4.0542,4.095,4.1793,4.2197,4.3457,4.4913,4.6229,4.6761,4.6984,4.6997,4.691,4.6706,4.6255,4.618,4.618,4.618,4.5635,4.5208,4.5208,4.4656,4.4285,4.4285,4.4347,4.4607,4.5159,4.596,4.6679,4.7287,4.8469,4.9183,4.9354,5.015,5.0711,5.1072,5.2059,5.2787,5.3107,5.3721,5.3987,5.4052,5.4857,5.5119,3.0792,3.0407,3.0091,2.9277,2.9523,0.0,0.0,3.0441,3.1149,3.2055,3.2525,3.3021,3.379,3.4438,3.4962,3.5102,3.5353,3.573,3.6282,3.7337,3.8015,3.8015,3.8743,3.9496,4.0049,4.0601,4.1505,4.2886,4.3651,4.4303,4.4948,4.4765,4.4671,4.484,4.4137,4.3621,4.3198,4.2186,4.1344,4.0676,3.9688,3.9024,3.8596,3.8118,3.7818,3.7698,3.7818,3.7818,3.7698,3.7818,3.7698,3.7374,3.7374,3.7698,3.8141,3.8141,3.8537,3.9108,3.9886,4.0387,4.0848,4.1662,4.2322,4.2822,4.2822,4.2949,4.2934,4.2506,4.1622,4.0755,4.0479,4.0834,4.1503,4.279,4.3999,4.5293,4.7046,4.7359,4.7396,4.8008,4.7433,4.6809,4.6534,4.6259,4.612,4.624,4.5757,4.5331,4.5331,4.484,4.447,4.4347,4.4285,4.4594,4.527,4.5914,4.661,4.7383,4.8463,4.9183,4.9354,5.0093,5.0711,5.1155,5.2195,5.2787,5.2894,5.371,5.4002,5.3861,5.4624,5.4878,3.1198,3.0559,2.9984,2.9844,2.9785,2.9816,0.0,0.0,0.0,3.1312,3.1751,3.2189,3.2769,3.3323,3.3827,3.4067,3.4218,3.4293,3.4248,3.5479,3.6634,3.7287,3.7563,3.809,3.912,3.9597,4.0727,4.2811,4.389,4.4653,4.5092,4.5278,4.527,4.4902,4.4323,4.3927,4.3802,4.2747,4.1862,4.1289,4.0416,3.9551,3.8693,3.8418,3.8118,3.7818,3.7878,3.7758,3.7495,3.7818,3.7802,3.7687,3.7478,3.7616,3.7878,3.7878,3.8118,3.8575,3.9672,4.0157,4.0507,4.1691,4.2374,4.2696,4.2759,4.2506,4.2178,4.1946,4.1074,4.0259,4.0731,4.0908,4.1506,4.3583,4.4481,4.5561,4.7646,4.7665,4.7543,4.8407,4.7508,4.6637,4.6699,4.619,4.5878,4.624,4.5757,4.5392,4.5392,4.5025,4.4717,4.4409,4.4347,4.4532,4.5147,4.5793,4.6576,4.7468,4.8405,4.9125,4.9499,5.0206,5.0822,5.1266,5.2141,5.2627,5.268,5.3395,5.3656,5.3545,5.4383,5.4607,3.1384,3.1071,3.069,2.9984,3.0318,3.0652,2.9962,0.0,3.088,3.1358,0.0,3.1493,3.2015,0.0,0.0,3.2152,3.2482,3.2769,3.2491,3.3093,3.3922,3.4977,3.5956,3.6832,3.7412,3.927,4.1128,4.2861,4.3539,4.4367,4.5363,4.564,4.5574,4.527,4.4902,4.4385,4.3802,4.2956,4.2131,4.1289,4.0197,3.9213,3.844,3.8118,3.7758,3.7435,3.7758,3.7878,3.7878,3.7878,3.8303,3.8841,3.7791,3.7616,3.7878,3.7878,3.8118,3.8447,3.9046,3.9679,4.04,4.1052,4.1719,4.2402,4.2696,4.2379,4.1756,4.1319,4.1263,4.1256,4.1092,4.1392,4.2174,4.412,4.4544,4.4977,4.6907,4.713,4.7101,4.7706,4.7194,4.6699,4.7007,4.6373,4.5878,4.624,4.5999,4.5757,4.5757,4.5208,4.4779,4.4779,4.447,4.447,4.484,4.5453,4.618,4.6874,4.7762,4.8548,4.9125,5.0235,5.0906,5.0962,5.1787,5.2411,5.268,5.3054,5.3419,5.3854,5.4487,5.4773,3.1384,3.136,3.1301,3.0652,3.0976,3.1263,3.0502,3.0592,3.0901,3.1021,0.0,0.0,0.0,0.0,0.0,0.0,3.2077,3.2275,3.2357,3.2609,3.3122,3.4123,3.4926,3.5755,3.6681,3.8442,4.0124,4.1455,4.2359,4.3463,4.492,4.5226,4.5314,4.5331,4.4963,4.4594,4.4075,4.3364,4.2535,4.1593,4.0716,3.9606,3.838,3.8261,3.7878,3.7435,3.7758,3.7912,3.8055,3.8238,3.8525,3.8883,3.8437,3.8236,3.8277,3.7989,3.8176,3.8669,3.9505,4.0208,4.0831,4.133,4.1838,4.2275,4.2252,4.187,4.146,4.1153,4.0743,4.0557,4.1357,4.1542,4.2023,4.4124,4.4919,4.5467,4.6747,4.7053,4.7311,4.8068,4.7283,4.677,4.762,4.6674,4.5817,4.5999,4.5878,4.5817,4.5817,4.5574,4.5208,4.484,4.4656,4.4656,4.4779,4.5245,4.5793,4.6481,4.7586,4.8521,4.9354,5.0235,5.0739,5.0906,5.1732,5.2358,5.268,5.2947,5.3319,5.3658,5.423,5.4619,3.2049,3.214,3.216,3.1815,3.1844,3.177,3.1301,3.1104,3.0999,3.0962,3.0849,0.0,0.0,0.0,0.0,0.0,0.0,3.1866,3.1838,3.1975,3.2474,3.3564,3.4148,3.4926,3.6031,3.7436,3.8642,3.9747,4.1003,4.2434,4.4091,4.4611,4.5037,4.5306,4.5086,4.4717,4.4285,4.3639,4.2879,4.1986,4.1176,4.0068,3.8761,3.8515,3.8147,3.7753,3.7896,3.8033,3.824,3.8517,3.8847,3.9138,3.8881,3.8894,3.8962,3.8454,3.8559,3.9098,4.0023,4.0791,4.1352,4.182,4.2061,4.2275,4.1998,4.1678,4.1418,4.1334,4.0778,4.0529,4.2056,4.2188,4.2461,4.4451,4.5239,4.5728,4.6556,4.6735,4.6971,4.7824,4.7109,4.6646,4.7425,4.6774,4.6142,4.6326,4.6387,4.6387,4.6387,4.6201,4.5797,4.522,4.4913,4.4779,4.4656,4.5061,4.5671,4.6456,4.7457,4.8363,4.9328,5.001,5.0516,5.0795,5.1568,5.228,5.2829,5.2873,5.314,5.3656,5.4029,5.4385,3.3777,3.3611,3.3378,3.3545,3.2874,3.2246,3.241,3.1695,3.1112,3.1485,3.1261,3.1075,3.1261,0.0,0.0,0.0,0.0,0.0,0.0,3.062,3.1504,3.296,3.3596,3.4349,3.5408,3.6107,3.6958,3.8015,3.9622,4.1279,4.2936,4.4066,4.4793,4.5306,4.527,4.4963,4.4285,4.3639,4.3067,4.255,4.1361,4.0432,3.9747,3.8806,3.8446,3.8525,3.8218,3.828,3.8591,3.8744,3.9289,3.9939,3.9138,3.9311,3.998,3.9534,3.9543,3.9819,4.0437,4.1122,4.1847,4.2189,4.2275,4.2275,4.2275,4.2061,4.1806,4.1783,4.1783,4.2074,4.3467,4.3678,4.3961,4.5495,4.5495,4.5329,4.6244,4.6006,4.5817,4.6375,4.6445,4.6275,4.5764,4.6333,4.7069,4.7733,4.7857,4.7857,4.7857,4.7097,4.6464,4.613,4.5318,4.4656,4.4347,4.4902,4.5853,4.7087,4.736,4.7853,4.8721,4.9556,5.0179,5.0516,5.11,5.2014,5.3185,5.2533,5.2858,5.3971,5.3949,5.4045,3.4982,3.5009,3.5061,3.4701,3.4259,3.382,3.3503,3.2539,3.1815,3.208,3.175,3.1447,3.1669,0.0,0.0,0.0,0.0,0.0,0.0,3.1117,3.1417,3.193,3.2639,3.3321,3.3872,3.4615,3.559,3.6835,3.8115,3.9597,4.1254,4.2862,4.3896,4.4249,4.4719,4.4779,4.4285,4.3888,4.3254,4.2574,4.1955,4.1122,4.0101,3.9785,3.9617,3.9427,3.9365,3.9419,3.9604,3.9633,3.9858,4.0211,4.0164,4.0314,4.0445,3.9626,3.96,4.0145,4.1058,4.1734,4.2084,4.1765,4.1806,4.187,4.1421,4.1357,4.1486,4.1742,4.2033,4.2571,4.3582,4.4078,4.44,4.5004,4.5209,4.5252,4.5301,4.5216,4.5248,4.574,4.5862,4.6144,4.691,4.7499,4.7689,4.7293,4.7432,4.7683,4.7908,4.7633,4.7284,4.6721,4.6042,4.5413,4.4876,4.478,4.53,4.6525,4.636,4.6976,4.8637,4.8782,4.9266,5.0179,5.0572,5.1488,5.288,5.26,5.3039,5.4,5.4013,5.4089,3.701,3.6911,3.6795,3.656,3.5907,3.5178,3.4592,3.3595,3.2657,3.2376,3.208,3.1819,3.1539,0.0,0.0,0.0,0.0,0.0,0.0,3.0978,3.0809,3.0809,3.1664,3.2329,3.2614,3.3446,3.442,3.5612,3.6937,3.8442,4.0149,4.1604,4.274,4.3389,4.3804,4.3905,4.3794,4.3463,4.3023,4.2574,4.1868,4.1307,4.0808,4.0286,4.014,4.0315,4.0168,4.0285,4.0472,4.0523,4.0576,4.0669,4.0906,4.0971,4.0904,4.0259,4.0237,4.0634,4.1501,4.1934,4.2084,4.1614,4.1614,4.1678,4.1164,4.1229,4.1486,4.1742,4.2161,4.27,4.3779,4.4259,4.4608,4.4891,4.5051,4.5051,4.4869,4.4543,4.4449,4.5169,4.5269,4.5721,4.7042,4.7745,4.8036,4.7863,4.8092,4.8346,4.851,4.8335,4.8021,4.7478,4.6795,4.6064,4.5329,4.4598,4.4843,4.6225,4.5654,4.6191,4.8262,4.814,4.8706,5.0138,5.0288,5.1235,5.3191,5.2771,5.3217,5.4527,5.4067,5.412]}]]